[[{"header":{"parameterUnit":"m.s-1","parameterCategory":1,"la1":30.6,"la2":29.2853,"lo1":-89.7004,"lo2":-87.6739,"dy":0.0162,"dx":0.0183,"nx":112,"ny":82,"refTime":"2024-07-16T00:00:00:Z","depth":0,"parameterNumber":2,"parameterNumberName":"U-component_of_WINDS"},"data":[0.0,0.0,0.0,0.0,0.0,0.0,0.0,0.0,0.0,0.0,0.0,0.0,0.0,0.0,0.0,0.0,0.0,0.0,0.0,0.0,0.0,0.0,0.0,0.0,0.0,0.0,0.0,0.0,0.0,0.0,0.0,0.0,0.0,0.0,0.0,0.0,0.0,0.0,0.0,0.0,0.0,0.0,0.0,0.0,0.0,0.0,0.0,0.0,0.0,0.0,0.0,0.0,0.0,0.0,0.0,0.0,0.0,0.0,0.0,0.0,0.0,0.0,0.0,0.0,0.0,0.0,0.0,0.0,0.0,0.0,0.0,0.0,0.0,0.0,0.0,0.0,0.0,0.0,0.0,0.0,0.0,0.0,0.0,0.0,0.0,0.0,0.0,0.0,0.0,0.0,-2.2161,-2.3079,-2.3786,-2.419,-2.419,-2.419,-2.3511,-2.1904,0.0,0.0,0.0,0.0,0.0,0.0,0.0,0.0,0.0,0.0,0.0,0.0,0.0,0.0,0.0,0.0,0.0,0.0,0.0,0.0,0.0,0.0,0.0,0.0,0.0,0.0,0.0,0.0,0.0,0.0,0.0,0.0,0.0,0.0,0.0,0.0,0.0,0.0,0.0,0.0,0.0,0.0,0.0,0.0,0.0,0.0,0.0,0.0,0.0,0.0,0.0,0.0,0.0,0.0,0.0,0.0,0.0,0.0,0.0,0.0,0.0,0.0,0.0,0.0,0.0,0.0,0.0,0.0,0.0,0.0,0.0,0.0,0.0,0.0,0.0,0.0,0.0,0.0,0.0,0.0,0.0,0.0,0.0,0.0,0.0,0.0,0.0,0.0,0.0,0.0,0.0,0.0,0.0,0.0,0.0,0.0,0.0,0.0,0.0,0.0,0.0,0.0,0.0,0.0,-2.2363,-2.3859,-2.4135,-2.419,-2.419,-2.419,-2.3511,-2.1904,0.0,0.0,0.0,0.0,0.0,0.0,0.0,0.0,0.0,0.0,0.0,0.0,0.0,0.0,0.0,0.0,0.0,0.0,0.0,0.0,0.0,0.0,0.0,0.0,0.0,0.0,0.0,0.0,0.0,0.0,0.0,0.0,0.0,0.0,0.0,0.0,0.0,0.0,0.0,0.0,0.0,0.0,0.0,0.0,0.0,0.0,0.0,0.0,0.0,0.0,0.0,0.0,0.0,0.0,0.0,0.0,0.0,0.0,0.0,0.0,0.0,0.0,0.0,0.0,0.0,0.0,0.0,0.0,0.0,0.0,0.0,0.0,0.0,0.0,0.0,0.0,0.0,0.0,0.0,0.0,0.0,0.0,0.0,0.0,0.0,0.0,0.0,0.0,0.0,0.0,0.0,0.0,0.0,0.0,0.0,0.0,0.0,0.0,0.0,0.0,0.0,0.0,0.0,-2.1749,-2.2905,-2.4061,-2.419,-2.419,-2.419,-2.419,-2.3511,-2.1904,-2.0574,0.0,0.0,0.0,0.0,0.0,0.0,0.0,0.0,0.0,0.0,0.0,0.0,0.0,0.0,0.0,0.0,0.0,0.0,0.0,0.0,0.0,0.0,0.0,0.0,0.0,0.0,0.0,0.0,0.0,0.0,0.0,0.0,0.0,0.0,0.0,0.0,0.0,0.0,0.0,0.0,0.0,0.0,0.0,0.0,0.0,0.0,0.0,0.0,0.0,0.0,0.0,0.0,0.0,0.0,0.0,0.0,0.0,0.0,0.0,0.0,0.0,0.0,0.0,0.0,0.0,0.0,0.0,0.0,0.0,0.0,0.0,0.0,0.0,0.0,0.0,0.0,0.0,0.0,0.0,0.0,0.0,0.0,0.0,0.0,0.0,0.0,0.0,0.0,0.0,0.0,0.0,0.0,0.0,0.0,0.0,0.0,0.0,0.0,0.0,0.0,0.0,0.0,-2.3043,-2.3529,-2.4135,-2.419,-2.419,-2.419,-2.4025,-2.3309,-2.1886,-2.005,0.0,0.0,0.0,0.0,0.0,0.0,0.0,0.0,0.0,0.0,0.0,0.0,0.0,0.0,0.0,0.0,0.0,0.0,0.0,0.0,0.0,0.0,0.0,0.0,0.0,0.0,0.0,0.0,0.0,0.0,0.0,0.0,0.0,0.0,0.0,0.0,0.0,0.0,0.0,0.0,0.0,0.0,0.0,0.0,0.0,0.0,0.0,0.0,0.0,0.0,0.0,0.0,0.0,0.0,0.0,0.0,0.0,0.0,0.0,0.0,0.0,0.0,0.0,0.0,0.0,0.0,0.0,0.0,0.0,0.0,0.0,0.0,0.0,0.0,0.0,0.0,0.0,0.0,0.0,0.0,0.0,0.0,0.0,0.0,0.0,0.0,0.0,0.0,0.0,0.0,0.0,0.0,0.0,0.0,0.0,0.0,0.0,0.0,0.0,0.0,0.0,0.0,-2.3189,-2.4135,-2.419,-2.419,-2.419,-2.419,-2.3511,-2.2721,-2.1849,-1.9528,0.0,0.0,0.0,0.0,0.0,0.0,0.0,0.0,0.0,0.0,0.0,0.0,0.0,0.0,0.0,0.0,0.0,0.0,0.0,0.0,0.0,0.0,0.0,0.0,0.0,0.0,0.0,0.0,0.0,0.0,0.0,0.0,0.0,0.0,0.0,0.0,0.0,0.0,0.0,0.0,0.0,0.0,0.0,0.0,0.0,0.0,0.0,0.0,0.0,0.0,0.0,0.0,0.0,0.0,0.0,0.0,0.0,0.0,0.0,0.0,0.0,0.0,0.0,0.0,0.0,0.0,0.0,0.0,0.0,0.0,0.0,0.0,0.0,0.0,0.0,0.0,0.0,0.0,0.0,0.0,0.0,0.0,0.0,0.0,0.0,0.0,0.0,0.0,0.0,0.0,0.0,0.0,0.0,0.0,0.0,0.0,0.0,0.0,0.0,0.0,0.0,0.0,-2.2776,-2.3639,-2.4153,-2.419,-2.419,-2.419,-2.3914,-2.318,-2.1886,0.0,0.0,0.0,0.0,0.0,0.0,0.0,0.0,0.0,0.0,0.0,0.0,0.0,0.0,0.0,0.0,0.0,0.0,0.0,0.0,0.0,0.0,0.0,0.0,0.0,0.0,0.0,0.0,0.0,0.0,0.0,0.0,0.0,0.0,0.0,0.0,0.0,0.0,0.0,0.0,0.0,0.0,0.0,0.0,0.0,0.0,0.0,0.0,0.0,0.0,0.0,0.0,0.0,0.0,0.0,0.0,0.0,0.0,0.0,0.0,0.0,0.0,0.0,0.0,0.0,0.0,0.0,0.0,0.0,0.0,0.0,0.0,0.0,0.0,0.0,0.0,0.0,0.0,0.0,0.0,0.0,0.0,0.0,0.0,0.0,0.0,0.0,0.0,0.0,0.0,0.0,0.0,0.0,0.0,0.0,0.0,0.0,0.0,0.0,0.0,0.0,0.0,-2.1387,-2.2667,-2.3602,-2.4135,-2.419,-2.419,-2.419,-2.3731,-2.2859,-2.1473,0.0,0.0,0.0,0.0,0.0,0.0,0.0,0.0,0.0,0.0,0.0,0.0,0.0,0.0,0.0,0.0,0.0,0.0,0.0,0.0,0.0,0.0,0.0,0.0,0.0,0.0,0.0,0.0,0.0,0.0,0.0,0.0,0.0,0.0,0.0,0.0,0.0,0.0,0.0,0.0,0.0,0.0,0.0,0.0,0.0,0.0,0.0,0.0,0.0,0.0,0.0,0.0,0.0,0.0,0.0,0.0,0.0,0.0,0.0,0.0,0.0,0.0,0.0,0.0,0.0,0.0,0.0,0.0,0.0,0.0,0.0,0.0,0.0,0.0,0.0,0.0,0.0,0.0,0.0,0.0,0.0,0.0,0.0,0.0,0.0,0.0,0.0,0.0,0.0,0.0,0.0,0.0,0.0,0.0,0.0,0.0,0.0,0.0,0.0,0.0,0.0,0.0,-2.1196,-2.304,-2.419,-2.419,-2.419,-2.419,-2.419,-2.273,-2.1418,0.0,0.0,0.0,0.0,0.0,0.0,0.0,0.0,0.0,0.0,0.0,0.0,0.0,0.0,0.0,0.0,0.0,0.0,0.0,0.0,0.0,0.0,0.0,0.0,0.0,0.0,0.0,0.0,0.0,0.0,0.0,0.0,0.0,0.0,0.0,0.0,0.0,0.0,0.0,0.0,0.0,0.0,0.0,0.0,0.0,0.0,0.0,0.0,0.0,0.0,0.0,0.0,0.0,0.0,0.0,0.0,0.0,0.0,0.0,0.0,0.0,0.0,0.0,0.0,0.0,0.0,0.0,0.0,0.0,0.0,0.0,0.0,0.0,0.0,0.0,0.0,0.0,0.0,0.0,0.0,0.0,0.0,0.0,0.0,0.0,0.0,0.0,0.0,0.0,0.0,0.0,0.0,0.0,0.0,0.0,0.0,0.0,0.0,0.0,0.0,0.0,0.0,0.0,-2.1196,-2.304,-2.419,-2.419,-2.419,-2.3969,-2.3391,-2.2923,-2.1785,-1.9785,0.0,0.0,0.0,0.0,0.0,0.0,0.0,0.0,0.0,0.0,0.0,0.0,0.0,0.0,0.0,0.0,0.0,0.0,0.0,0.0,0.0,0.0,0.0,0.0,0.0,0.0,0.0,0.0,0.0,0.0,0.0,0.0,0.0,0.0,0.0,0.0,0.0,0.0,0.0,0.0,0.0,0.0,0.0,0.0,0.0,0.0,0.0,0.0,0.0,0.0,0.0,0.0,0.0,0.0,0.0,0.0,0.0,0.0,0.0,0.0,0.0,0.0,0.0,0.0,0.0,0.0,0.0,0.0,0.0,0.0,0.0,0.0,0.0,0.0,0.0,0.0,0.0,0.0,0.0,0.0,0.0,0.0,0.0,0.0,0.0,0.0,0.0,0.0,0.0,0.0,0.0,0.0,0.0,0.0,0.0,0.0,0.0,0.0,0.0,0.0,0.0,0.0,-2.1168,-2.2925,-2.4046,-2.418,-2.419,-2.4006,-2.3529,-2.2887,-2.1749,-1.9895,0.0,0.0,0.0,0.0,0.0,0.0,0.0,0.0,0.0,0.0,0.0,0.0,0.0,0.0,0.0,0.0,0.0,0.0,0.0,0.0,0.0,0.0,0.0,0.0,0.0,0.0,0.0,0.0,0.0,0.0,0.0,0.0,0.0,0.0,0.0,0.0,0.0,0.0,0.0,0.0,0.0,0.0,0.0,0.0,0.0,0.0,0.0,0.0,0.0,0.0,0.0,0.0,0.0,0.0,0.0,0.0,0.0,0.0,0.0,0.0,0.0,0.0,0.0,0.0,0.0,0.0,0.0,0.0,0.0,0.0,0.0,0.0,0.0,0.0,0.0,0.0,0.0,0.0,0.0,0.0,0.0,0.0,0.0,0.0,0.0,0.0,0.0,0.0,0.0,0.0,0.0,0.0,0.0,0.0,0.0,0.0,0.0,0.0,0.0,0.0,0.0,0.0,-2.1101,-2.2759,-2.3847,-2.417,-2.419,-2.4171,-2.4098,-2.2675,-2.1408,-2.0456,0.0,0.0,0.0,0.0,0.0,0.0,0.0,0.0,0.0,0.0,0.0,0.0,0.0,0.0,0.0,0.0,0.0,0.0,0.0,0.0,0.0,0.0,0.0,0.0,0.0,0.0,0.0,0.0,0.0,0.0,0.0,0.0,0.0,0.0,0.0,0.0,0.0,0.0,0.0,0.0,0.0,0.0,0.0,0.0,0.0,0.0,0.0,0.0,0.0,0.0,0.0,0.0,0.0,0.0,0.0,0.0,0.0,0.0,0.0,0.0,-1.6854,-1.6097,0.0,0.0,0.0,0.0,0.0,0.0,0.0,0.0,0.0,0.0,0.0,0.0,0.0,0.0,0.0,0.0,0.0,0.0,0.0,0.0,0.0,0.0,0.0,0.0,0.0,0.0,0.0,0.0,0.0,0.0,0.0,0.0,0.0,0.0,0.0,0.0,0.0,0.0,0.0,0.0,-2.0868,-2.2847,-2.4113,-2.419,-2.419,-2.3933,-2.3299,-2.2354,-2.1151,-1.9638,-1.7887,0.0,0.0,0.0,0.0,0.0,0.0,0.0,0.0,0.0,0.0,0.0,0.0,0.0,0.0,0.0,0.0,0.0,0.0,0.0,0.0,0.0,0.0,0.0,0.0,0.0,0.0,0.0,0.0,0.0,0.0,0.0,0.0,0.0,0.0,0.0,0.0,0.0,0.0,0.0,0.0,0.0,0.0,0.0,0.0,0.0,0.0,0.0,0.0,0.0,0.0,0.0,0.0,0.0,0.0,0.0,0.0,0.0,0.0,0.0,-1.8895,-1.8116,0.0,0.0,0.0,0.0,0.0,0.0,0.0,0.0,0.0,0.0,0.0,0.0,0.0,0.0,0.0,0.0,0.0,0.0,0.0,0.0,0.0,0.0,0.0,0.0,0.0,0.0,0.0,0.0,0.0,0.0,0.0,0.0,0.0,0.0,0.0,0.0,0.0,0.0,0.0,0.0,-2.076,-2.2428,-2.3599,-2.3927,-2.3966,-2.3852,-2.3611,-2.2492,-2.1427,-2.0564,-1.861,0.0,0.0,0.0,0.0,0.0,0.0,0.0,0.0,0.0,0.0,0.0,0.0,0.0,0.0,0.0,0.0,0.0,0.0,0.0,0.0,0.0,0.0,0.0,0.0,0.0,0.0,0.0,0.0,0.0,0.0,0.0,0.0,0.0,0.0,0.0,0.0,0.0,0.0,0.0,0.0,0.0,0.0,0.0,0.0,0.0,0.0,0.0,0.0,0.0,0.0,0.0,0.0,0.0,-1.9518,-1.9655,-2.0265,-2.0185,-2.0573,-2.1274,-2.0607,-2.0103,-1.9683,-1.9014,0.0,0.0,0.0,0.0,0.0,0.0,0.0,0.0,0.0,0.0,0.0,0.0,0.0,0.0,0.0,0.0,0.0,0.0,0.0,0.0,0.0,0.0,-1.929,-2.004,-2.0667,-2.037,-1.7745,0.0,0.0,0.0,0.0,0.0,0.0,0.0,0.0,0.0,0.0,0.0,-2.0857,-2.2065,-2.3009,-2.3555,-2.361,-2.3714,-2.4006,-2.2684,-2.1771,-2.1653,-1.9496,-1.8177,0.0,0.0,0.0,0.0,0.0,0.0,0.0,0.0,0.0,0.0,0.0,0.0,0.0,0.0,0.0,0.0,0.0,0.0,0.0,0.0,0.0,0.0,0.0,0.0,0.0,0.0,0.0,0.0,0.0,0.0,0.0,0.0,-1.227,-1.3064,0.0,0.0,0.0,0.0,0.0,0.0,0.0,0.0,0.0,0.0,0.0,0.0,0.0,-2.0388,-2.037,-2.1832,-2.2205,-2.1516,-2.2812,-2.3107,-2.2591,-2.3254,-2.3621,-2.3732,-2.363,0.0,-2.1464,-2.1353,0.0,0.0,0.0,0.0,0.0,0.0,0.0,0.0,0.0,0.0,0.0,0.0,0.0,0.0,0.0,0.0,0.0,0.0,0.0,0.0,0.0,0.0,-2.1399,-2.0838,-2.1518,-2.1846,-2.0243,-1.9934,-1.9866,-1.9408,-1.8891,-1.8122,0.0,0.0,0.0,0.0,0.0,0.0,-2.1312,-2.247,-2.3165,-2.3265,-2.3277,-2.3271,-2.3335,-2.25,-2.17,-2.1067,-1.9613,-1.847,-1.7772,-1.7092,0.0,0.0,0.0,0.0,0.0,0.0,0.0,0.0,0.0,0.0,0.0,0.0,0.0,0.0,0.0,0.0,0.0,0.0,0.0,0.0,0.0,0.0,0.0,0.0,0.0,0.0,0.0,0.0,0.0,-1.2484,-1.3836,-1.4645,-1.5499,-1.6006,0.0,0.0,0.0,0.0,0.0,0.0,0.0,0.0,0.0,-2.086,-2.1704,-2.211,-2.199,-2.3097,-2.3492,-2.3171,-2.3859,-2.4025,-2.3694,-2.4043,-2.419,-2.419,-2.419,-2.3691,-2.2854,-2.2575,-2.2109,-2.1507,0.0,0.0,0.0,0.0,-2.025,-1.97,-2.0257,-1.9991,-1.9372,-1.9127,0.0,0.0,0.0,0.0,0.0,0.0,0.0,-2.0389,-2.0541,-2.1065,-2.1601,-2.1824,-2.212,-2.2263,-2.1782,-2.1616,-2.123,-2.0131,-2.0234,-1.9956,-1.8228,-1.8404,0.0,0.0,0.0,-2.0651,-2.1289,-2.2143,-2.276,-2.2898,-2.2923,-2.2996,-2.3177,-2.2446,-2.1948,-2.1803,-2.0404,-1.9624,-1.9714,-1.8336,-1.7724,0.0,0.0,0.0,0.0,0.0,0.0,0.0,0.0,0.0,0.0,0.0,0.0,0.0,0.0,0.0,0.0,0.0,0.0,0.0,0.0,0.0,0.0,0.0,0.0,0.0,0.0,0.0,0.0,-1.4134,-1.5489,-1.6306,-1.7304,-1.7851,0.0,0.0,0.0,0.0,0.0,0.0,-2.1248,-2.1475,-2.1838,-2.239,-2.3145,-2.346,-2.3309,-2.3896,-2.419,-2.419,-2.419,-2.419,-2.419,-2.419,-2.4161,-2.4074,-2.4074,-2.3886,-2.3552,-2.3299,-2.2631,-2.1773,-2.1576,-2.1345,-2.1137,-2.1473,-2.1332,-2.1108,-2.1983,-2.1922,-2.1327,-2.0772,-2.0471,-2.0099,-1.9012,0.0,0.0,0.0,0.0,-2.0759,-2.1571,-2.163,-2.1681,-2.2413,-2.2487,-2.244,-2.2577,-2.266,-2.2302,-2.0952,-2.1494,-2.1604,-1.9799,-2.0111,0.0,-1.9607,-2.0463,-2.1258,-2.1461,-2.1955,-2.2374,-2.259,-2.2599,-2.2704,-2.2958,-2.242,-2.2101,-2.2158,-2.1172,-2.0759,-2.1175,-1.9805,-1.9232,-1.9632,0.0,0.0,0.0,0.0,0.0,0.0,0.0,0.0,0.0,0.0,0.0,0.0,0.0,0.0,0.0,0.0,0.0,0.0,0.0,0.0,0.0,0.0,0.0,0.0,0.0,0.0,0.0,0.0,0.0,-1.818,-1.9769,0.0,0.0,0.0,0.0,-2.0407,-2.132,-2.2179,-2.285,-2.3075,-2.3462,-2.4052,-2.4135,-2.4154,-2.4135,-2.4171,-2.419,-2.419,-2.419,-2.419,-2.419,-2.419,-2.4026,-2.3742,-2.3742,-2.3533,-2.3247,-2.3541,-2.3443,-2.3106,-2.3094,-2.3082,-2.3023,-2.2728,-2.2613,-2.2557,-2.2368,-2.1833,-2.1319,-2.1972,-2.1701,-2.1123,-2.1055,-2.1055,0.0,0.0,-2.1617,-2.2209,-2.2257,-2.2243,-2.226,-2.2307,-2.25,-2.2612,-2.2374,-2.2527,-2.2678,-2.2578,-2.2608,-2.2341,-2.1274,0.0,-2.1136,-2.1102,-2.114,-2.1461,-2.2144,-2.2279,-2.231,-2.2324,-2.2307,-2.2338,-2.2335,-2.2301,-2.1993,-2.1304,-2.1667,-2.162,-2.0955,-2.137,-2.1629,-2.1648,-1.9987,0.0,0.0,0.0,0.0,0.0,0.0,0.0,0.0,0.0,0.0,0.0,0.0,0.0,0.0,0.0,0.0,0.0,0.0,0.0,0.0,0.0,0.0,0.0,0.0,0.0,0.0,0.0,0.0,-2.0435,-2.1139,0.0,-2.1055,-2.1713,-2.2168,-2.2107,-2.2912,-2.3519,-2.3749,-2.3966,-2.4113,-2.4199,-2.433,-2.4339,-2.419,-2.419,-2.419,-2.419,-2.419,-2.4084,-2.3886,-2.3886,-2.3692,-2.338,-2.338,-2.3189,-2.2885,-2.3009,-2.2984,-2.2885,-2.2885,-2.2764,-2.2611,-2.2477,-2.2436,-2.2426,-2.2335,-2.2141,-2.1955,-2.2212,-2.211,-2.1904,-2.1904,-2.1904,-2.1904,-2.1904,-2.2107,-2.2296,-2.2296,-2.2296,-2.2296,-2.2296,-2.2374,-2.2412,-2.2307,-2.2374,-2.2436,-2.2436,-2.2436,-2.2174,-2.1352,-2.1583,-2.1752,-2.1275,-2.16,-2.2006,-2.2262,-2.2296,-2.2296,-2.2296,-2.2296,-2.2296,-2.2296,-2.2296,-2.2351,-2.2486,-2.2189,-2.2218,-2.269,-2.2108,-2.1935,-2.225,-2.082,-1.9675,0.0,0.0,0.0,0.0,0.0,0.0,0.0,0.0,0.0,0.0,0.0,0.0,0.0,0.0,0.0,0.0,0.0,0.0,0.0,0.0,0.0,0.0,0.0,0.0,0.0,-1.9106,-2.0564,-2.1666,-2.2271,-2.251,-2.2235,-2.2923,-2.3391,-2.3391,-2.3962,-2.4266,-2.4199,-2.4393,-2.441,-2.4199,-2.4339,-2.4321,-2.419,-2.419,-2.419,-2.419,-2.419,-2.4016,-2.3703,-2.3703,-2.3466,-2.3033,-2.3033,-2.2848,-2.2577,-2.2577,-2.2577,-2.2577,-2.2577,-2.245,-2.2296,-2.2296,-2.2296,-2.2296,-2.2296,-2.2296,-2.2296,-2.2296,-2.2296,-2.2296,-2.2296,-2.2296,-2.2296,-2.2296,-2.2296,-2.2296,-2.2296,-2.2296,-2.2296,-2.2296,-2.2296,-2.2296,-2.2296,-2.2296,-2.2296,-2.2296,-2.2296,-2.2127,-2.1651,-2.1972,-2.2141,-2.1634,-2.1989,-2.2296,-2.2296,-2.2296,-2.2296,-2.2296,-2.2296,-2.2296,-2.2296,-2.2296,-2.2508,-2.2996,-2.2629,-2.2801,-2.3664,-2.2644,-2.2226,-2.252,-2.1125,-2.0146,-1.964,0.0,0.0,0.0,0.0,0.0,0.0,0.0,0.0,0.0,0.0,0.0,0.0,0.0,0.0,0.0,0.0,0.0,0.0,0.0,0.0,0.0,0.0,0.0,-1.9279,-2.0803,-2.1849,-2.1867,-2.3245,-2.3896,-2.3116,-2.3749,-2.419,-2.419,-2.4384,-2.441,-2.4209,-2.4384,-2.4401,-2.4199,-2.419,-2.419,-2.419,-2.419,-2.419,-2.419,-2.419,-2.4016,-2.3703,-2.3692,-2.3317,-2.2708,-2.2695,-2.2537,-2.2296,-2.2296,-2.2296,-2.2296,-2.2296,-2.2296,-2.2296,-2.2296,-2.2296,-2.2296,-2.2296,-2.2296,-2.2296,-2.2296,-2.2296,-2.2296,-2.2296,-2.2296,-2.2296,-2.2296,-2.2296,-2.2296,-2.2296,-2.2296,-2.2296,-2.2296,-2.2296,-2.2296,-2.2296,-2.2296,-2.2296,-2.2296,-2.2296,-2.2296,-2.2296,-2.2296,-2.2296,-2.2296,-2.2296,0.0,-2.2296,-2.2296,-2.2296,-2.2296,-2.2296,-2.2296,-2.2296,-2.2296,-2.2412,-2.2682,-2.3009,-2.3346,-2.3682,-2.3012,-2.2634,-2.2644,-2.1087,-2.0309,-2.0336,0.0,0.0,0.0,0.0,0.0,0.0,0.0,0.0,0.0,0.0,0.0,0.0,0.0,0.0,0.0,0.0,0.0,0.0,0.0,0.0,0.0,-1.9308,-2.0858,-2.1078,-2.2006,-2.2887,-2.3474,-2.3933,-2.4116,-2.3896,-2.4061,-2.419,-2.419,-2.4256,-2.4266,-2.4199,-2.4256,-2.4266,-2.419,-2.419,-2.419,-2.419,-2.419,-2.419,-2.419,-2.419,-2.4016,-2.3692,-2.3448,-2.3105,-2.2682,-2.2487,-2.236,-2.2296,-2.2296,-2.2296,-2.2296,-2.2296,-2.2296,-2.2296,-2.2296,-2.2296,-2.2296,-2.2296,-2.2296,-2.2296,-2.2296,-2.2296,-2.2296,-2.2296,-2.2296,-2.2296,-2.2296,-2.2296,-2.2296,-2.2296,-2.2296,-2.2296,-2.2296,-2.2296,-2.2296,-2.2296,-2.2296,-2.2296,-2.2296,-2.2296,-2.2296,-2.2296,-2.2296,-2.2296,-2.2296,-2.2296,-2.2296,-2.2296,-2.2296,-2.2296,-2.2296,-2.2296,-2.2296,-2.2296,-2.2296,-2.2412,-2.2682,-2.2784,-2.3093,-2.3682,-2.3505,-2.35,-2.3755,-2.274,-2.189,0.0,0.0,0.0,0.0,0.0,0.0,0.0,0.0,0.0,0.0,0.0,0.0,0.0,0.0,0.0,0.0,0.0,0.0,0.0,0.0,0.0,0.0,-2.1143,-2.2409,-2.2767,-2.3217,-2.3676,-2.4135,-2.419,-2.419,-2.419,-2.419,-2.419,-2.419,-2.419,-2.419,-2.419,-2.419,-2.419,-2.419,-2.419,-2.419,-2.419,-2.419,-2.419,-2.419,-2.419,-2.3947,-2.3471,-2.33,-2.2965,-2.251,-2.236,-2.2296,-2.2296,-2.2296,-2.2296,-2.2296,0.0,0.0,0.0,0.0,-2.2296,-2.2296,-2.2296,-2.2296,-2.2296,-2.2296,-2.2296,-2.2296,-2.2296,-2.2296,-2.2296,-2.2296,-2.2296,-2.2296,-2.2296,-2.2296,-2.2296,-2.2296,-2.2296,-2.2296,-2.2296,-2.2296,-2.2296,-2.2296,-2.2296,0.0,-2.2296,-2.2296,-2.2296,-2.2296,-2.2296,-2.2296,-2.2296,-2.2296,-2.2296,-2.2296,-2.2296,-2.2296,-2.2296,-2.2296,0.0,0.0,0.0,-2.2745,-2.2826,-2.282,0.0,0.0,0.0,0.0,0.0,-2.1742,0.0,0.0,-2.1562,-2.1834,0.0,0.0,0.0,0.0,0.0,0.0,0.0,0.0,0.0,0.0,0.0,0.0,0.0,0.0,0.0,0.0,-2.2611,-2.3373,-2.4098,-2.419,-2.419,-2.419,-2.419,-2.419,-2.419,-2.419,-2.419,-2.419,-2.419,-2.419,-2.419,-2.419,0.0,0.0,0.0,-2.419,-2.419,-2.4161,-2.4151,-2.4151,-2.4103,-2.3785,-2.32,-2.3153,-2.2857,-2.2349,-2.2307,-2.2296,-2.2296,-2.2296,-2.2296,-2.2296,-2.2296,-2.2296,-2.2296,-2.2296,-2.2296,-2.2296,-2.2296,0.0,0.0,-2.2296,-2.2296,-2.2296,-2.2296,-2.2296,-2.2296,-2.2296,-2.2296,-2.2296,-2.2296,-2.2296,-2.2296,-2.2296,-2.2296,-2.2296,-2.2296,-2.2296,-2.2296,-2.2296,-2.2296,-2.2296,-2.2296,-2.2296,-2.2296,-2.2296,-2.2296,-2.2296,-2.2296,-2.2296,-2.2296,-2.2296,-2.2296,0.0,-2.2296,-2.2296,-2.2398,-2.2634,-2.2682,-2.2413,-2.1737,-2.1757,-2.1781,-2.1781,-2.1817,-2.2306,-2.3265,-2.3282,-2.3477,-2.3709,-2.165,-2.1562,0.0,0.0,0.0,0.0,0.0,0.0,0.0,0.0,0.0,0.0,0.0,0.0,0.0,0.0,0.0,-2.2611,-2.3437,-2.4025,-2.4171,-2.419,-2.419,-2.419,-2.419,-2.419,-2.419,-2.419,-2.419,-2.419,-2.419,-2.419,-2.419,-2.419,-2.419,-2.419,-2.419,-2.419,-2.419,-2.3927,-2.3795,-2.3795,-2.3533,0.0,-2.3189,-2.2923,-2.2721,-2.2612,-2.2385,-2.2296,-2.2296,-2.2296,-2.2296,-2.2296,-2.2296,-2.2296,-2.2296,-2.2296,-2.2296,-2.2296,-2.2296,-2.2296,-2.2296,-2.2296,-2.2296,-2.2296,-2.2296,-2.2296,0.0,-2.2296,-2.2296,-2.2296,-2.2296,-2.2296,-2.2296,-2.2296,-2.2296,-2.2296,-2.2296,-2.2296,-2.2296,-2.2296,-2.2296,-2.2296,-2.2296,-2.2296,-2.2296,-2.2296,-2.2296,-2.2296,-2.2296,-2.2296,-2.2296,-2.2296,-2.2296,-2.2296,-2.2296,-2.2296,-2.2307,-2.2374,-2.2573,-2.2626,-2.25,-2.2744,-2.2894,-2.2894,-2.3166,-2.34,-2.3599,-2.3858,-2.4036,-2.4094,-2.3365,-2.3369,0.0,0.0,0.0,0.0,0.0,0.0,0.0,0.0,0.0,0.0,0.0,-1.9201,-2.0849,0.0,-2.2473,-2.3427,-2.3808,-2.4006,-2.417,-2.419,-2.419,-2.419,-2.419,-2.419,-2.419,-2.419,-2.419,-2.419,-2.419,-2.419,-2.419,-2.419,-2.419,-2.419,-2.419,-2.4113,-2.3947,-2.3785,-2.3628,-2.3448,-2.3288,-2.3105,-2.2947,-2.2784,-2.2621,-2.2487,-2.2363,-2.2296,-2.2296,-2.2296,-2.2296,-2.2296,-2.2296,-2.2296,-2.2296,-2.2296,-2.2296,-2.2296,-2.2296,-2.2296,-2.2296,-2.2296,-2.2296,-2.2296,-2.2296,-2.2296,-2.2296,-2.2296,-2.2296,-2.2296,-2.2296,-2.2296,-2.2296,-2.2296,-2.2296,-2.2296,-2.2296,-2.2296,-2.2296,-2.2296,-2.2296,-2.2296,-2.2296,-2.2296,-2.2296,-2.2296,-2.2296,-2.2296,-2.2296,-2.2296,-2.2296,-2.2296,-2.2296,-2.2296,-2.2296,-2.2296,-2.2296,-2.2296,-2.2426,-2.25,-2.25,-2.2673,-2.2807,-2.2947,-2.3117,-2.3288,-2.3448,-2.3628,-2.3785,-2.3955,-2.3785,-2.3886,0.0,0.0,0.0,0.0,0.0,0.0,0.0,-1.8702,-1.897,-2.0456,-2.0878,-2.1374,-2.2667,-2.2852,-2.3111,-2.3964,-2.3927,-2.3896,-2.4161,-2.4151,-2.4103,-2.4103,-2.4103,-2.4141,-2.419,-2.4151,-2.4141,-2.4208,-2.419,-2.419,-2.419,-2.4141,-2.4103,-2.4103,-2.4036,-2.3886,-2.3617,-2.3544,-2.3369,-2.3105,-2.3051,-2.2878,-2.2621,-2.2621,-2.25,-2.2296,-2.2296,-2.2296,-2.2296,-2.2296,-2.2296,-2.2313,-2.2448,-2.2431,-2.2296,-2.2296,-2.2296,-2.2296,-2.2296,-2.2296,-2.2296,-2.2296,-2.2296,-2.2296,-2.2296,-2.2296,-2.2296,-2.2296,-2.2296,-2.2296,-2.2296,-2.2296,-2.2296,-2.2296,-2.2296,-2.2296,-2.2296,-2.2296,-2.2296,-2.2296,-2.2296,-2.2296,-2.2296,-2.2296,-2.2296,-2.2296,-2.2296,-2.2296,-2.2296,-2.2296,-2.2296,-2.2296,-2.2296,-2.2296,-2.2296,-2.2296,-2.2296,-2.2296,-2.2296,-2.2296,-2.2296,-2.2349,-2.249,-2.2695,-2.2835,-2.3033,-2.33,-2.3369,-2.3533,-2.3795,-2.3969,-2.4174,-1.5392,-1.617,-1.7149,-1.8654,-1.8555,-1.8684,0.0,-2.0794,-2.0493,-2.1464,-2.2226,-2.2694,-2.258,-2.3346,-2.3954,-2.3777,-2.3958,-2.4161,-2.419,-2.3937,-2.3764,-2.3764,-2.3764,-2.3876,-2.417,-2.3927,-2.3886,-2.418,-2.419,-2.419,-2.419,-2.3917,-2.3764,-2.3764,-2.3477,-2.3282,-2.3265,-2.296,-2.2797,-2.2759,-2.2517,-2.2374,-2.2349,-2.2349,-2.2321,-2.2296,-2.2296,-2.2296,-2.2296,-2.2296,-2.2296,-2.2364,-2.3021,-2.2885,-2.2296,-2.2296,-2.2296,-2.2296,-2.2296,-2.2296,-2.2296,-2.2296,-2.2296,-2.2296,-2.2296,-2.2296,-2.2296,-2.2296,-2.2296,-2.2296,-2.2296,-2.2296,-2.2296,-2.2296,-2.2296,-2.2296,-2.2296,-2.2296,-2.2296,-2.2296,-2.2296,-2.2296,-2.2296,-2.2296,-2.2296,-2.2296,-2.2296,-2.2296,-2.2296,-2.2296,-2.2296,-2.2296,-2.2296,-2.2296,-2.2296,-2.2296,-2.2296,-2.2296,-2.2296,-2.2296,-2.2296,-2.2541,-2.2656,-2.2708,-2.3271,-2.3617,-2.3631,-2.3937,-2.4103,-2.4169,-2.4876,-2.5226,-1.6757,-1.8034,-1.9115,-1.9634,-2.0366,-2.1174,-2.2017,-2.2072,-2.2136,-2.2763,-2.317,-2.3306,-2.2983,-2.3307,-2.3649,-2.3692,-2.366,-2.3682,-2.3886,-2.361,-2.3403,-2.3403,-2.3403,-2.3544,-2.3886,-2.3785,-2.3837,-2.417,-2.4016,-2.3907,-2.3907,-2.3588,-2.3403,-2.3403,-2.3271,-2.3323,-2.3597,-2.3002,-2.2832,-2.3095,-2.2567,-2.2296,-2.2313,-2.275,-2.3173,-2.3579,-2.3579,-2.3579,-2.3579,-2.3579,-2.3579,-2.3613,-2.3915,-2.3864,-2.3528,-2.3105,-2.2682,-2.2296,-2.2296,-2.2296,-2.2296,-2.2296,-2.2296,-2.2296,-2.2296,-2.2296,-2.2296,-2.2296,-2.2296,-2.2296,-2.2296,-2.2296,-2.2296,-2.2296,-2.2296,-2.2296,-2.2296,-2.2296,-2.2296,-2.2296,-2.2296,-2.2296,-2.2296,-2.2296,-2.2296,-2.2296,-2.2296,-2.2296,-2.2296,-2.2296,-2.2296,-2.2296,-2.2296,-2.2296,-2.2296,-2.2296,-2.2296,-2.2296,-2.2296,-2.236,-2.2541,-2.2634,-2.2868,-2.3271,-2.3555,-2.3703,-2.3703,-2.4044,-2.4331,-2.4616,-2.5157,-2.5907,-1.806,-1.9447,-2.0536,-2.0716,-2.1898,-2.2978,-2.2849,-2.3022,-2.3293,-2.3627,-2.3639,-2.35,-2.3236,-2.3288,-2.338,-2.3544,-2.3444,-2.3392,-2.3544,-2.3271,-2.3093,-2.3189,-2.3051,-2.3099,-2.3522,-2.3555,-2.3671,-2.3907,-2.3703,-2.3555,-2.3555,-2.3236,-2.3057,-2.3057,-2.32,-2.3424,-2.376,-2.3395,-2.336,-2.3712,-2.3156,-2.2919,-2.2919,-2.346,-2.4,-2.4491,-2.4491,-2.4491,-2.4491,-2.4491,-2.4491,-2.4508,-2.4728,-2.4677,-2.4457,-2.412,-2.3545,-2.2885,-2.2682,-2.26,-2.2567,-2.2364,-2.2296,-2.2296,-2.2296,-2.2296,-2.2296,-2.2296,-2.2296,-2.2296,-2.2296,-2.2296,-2.2347,-2.2564,-2.2448,-2.2398,-2.2818,-2.275,-2.2651,-2.2868,-2.2919,-2.2852,-2.2649,-2.26,-2.2533,-2.233,-2.2296,-2.2296,-2.2296,-2.2296,-2.2296,-2.2296,-2.2296,-2.2296,-2.2296,-2.2296,-2.2296,-2.2296,-2.2296,-2.2426,-2.2682,-2.2797,-2.3105,-2.3692,-2.3795,-2.3795,-2.3703,-2.4153,-2.4483,-2.4746,-2.5443,-2.6379,-1.904,-1.9877,-2.081,-2.2098,-2.2716,-2.3124,-2.3557,-2.3667,-2.3667,-2.3703,-2.3437,-2.32,-2.32,-2.3477,-2.3577,-2.3277,-2.3488,-2.3577,-2.3247,-2.2935,-2.2835,-2.3153,-2.2686,-2.2558,-2.3171,-2.323,-2.3212,-2.3224,-2.3212,-2.323,-2.323,-2.2898,-2.2721,-2.2721,-2.3164,-2.3388,-2.3422,-2.41,-2.4455,-2.4457,-2.444,-2.4423,-2.4423,-2.4457,-2.4474,-2.4491,-2.4491,-2.4491,-2.4491,-2.4491,-2.4491,-2.4575,-2.5287,-2.5118,-2.4575,-2.5287,-2.5067,-2.4321,-2.3613,-2.3359,-2.3241,-2.2533,-2.2296,-2.2296,-2.2296,-2.2296,-2.2296,-2.2296,-2.2296,-2.2296,-2.2296,-2.2296,-2.2482,-2.319,-2.2818,-2.2699,-2.4118,-2.3881,-2.3579,-2.4288,-2.4423,-2.4203,-2.3477,-2.3359,-2.3122,-2.2398,-2.2296,-2.2296,-2.2296,-2.2296,-2.2296,-2.2296,-2.2296,-2.2296,-2.2296,-2.2296,-2.2296,-2.2296,-2.2296,-2.2426,-2.2682,-2.3009,-2.3346,-2.3692,-2.4016,-2.4016,-2.3703,-2.4424,-2.4611,-2.436,-2.5941,-2.6684,-1.9877,-2.0933,-2.1881,-2.2107,-2.2815,-2.3378,-2.31,-2.338,-2.3577,-2.3129,-2.2947,-2.2797,-2.2634,-2.2845,-2.3009,-2.2885,-2.2972,-2.2996,-2.2868,-2.2772,-2.2673,-2.2607,-2.2773,-2.2824,-2.2624,-2.2751,-2.296,-2.3177,-2.2996,-2.2873,-2.2873,-2.2759,-2.285,-2.3153,-2.3525,-2.4101,-2.4847,-2.4626,-2.4745,-2.522,-2.4728,-2.4762,-2.522,-2.522,-2.549,-2.5963,-2.5963,-2.5963,-2.5963,-2.5963,-2.5963,-2.598,-2.6234,-2.6167,-2.5997,-2.6234,-2.6167,-2.5794,-2.4558,-2.4135,-2.4085,-2.3848,-2.3763,-2.3763,-2.3763,-2.341,-2.3038,-2.3038,-2.2682,-2.2296,-2.2296,-2.2651,-2.3088,-2.3342,-2.3579,-2.3898,-2.4389,-2.4305,-2.4203,-2.444,-2.4491,-2.4423,-2.4169,-2.4135,-2.3881,-2.3139,-2.2615,-2.2296,-2.2296,-2.2296,-2.2296,-2.2296,-2.2296,-2.2499,-2.2987,-2.2581,-2.2733,-2.3712,-2.3548,-2.345,-2.3496,-2.4286,-2.4536,-2.4112,-2.4724,-2.4894,-2.4559,-2.5035,-2.5359,-2.5586,-2.6335,-2.6988,-2.095,-2.1841,-2.2449,-2.2289,-2.2892,-2.338,-2.2835,-2.3033,-2.3212,-2.2797,-2.2621,-2.2523,-2.245,-2.2573,-2.2708,-2.2708,-2.2708,-2.2673,-2.2577,-2.2563,-2.2541,-2.245,-2.2937,-2.3176,-2.289,-2.3165,-2.3261,-2.3032,-2.3358,-2.331,-2.2725,-2.2998,-2.324,-2.3391,-2.3864,-2.4582,-2.5592,-2.5405,-2.5507,-2.5998,-2.5507,-2.554,-2.5998,-2.5998,-2.6251,-2.6691,-2.6691,-2.6691,-2.6691,-2.6691,-2.6691,-2.6691,-2.6691,-2.6691,-2.6691,-2.6691,-2.6691,-2.6522,-2.532,-2.4897,-2.4846,-2.4592,-2.4491,-2.4491,-2.4491,-2.4169,-2.3746,-2.346,-2.3241,-2.3038,-2.2767,-2.3241,-2.3849,-2.412,-2.4355,-2.4643,-2.5168,-2.5083,-2.4982,-2.5235,-2.5286,-2.5202,-2.4948,-2.4677,-2.4338,-2.3864,-2.3376,-2.2987,-2.2733,-2.2919,-2.3088,-2.3088,-2.3088,-2.3274,-2.3763,-2.3488,-2.3636,-2.4455,-2.4428,-2.4416,-2.4466,-2.513,-2.5379,-2.5135,-2.5485,-2.5504,-2.5181,-2.5533,-2.5808,-2.5998,-2.6469,-2.6986,-2.2162,-2.2504,-2.2536,-2.2673,-2.2947,-2.3081,-2.2759,-2.2682,-2.2695,-2.2682,-2.249,-2.2374,-2.2621,-2.2669,-2.2669,-2.2669,-2.2669,-2.2586,-2.2335,-2.231,-2.2398,-2.266,-2.3078,-2.3502,-2.3843,-2.4259,-2.403,-2.2894,-2.423,-2.4389,-2.2859,-2.3601,-2.3888,-2.3526,-2.4201,-2.4929,-2.5643,-2.6353,-2.6691,-2.6691,-2.6691,-2.6691,-2.6691,-2.6691,-2.6691,-2.6691,-2.6691,-2.6691,-2.6691,-2.6691,-2.6691,-2.6691,-2.6691,-2.6691,-2.6691,-2.6691,-2.6691,-2.659,-2.5896,-2.5659,-2.5541,-2.4846,-2.4609,-2.4609,-2.4609,-2.4592,-2.4406,-2.3712,-2.4,-2.4338,-2.3644,-2.4,-2.4728,-2.5439,-2.5084,-2.4998,-2.6403,-2.615,-2.5862,-2.6556,-2.6691,-2.6471,-2.5795,-2.5033,-2.4558,-2.4558,-2.4558,-2.4288,-2.3545,-2.4068,-2.4491,-2.4491,-2.4491,-2.4508,-2.4541,-2.4881,-2.4939,-2.4654,-2.4991,-2.5292,-2.5539,-2.5583,-2.5911,-2.6542,-2.6212,-2.5879,-2.5548,-2.5936,-2.5975,-2.566,-2.637,-2.6691,-2.2419,-2.2571,-2.2653,-2.2694,-2.2772,-2.2764,-2.248,-2.2563,-2.2634,-2.2436,-2.2349,-2.2307,-2.2402,-2.2398,-2.2398,-2.2398,-2.2398,-2.2374,-2.231,-2.2477,-2.255,-2.2412,-2.2681,-2.3052,-2.3485,-2.4128,-2.4473,-2.4424,-2.4567,-2.4471,-2.4064,-2.448,-2.4846,-2.5033,-2.5468,-2.593,-2.6404,-2.6607,-2.6691,-2.6691,-2.6691,-2.6691,-2.6691,-2.6691,-2.6691,-2.6691,-2.6691,-2.6691,-2.6691,-2.6691,-2.6691,-2.6691,-2.6691,-2.6691,-2.6691,-2.6691,-2.6691,-2.6674,-2.6471,-2.642,-2.6387,-2.6201,-2.6149,-2.6149,-2.6149,-2.5761,-2.5287,-2.5101,-2.478,-2.4457,-2.4271,-2.4778,-2.5372,-2.5558,-2.5879,-2.6251,-2.6607,-2.6539,-2.6471,-2.6657,-2.6691,-2.664,-2.6437,-2.5812,-2.5321,-2.5321,-2.5321,-2.505,-2.4321,-2.4372,-2.4491,-2.4491,-2.4491,-2.4728,-2.527,-2.4921,-2.521,-2.6492,-2.6443,-2.6254,-2.6025,-2.6838,-2.6831,-2.5868,-2.6283,-2.6483,-2.6389,-2.6499,-2.6503,-2.642,-2.6607,-2.6691,-2.2747,-2.2747,-2.2656,-2.255,-2.251,-2.2388,-2.1929,-2.2187,-2.2388,-2.1912,-2.206,-2.2195,-2.187,-2.209,-2.2178,-2.187,-2.2076,-2.2296,-2.2296,-2.244,-2.2463,-2.2324,-2.2712,-2.3232,-2.3829,-2.4558,-2.5195,-2.572,-2.5737,-2.543,-2.475,-2.5232,-2.5551,-2.5592,-2.5783,-2.614,-2.6691,-2.6691,-2.6691,-2.6691,-2.6691,-2.6691,-2.6691,-2.6691,-2.6691,-2.6691,-2.6691,-2.6691,-2.6691,-2.6691,-2.6691,-2.6691,-2.6691,-2.6691,-2.6691,-2.6691,-2.6691,-2.6691,-2.6691,-2.6691,-2.6691,-2.6691,-2.6691,-2.6691,-2.6691,-2.6404,-2.6031,-2.5693,-2.5541,-2.5388,-2.5083,-2.5524,-2.6082,-2.6082,-2.6404,-2.6691,-2.6691,-2.6691,-2.6691,-2.6691,-2.6691,-2.6691,-2.6691,-2.6353,-2.6082,-2.6082,-2.6082,-2.593,-2.5523,-2.5472,-2.5472,-2.5472,-2.5472,-2.5625,-2.6048,-2.6023,-2.6279,-2.6984,-2.7189,-2.7088,-2.671,-2.7467,-2.7553,-2.6839,-2.7076,-2.7225,-2.7225,-2.6873,-2.6691,-2.6691,-2.6691,-2.6691,-2.3157,-2.2996,-2.2647,-2.2412,-2.2338,-2.2124,-2.1376,-2.1684,-2.1938,-2.1177,-2.1549,-2.1803,-2.1173,-2.1651,-2.1938,-2.1309,-2.182,-2.2296,-2.2296,-2.2296,-2.2296,-2.2296,-2.2868,-2.3579,-2.4423,-2.5067,-2.5795,-2.664,-2.7019,-2.664,-2.5298,-2.588,-2.6107,-2.5761,-2.5761,-2.6048,-2.6691,-2.6691,-2.6691,-2.6691,-2.6691,-2.6691,-2.6691,-2.6691,-2.6691,-2.6691,-2.6691,-2.6691,-2.6691,-2.6691,-2.6691,-2.6691,-2.6691,-2.6691,-2.6691,-2.6691,-2.6691,-2.6691,-2.6691,-2.6691,-2.6691,-2.6691,-2.6691,-2.6691,-2.6691,-2.6691,-2.6573,-2.593,-2.6201,-2.6539,-2.5913,-2.6218,-2.6691,-2.6691,-2.6691,-2.6691,-2.6691,-2.6691,-2.6691,-2.6691,-2.6691,-2.6691,-2.6691,-2.6691,-2.6691,-2.6691,-2.6691,-2.6691,-2.6691,-2.6691,-2.6691,-2.6691,-2.6691,-2.6691,-2.6691,-2.7332,-2.7472,-2.6808,-2.7485,-2.7725,-2.7319,-2.7695,-2.7992,-2.8179,-2.7894,-2.7754,-2.7754,-2.7035,-2.6691,-2.6691,-2.6691,-2.6691,-2.3585,-2.3165,-2.2682,-2.2634,-2.2463,-2.2124,-2.1376,-2.1292,0.0,-2.0369,-2.0318,-2.0356,-2.0234,-2.0856,-2.1343,-2.1207,-2.182,-2.2296,-2.2296,-2.2296,-2.2296,-2.2296,-2.2398,-2.3021,-2.4372,-2.4609,-2.5252,-2.659,-2.6758,-2.6689,-2.6418,-2.6536,-2.6571,-2.6505,-2.6505,-2.6573,-2.6691,-2.6691,-2.6691,-2.6691,-2.6691,-2.6691,-2.6691,-2.6691,-2.6691,-2.6691,-2.6691,-2.6691,-2.6691,-2.6691,-2.6691,-2.6691,-2.6691,-2.6691,-2.6691,-2.6691,-2.6691,-2.6691,-2.6691,-2.6691,-2.6691,-2.6691,-2.6691,-2.6691,-2.6691,-2.6691,-2.6674,-2.6539,-2.659,-2.6657,-2.6539,-2.659,-2.6691,-2.6691,-2.6691,-2.6691,-2.6691,-2.6691,-2.6691,-2.6691,-2.6691,-2.6691,-2.6691,-2.6691,-2.6691,-2.6691,-2.6691,-2.6691,-2.6691,-2.6691,-2.6691,-2.6691,-2.6691,-2.6691,-2.6691,-2.6824,-2.7004,-2.7194,-2.7634,-2.7725,-2.7319,-2.7695,-2.7604,-2.7019,-2.6938,-2.6906,-2.6906,-2.6775,-2.6691,-2.6691,-2.6691,-2.6691,-2.3488,-2.3081,-2.2673,-2.2541,-2.2402,-2.1992,-2.0839,0.0,0.0,-1.9672,-1.9727,-1.9883,-1.949,-2.0061,-2.0585,-2.0585,-2.1228,-2.1989,-2.2767,-2.2868,-2.3004,-2.3393,-2.3427,-2.3866,-2.4966,-2.5067,-2.5507,-2.6607,-2.6691,-2.6691,-2.6691,-2.6691,-2.6691,-2.6691,-2.6691,-2.6691,-2.6691,-2.6691,-2.6691,-2.6691,-2.6691,-2.6691,-2.6691,-2.6691,-2.6691,-2.6691,-2.6691,-2.6691,-2.6691,-2.6691,-2.6691,-2.6691,-2.6691,-2.6691,-2.6691,-2.6691,-2.6691,-2.6691,-2.6691,-2.6691,-2.6691,-2.6691,-2.6691,-2.6691,-2.6691,-2.6691,-2.6691,-2.6691,-2.6691,-2.6691,-2.6691,-2.6691,-2.6691,-2.6691,-2.6691,-2.6691,-2.6691,-2.6691,-2.6691,-2.6691,-2.6691,-2.6691,-2.6691,-2.6691,-2.6691,-2.6691,-2.6691,-2.6691,-2.6691,-2.6691,-2.6691,-2.6691,-2.6691,-2.6691,-2.6691,-2.7083,-2.7241,-2.6987,-2.756,-2.7636,-2.7003,-2.7592,-2.7619,-2.7019,-2.7225,-2.7225,-2.7003,-2.6791,-2.6691,-2.6691,-2.6691,-2.6691,-2.3403,-2.3057,-2.2738,-2.2467,-2.2349,-2.189,-2.0339,-2.05,0.0,-1.8978,-1.9118,-1.9355,-1.8775,-1.927,-1.9828,-1.9968,-2.0686,-2.1715,-2.319,-2.3393,-2.3663,-2.4406,-2.4491,-2.4795,-2.5541,-2.5592,-2.5913,-2.664,-2.6691,-2.6691,-2.6691,-2.6691,-2.6691,-2.6691,-2.6691,-2.6691,-2.6691,-2.6691,-2.6691,-2.6691,-2.6691,-2.6691,-2.6691,-2.6691,-2.6691,-2.6691,-2.6691,-2.6691,-2.6691,-2.6691,-2.6691,-2.6691,-2.6691,-2.6691,-2.6691,-2.6691,-2.6691,-2.6691,-2.6691,-2.6691,-2.6691,-2.6691,-2.6691,-2.6691,-2.6691,-2.6691,-2.6691,-2.6691,-2.6691,-2.6691,-2.6691,-2.6691,-2.6691,-2.6691,-2.6691,-2.6691,-2.6691,-2.6691,-2.6691,-2.6691,-2.6691,-2.6691,-2.6691,-2.6691,-2.6691,-2.6691,-2.6691,-2.6691,-2.6691,-2.6691,-2.6691,-2.6691,-2.6691,-2.6691,-2.6691,-2.7288,-2.7409,-2.6857,-2.7409,-2.7485,-2.6857,-2.7515,-2.7663,-2.7178,-2.7577,-2.7574,-2.7178,-2.6857,-2.6691,-2.6691,-2.6691,-2.6691,-2.3753,-2.3403,-2.3081,-2.2764,-2.2473,-2.189,-2.0339,0.0,-1.9693,-1.8205,-1.7952,-1.7986,-1.7901,-1.8504,-1.9215,-1.9883,0.0,-2.1715,-2.319,-2.3393,-2.3663,-2.4406,-2.4491,-2.4795,-2.5541,-2.5592,-2.5913,-2.664,-2.6691,-2.6691,-2.6691,-2.6691,-2.6691,-2.6691,-2.6691,-2.6691,-2.6691,-2.6691,-2.6691,-2.6691,-2.6691,-2.6691,-2.6691,-2.6691,-2.6691,-2.6691,-2.6691,-2.6691,-2.6691,-2.6691,-2.6691,-2.6691,-2.6691,-2.6691,-2.6691,-2.6691,-2.6691,-2.6691,-2.6691,-2.6691,-2.6691,-2.6691,-2.6691,-2.6691,-2.6691,-2.6691,-2.6691,-2.6691,-2.6691,-2.6691,-2.6691,-2.6691,-2.6691,-2.6691,-2.6691,-2.6691,-2.6691,-2.6691,-2.6691,-2.6691,-2.6691,-2.6691,-2.6691,-2.6691,-2.6691,-2.6691,-2.6691,-2.6691,-2.6691,-2.6691,-2.6691,-2.6691,-2.6691,-2.6691,-2.6691,-2.6775,-2.6939,-2.7225,-2.7301,-2.7334,-2.7257,-2.7681,-2.753,-2.6775,-2.7147,-2.7162,-2.6758,-2.6725,-2.6691,-2.6691,-2.6691,-2.6691,-2.3236,-2.3153,-2.3087,-2.2594,-2.25,-2.2089,-2.0391,-2.0002,-1.9579,-1.8104,-1.78,-1.78,-1.78,-1.8036,-1.8611,-1.9811,-2.0268,-2.116,-2.3122,-2.3393,-2.3833,-2.5017,-2.5152,-2.5456,-2.6184,-2.6251,-2.6387,-2.6674,-2.6691,-2.6691,-2.6691,-2.6691,-2.6691,-2.6691,-2.6691,-2.6691,-2.6691,-2.6691,-2.6691,-2.6691,-2.6691,-2.6691,-2.6691,-2.6691,-2.6691,-2.6691,-2.6691,-2.6691,-2.6691,-2.6691,-2.6691,-2.6691,-2.6691,-2.6691,-2.6691,-2.6691,-2.6691,-2.6691,-2.6691,-2.6691,-2.6691,-2.6691,-2.6691,-2.6691,-2.6691,-2.6691,-2.6691,-2.6691,-2.6691,-2.6691,-2.6691,-2.6691,-2.6691,-2.6691,-2.6691,-2.6691,-2.6691,-2.6691,-2.6691,-2.6691,-2.6691,-2.6691,-2.6691,-2.6691,-2.6691,-2.6691,-2.6691,-2.6691,-2.6691,-2.6691,-2.6691,-2.6691,-2.6691,-2.6691,-2.6691,-2.6923,-2.7036,-2.6938,-2.7162,-2.7194,-2.6955,-2.7334,-2.727,-2.6708,-2.7099,-2.7099,-2.6691,-2.6691,-2.6691,-2.6691,-2.6691,-2.6945,-2.3088,-2.3093,-2.3075,-2.2558,-2.25,-2.2142,-2.0387,-2.0002,-1.9579,-1.8104,-1.78,-1.78,-1.78,-1.7969,-1.8544,0.0,-2.02,-2.1075,-2.3105,-2.3393,-2.3866,-2.5135,-2.527,-2.5558,-2.6302,-2.6573,-2.6691,-2.6691,-2.6691,-2.6691,-2.6691,-2.6691,-2.6691,-2.6691,-2.6691,-2.6691,-2.6691,-2.6691,-2.6691,-2.6691,-2.6691,-2.6691,-2.6691,-2.6691,-2.6691,-2.6691,-2.6691,-2.6691,-2.6691,-2.6691,-2.6691,-2.6691,-2.6691,-2.6691,-2.6691,-2.6691,-2.6691,-2.6691,-2.6691,-2.6691,-2.6691,-2.6691,-2.6691,-2.6691,-2.6691,-2.6691,-2.6691,-2.6691,-2.6691,-2.6691,-2.6691,-2.6691,-2.6691,-2.6691,-2.6691,-2.6691,-2.6691,-2.6691,-2.6691,-2.6691,-2.6691,-2.6691,-2.6691,-2.6691,-2.6691,-2.6691,-2.6691,-2.6691,-2.6691,-2.6691,-2.6691,-2.6691,-2.6691,-2.6691,-2.6691,-2.6971,-2.7051,-2.689,-2.7019,-2.7051,-2.689,-2.7147,-2.7115,-2.6708,-2.721,-2.7225,-2.6691,-2.6808,-2.6825,-2.6691,-2.6691,-2.7215,-2.3568,-2.3448,-2.3117,-2.2784,-2.25,-2.189,-2.0339,-2.0002,-1.9579,-1.8104,-1.78,-1.78,-1.78,-1.8403,-1.913,-1.9879,-2.067,-2.1715,-2.319,-2.3393,-2.3678,-2.4423,-2.4508,-2.4795,-2.5541,-2.6268,-2.6691,-2.6691,-2.6691,-2.6691,-2.6691,-2.6691,-2.6691,-2.6691,-2.6691,-2.6691,-2.6691,-2.6691,-2.6691,-2.6691,-2.6691,-2.6691,-2.6691,-2.6691,-2.6691,-2.6691,-2.6691,-2.6691,-2.6691,-2.6691,-2.6691,-2.6691,-2.6691,-2.6691,-2.6691,-2.6691,-2.6691,-2.6691,-2.6691,-2.6691,-2.6691,-2.6691,-2.6691,-2.6691,-2.6691,-2.6691,-2.6691,-2.6691,-2.6691,-2.6691,-2.6691,-2.6691,-2.6691,-2.6691,-2.6691,-2.6691,-2.6691,-2.6691,-2.6691,-2.6691,-2.6691,-2.6691,-2.6691,-2.6691,-2.6691,-2.6691,-2.6691,-2.6691,-2.6691,-2.6691,-2.6691,-2.6691,-2.6691,-2.6691,-2.6691,-2.6708,-2.6873,-2.7272,-2.6923,-2.689,-2.7288,-2.7303,-2.7115,-2.6708,-2.7502,-2.75,-2.6691,-2.7099,-2.7083,-2.6691,-2.6691,-2.752,-2.1886,-2.2087,-2.2229,-2.134,-2.1487,-2.1374,-1.9636,-1.9642,-1.9579,-1.8104,-1.78,-1.78,-1.78,-1.8403,-1.9147,-1.9879,-2.0686,0.0,-2.2513,-2.3088,-2.3663,-2.4406,-2.5388,-2.6099,-2.6336,-2.6556,-2.6691,-2.6691,-2.6691,-2.6691,-2.6691,-2.6691,-2.6691,-2.6691,-2.6691,-2.6691,-2.6691,-2.6691,-2.6691,-2.6691,-2.6691,-2.6691,-2.6691,-2.6691,-2.6691,-2.6691,-2.6691,-2.6691,-2.6691,-2.6691,-2.6691,-2.6691,-2.6691,-2.6691,-2.6691,-2.6691,-2.6691,-2.6691,-2.6691,-2.6691,-2.6691,-2.6691,-2.6691,-2.6691,-2.6691,-2.6691,-2.6691,-2.6691,-2.6691,-2.6691,-2.6691,-2.6691,-2.6691,-2.6691,-2.6691,-2.6691,-2.6691,-2.6691,-2.6691,-2.6691,-2.6691,-2.6691,-2.6691,-2.6691,-2.6691,-2.6691,-2.6691,-2.6691,-2.6691,-2.6691,-2.6691,-2.6691,-2.6691,-2.6691,-2.6691,-2.6691,-2.6758,-2.6873,-2.6775,-2.6873,-2.727,-2.7303,-2.7363,-2.7532,-2.7783,-2.7765,-2.7515,-2.787,-2.8132,-2.8282,-2.8511,-2.9023,-2.1175,-2.1419,-2.1485,-2.0759,-2.0783,-2.0641,-1.9224,-1.9266,-1.9253,-1.8053,-1.802,-1.8217,-1.8217,-1.9063,-1.9908,-2.0382,-2.1109,-2.1786,-2.2229,-2.2936,-2.3663,-2.4406,-2.5558,-2.6285,-2.6285,-2.6539,-2.6691,-2.6691,-2.6691,-2.6691,-2.6691,-2.6691,-2.6691,-2.6691,-2.6691,-2.6691,-2.6691,-2.6691,-2.6691,-2.6691,-2.6691,-2.6691,-2.6691,-2.6691,-2.6691,-2.6691,-2.6691,-2.6691,0.0,-2.6691,-2.6691,-2.6691,-2.6691,-2.6691,-2.6691,-2.6691,-2.6691,-2.6691,-2.6691,-2.6691,-2.6691,-2.6691,-2.6691,-2.6691,-2.6691,-2.6691,-2.6691,-2.6691,-2.6691,-2.6691,-2.6691,-2.6691,-2.6691,-2.6691,-2.6691,-2.6691,-2.6691,-2.6691,-2.6691,-2.6691,-2.6691,-2.6691,-2.6691,-2.6691,-2.6691,-2.6691,-2.6691,-2.6691,-2.6691,-2.6824,-2.6923,-2.6923,-2.7051,-2.7162,-2.7162,-2.7003,-2.7004,-2.7147,-2.7162,-2.7272,-2.7532,-2.7532,-2.7634,-2.7897,-2.802,-2.8037,-2.7897,-2.8406,-2.8942,-2.9506,-2.9816,-3.0092,0.0,-2.1157,-2.0771,-2.0718,-2.0316,-1.9727,-1.8995,-1.886,0.0,-1.7952,-1.8386,-1.8894,-1.8894,-2.0158,-2.119,-2.119,-2.182,-2.2296,-2.2296,-2.2987,-2.378,-2.4558,-2.5253,-2.5693,-2.5693,-2.6302,-2.6691,-2.6691,-2.6691,-2.6691,-2.6691,-2.6691,-2.6691,-2.6691,-2.6691,-2.6691,-2.6691,-2.6691,-2.6691,-2.6691,-2.6691,-2.6691,-2.6691,-2.6691,-2.6691,-2.6691,-2.6691,-2.6691,-2.6691,-2.6691,-2.6691,-2.6691,-2.6691,-2.6691,-2.6691,-2.6691,-2.6691,-2.6691,-2.6691,-2.6691,-2.6691,-2.6691,-2.6691,-2.6691,-2.6691,-2.6691,-2.6691,-2.6691,-2.6691,-2.6691,-2.6691,-2.6691,-2.6691,-2.6691,-2.6691,-2.6691,-2.6691,-2.6691,-2.6691,-2.6691,-2.6691,-2.6691,-2.6691,-2.6691,-2.6691,-2.6691,-2.6691,-2.6691,-2.6691,-2.7051,-2.7303,-2.7303,-2.7648,-2.7911,-2.794,-2.7574,-2.75,-2.7883,-2.7897,-2.7911,-2.794,-2.794,-2.7954,-2.7982,-2.8277,-2.8331,-2.8099,-2.8827,-2.9609,-3.047,-3.0691,-3.0786,-1.8251,0.0,-1.9601,-1.8983,-1.9001,-1.8978,0.0,-1.8488,-1.8691,-1.7952,0.0,-1.8894,-1.8894,-2.0158,-2.119,-2.119,-2.182,-2.2296,-2.2296,-2.341,-2.4728,-2.6031,-2.6336,-2.6437,-2.6437,-2.659,-2.6691,-2.6691,-2.6691,-2.6691,-2.6691,-2.6691,-2.6691,-2.6691,-2.6691,-2.6691,-2.6691,-2.6691,-2.6691,-2.6691,-2.6691,-2.6691,-2.6691,-2.6691,-2.6691,-2.6691,-2.6691,-2.6691,-2.6691,-2.6691,-2.6691,-2.6691,-2.6691,-2.6691,-2.6691,-2.6691,-2.6691,-2.6691,-2.6691,-2.6691,-2.6691,-2.6691,-2.6691,-2.6691,-2.6691,-2.6691,-2.6691,-2.6691,-2.6691,-2.6691,-2.6691,-2.6691,-2.6691,-2.6691,-2.6691,-2.6691,-2.6691,-2.6691,-2.6691,-2.6691,-2.6691,-2.6691,-2.6691,-2.6691,-2.6691,-2.6691,-2.6691,-2.6691,-2.6691,-2.7051,-2.7303,-2.7303,-2.7648,-2.7992,-2.8264,-2.7964,-2.7811,-2.7897,-2.7897,-2.8024,-2.8277,-2.829,-2.8438,-2.8743,-2.8815,-2.9263,-3.0126,-3.001,-3.064,-3.1985,-3.1782,-3.1635,-1.6807,-1.7879,-1.8829,-1.8717,-1.8807,-1.8804,-1.8403,0.0,0.0,0.0,0.0,-1.9389,-1.9389,-2.0653,-2.1701,-2.1701,-2.204,-2.2533,-2.3207,-2.4289,-2.5439,-2.6556,-2.6691,-2.6691,-2.6691,-2.6691,-2.6691,-2.6691,-2.6691,-2.6691,-2.6691,-2.6691,-2.6691,-2.6691,-2.6691,-2.6691,-2.6691,-2.6691,-2.6691,-2.6691,-2.6691,-2.6691,-2.6691,-2.6691,-2.6691,-2.6691,-2.6691,-2.6691,-2.6691,-2.6691,-2.6691,-2.6691,-2.6691,-2.6691,-2.6691,-2.6691,-2.6691,-2.6691,-2.6691,-2.6691,-2.6691,-2.6691,-2.6691,-2.6691,-2.6691,-2.6691,-2.6691,-2.6691,-2.6691,-2.6691,-2.6691,-2.6691,-2.6691,-2.6691,-2.6691,-2.6691,-2.6691,-2.6691,-2.6691,-2.6691,-2.6962,-2.7199,-2.7199,-2.7503,-2.7757,-2.7757,-2.7757,-2.7827,-2.8014,-2.8063,-2.8315,-2.8894,-2.8953,-2.9181,-2.9737,-2.96,-2.9188,-2.8453,-2.8404,-2.8495,-2.867,-2.867,-2.8773,-2.8994,-2.9005,-2.968,-3.107,-3.0863,-3.1563,-3.3087,-3.2718,-3.2509,-1.6281,-1.7365,-1.8492,-1.9001,-1.9013,-1.8894,-1.8894,0.0,0.0,0.0,0.0,0.0,-2.0183,-2.1333,-2.2296,-2.2296,-2.2296,-2.2837,-2.444,-2.5101,-2.5744,-2.659,-2.6691,-2.6691,-2.6691,-2.6691,-2.6691,-2.6691,-2.6691,-2.6691,-2.6691,-2.6691,-2.6691,-2.6691,-2.6691,-2.6691,-2.6691,-2.6691,-2.6691,-2.6691,-2.6691,-2.6691,-2.6691,-2.6691,-2.6691,-2.6691,-2.6691,-2.6691,-2.6691,-2.6691,-2.6691,-2.6691,-2.6691,-2.6691,-2.6691,-2.6691,-2.6691,-2.6691,-2.6691,-2.6691,-2.6691,-2.6691,-2.6691,-2.6691,-2.6691,-2.6691,-2.6691,-2.6691,-2.6691,-2.6691,-2.6691,-2.6691,-2.6691,-2.6691,-2.6691,-2.6691,-2.6691,-2.6691,-2.6725,-2.6843,-2.7367,-2.7841,-2.7959,-2.8552,-2.8993,-2.8993,-2.8993,-2.9121,-2.9454,-2.9306,-2.9591,-3.0668,-3.0553,-3.065,-3.1342,-3.1397,-3.0815,-2.9445,-2.9244,-2.9133,-2.9005,-2.9115,-2.9133,-2.9005,-2.9005,-2.9721,-3.1231,-3.1342,-3.2129,-3.3524,-3.3292,-3.3169,-1.6593,-1.799,-1.9001,-1.8509,-1.8636,-1.8894,-1.8894,0.0,0.0,0.0,0.0,0.0,0.0,-2.1718,-2.2296,-2.2296,-2.2296,-2.3023,-2.5135,-2.4983,-2.5168,-2.6539,-2.6691,-2.6691,-2.6691,-2.6691,-2.6691,-2.6691,-2.6691,-2.6691,-2.6691,-2.6691,-2.6691,-2.6691,-2.6691,-2.6691,-2.6691,-2.6691,-2.6691,-2.6691,-2.6691,-2.6691,-2.6691,-2.6691,-2.6691,-2.6691,-2.6691,-2.6691,-2.6691,-2.6691,-2.6691,-2.6691,-2.6691,-2.6691,-2.6691,-2.6691,-2.6691,-2.6691,-2.6691,-2.6691,-2.6691,-2.6691,-2.6691,-2.6691,-2.6691,-2.6691,-2.6691,-2.6691,-2.6691,-2.6691,-2.6691,-2.6691,-2.6691,-2.6691,-2.6691,-2.6691,-2.6691,-2.6691,-2.6877,-2.7503,-2.7722,-2.801,-2.8687,-2.8925,-2.8993,-2.8993,-2.8993,-2.9011,-2.9084,-2.9618,-3.009,-3.029,-3.0862,-3.1268,-3.1397,-3.1397,-3.1286,-3.1048,-3.0393,-2.9702,-2.9023,-2.9647,-2.9702,-2.9005,-2.9005,-2.9464,-3.0393,-3.1072,-3.1689,-3.2282,-3.2907,-3.2983,-1.6146,-1.7446,-1.8539,-1.8743,-1.9475,-2.0141,-2.0141,-1.9807,0.0,0.0,0.0,0.0,0.0,-2.1803,-2.2431,-2.2835,-2.2885,-2.3393,-2.4797,-2.4711,-2.4745,-2.5439,-2.5862,-2.6116,-2.6116,-2.6471,-2.6522,-2.6133,-2.6471,-2.6522,-2.6133,-2.6471,-2.6691,-2.6691,-2.6691,-2.6691,-2.6691,-2.6691,-2.6691,-2.6691,-2.6691,-2.6691,-2.6691,-2.6691,-2.6691,-2.6691,-2.6691,-2.6691,-2.6691,-2.6691,-2.6691,-2.6691,-2.6691,-2.6691,-2.6691,-2.6691,-2.6691,-2.6691,-2.6691,-2.6691,-2.6691,-2.6691,-2.6691,-2.6691,-2.6691,-2.6691,-2.6691,-2.6691,-2.6691,-2.6691,-2.6691,-2.6691,-2.6691,-2.6691,-2.6691,-2.6691,-2.6691,-2.6691,-2.6793,-2.7148,-2.7875,-2.8569,-2.8942,-2.967,-3.0194,-3.0194,-3.0194,-3.0365,-3.0838,-3.0826,-3.1133,-3.2043,-3.21,-3.2228,-3.2651,-3.2687,-3.232,-3.1452,-3.1048,-3.0687,-3.032,-3.0228,-3.0026,-2.9647,-2.9647,-3.0044,-3.0852,-3.1659,-3.2358,-3.2994,-3.3358,-3.3284,-1.5947,-1.7054,-1.8149,-1.9201,0.0,-2.0776,-2.1194,-2.062,-2.0111,0.0,0.0,0.0,-2.1461,-2.1921,-2.2533,-2.3274,-2.3257,-2.346,-2.4372,-2.4355,-2.4305,-2.4474,-2.5,-2.5423,-2.5576,-2.5947,-2.6015,-2.5642,-2.6116,-2.6201,-2.5626,-2.6302,-2.6691,-2.6691,-2.6691,-2.6691,-2.6691,-2.6691,-2.6691,-2.6691,-2.6691,-2.6691,-2.6691,-2.6691,-2.6691,-2.6691,-2.6691,-2.6691,-2.6691,-2.6691,-2.6691,-2.6691,-2.6691,-2.6691,-2.6691,-2.6691,-2.6691,-2.6691,-2.6691,-2.6691,-2.6691,-2.6691,-2.6691,-2.6691,-2.6691,-2.6691,-2.6691,-2.6691,-2.6691,-2.6691,-2.6691,-2.6691,-2.6691,-2.6691,-2.6691,-2.6691,-2.6691,-2.6691,-2.6742,-2.6911,-2.8062,-2.9044,-2.923,-3.0328,-3.119,-3.119,-3.119,-3.1447,-3.2109,-3.1856,-3.2068,-3.336,-3.3131,-3.3115,-3.3752,-3.3807,-3.3275,-3.2039,-3.1801,-3.1599,-3.1415,-3.0999,-3.0668,-3.0485,-3.0485,-3.0779,-3.1397,-3.221,-3.2873,-3.3392,-3.3575,-3.3494,-1.6598,-1.7534,-1.8465,-1.9644,-1.9498,-1.9515,-2.1189,-2.0763,0.0,-2.2155,-2.234,-2.2212,-2.2212,-2.2262,-2.2533,-2.3274,-2.2835,-2.2885,-2.4305,-2.3915,-2.3729,-2.4423,-2.4541,-2.4846,-2.5525,-2.5032,-2.4931,-2.5542,-2.5643,-2.5659,-2.5592,-2.6302,-2.6691,-2.6691,-2.6691,-2.6691,-2.6691,-2.6691,-2.6691,-2.6691,-2.6691,-2.6691,-2.6691,-2.6691,-2.6691,-2.6691,-2.6691,-2.6691,-2.6691,-2.6691,-2.6691,-2.6691,-2.6691,-2.6691,-2.6691,-2.6691,-2.6691,-2.6691,-2.6691,-2.6691,-2.6691,-2.6691,-2.6691,-2.6691,-2.6691,-2.6691,-2.6691,-2.6691,-2.6691,-2.6691,-2.6691,-2.6691,-2.6691,-2.6691,-2.6691,-2.6691,-2.6691,-2.6691,-2.6894,-2.7587,-2.8416,-2.923,-2.9905,-3.0683,-3.119,-3.119,-3.119,-3.123,-3.1288,-3.1933,-3.2446,-3.2565,-3.3277,-3.3733,-3.3807,-3.3807,-3.3752,-3.3623,-3.2926,-3.2173,-3.1433,-3.2063,-3.2082,-3.1342,-3.1323,-3.1342,-3.1397,-3.221,-3.2429,-3.2148,-3.29,-3.3229,-1.5742,-1.6839,-1.7972,-1.9593,-1.995,0.0,0.0,-2.1511,-2.1677,-2.2527,-2.249,-2.2296,-2.2296,-2.2296,-2.2533,-2.3274,-2.2784,-2.2649,-2.3663,-2.3173,-2.2818,-2.3105,-2.3543,-2.3917,-2.4205,-2.4389,-2.4423,-2.4255,-2.5084,-2.5406,-2.4948,-2.6065,-2.6691,-2.6691,-2.6691,-2.6691,-2.6691,-2.6691,-2.6691,-2.6691,-2.6691,-2.6691,-2.6691,-2.6691,-2.6691,-2.6691,-2.6691,-2.6691,-2.6691,-2.6691,-2.6691,-2.6691,-2.6691,-2.6691,-2.6691,-2.6691,-2.6691,-2.6691,-2.6691,-2.6691,-2.6691,-2.6691,-2.6691,-2.6691,-2.6691,-2.6691,-2.6691,-2.6691,-2.7029,-2.7266,-2.6826,-2.6691,-2.681,-2.7266,-2.7384,-2.7384,-2.7384,-2.7774,-2.8061,-2.7841,-2.8822,-2.977,-3.0057,-3.0717,-3.119,-3.119,-3.119,-3.1291,-3.1528,-3.1861,-3.2281,-3.2856,-3.3447,-3.3807,-3.3807,-3.3807,-3.3807,-3.3807,-3.3513,-3.322,-3.2908,-3.2706,-3.2454,-3.2155,-3.2155,-3.2155,-3.2155,-3.2963,-3.3281,-3.3127,-3.3419,-3.3451,-1.5382,-1.6427,-1.7589,-1.9337,0.0,0.0,-2.1413,-2.1768,-2.2099,-2.2596,-2.249,-2.2296,-2.2296,-2.2296,-2.2465,-2.297,-2.2632,-2.2482,-2.2987,-2.2632,-2.2296,-2.2296,-2.275,-2.3139,-2.3376,-2.3661,-2.3797,-2.3763,-2.4678,-2.5118,-2.4863,-2.6015,-2.6691,-2.6691,-2.6691,-2.6691,-2.6691,-2.6691,-2.6691,-2.6691,-2.6691,-2.6691,-2.6691,-2.6691,-2.6691,-2.6691,-2.6691,-2.6691,-2.6691,-2.6691,-2.6691,-2.6691,-2.6691,-2.6691,-2.6691,-2.6691,-2.6691,-2.6691,-2.6691,-2.6691,-2.6691,-2.6691,-2.6691,-2.6691,-2.6691,-2.6691,-2.6691,-2.6691,-2.7063,-2.7334,-2.6826,-2.7063,-2.7537,-2.8061,-2.8197,-2.8197,-2.8197,-2.8602,-2.884,-2.8298,-2.9228,-3.0108,-3.0108,-3.0817,-3.1351,-3.121,-3.131,-3.1449,-3.1584,-3.1716,-3.2109,-3.2887,-3.3361,-3.3606,-3.3606,-3.3721,-3.3807,-3.3807,-3.3807,-3.3807,-3.3807,-3.3275,-3.2968,-3.2968,-3.2968,-3.2968,-3.2968,-3.3532,-3.3807,-3.3807,-3.3807,-3.3648,-1.581,-1.6557,-1.7475,-1.8942,0.0,0.0,-2.1369,-2.1387,-2.1483,-2.2492,-2.2473,-2.2296,-2.2296,-2.2296,-2.2296,-2.2296,-2.2296,-2.2296,-2.2296,-2.2296,-2.2296,-2.2296,-2.2296,-2.2584,-2.3325,-2.2733,-2.2919,-2.4372,-2.4491,-2.4829,-2.5558,-2.6302,-2.6691,-2.6691,-2.6691,-2.6691,-2.6691,-2.6691,-2.6691,-2.6691,-2.6691,-2.6691,-2.6691,-2.6691,-2.6691,-2.6691,-2.6691,-2.6691,-2.6691,-2.6691,-2.6691,-2.6691,-2.6691,-2.6691,-2.6691,-2.6691,-2.6691,-2.6691,-2.6691,-2.6691,-2.6691,-2.6691,-2.6691,-2.6691,-2.6691,-2.6691,-2.6691,-2.6691,-2.6725,-2.6708,-2.6708,-2.7859,-2.901,-2.8993,-2.8993,-2.8993,-2.8993,-2.901,-2.9027,-2.901,-2.9619,-3.0125,-3.0108,-3.1048,-3.1678,-3.1271,-3.1547,-3.166,-3.1252,-3.1565,-3.1986,-3.2467,-3.2937,-3.3214,-3.3214,-3.3564,-3.3807,-3.3807,-3.3807,-3.3807,-3.3807,-3.3807,-3.3807,-3.3807,-3.3807,-3.3807,-3.3807,-3.3807,-3.3807,-3.3807,-3.3807,-3.3807,-1.5663,-1.7183,-1.8884,-1.9599,0.0,0.0,0.0,-2.2024,0.0,-2.2364,-2.2363,-2.2296,-2.2296,-2.2296,-2.2296,-2.2296,-2.2296,-2.2296,-2.2296,-2.2296,-2.2296,-2.2296,-2.2296,-2.2381,-2.2615,-2.2431,-2.2699,-2.3646,-2.4203,-2.4829,-2.5558,-2.6302,-2.6691,-2.6691,-2.6691,-2.6691,-2.6691,-2.6691,-2.6691,-2.6691,-2.6691,-2.6691,-2.6691,-2.6691,-2.6691,-2.6691,-2.6691,-2.6691,-2.6691,-2.6691,-2.6691,-2.6691,-2.6691,-2.6691,-2.6691,-2.6691,-2.6691,-2.6691,-2.6691,-2.6691,-2.6691,-2.6691,-2.6691,-2.6691,-2.6691,-2.6691,-2.6691,-2.6691,-2.708,-2.7469,-2.7469,-2.8619,-2.9634,-2.9128,-2.8993,-2.8993,-2.8993,-2.9822,-3.0323,-2.9558,-3.0436,-3.1387,-3.1743,-3.2073,-3.2248,-3.2144,-3.2213,-3.2248,-3.2144,-3.2517,-3.284,-3.2983,-3.3375,-3.3606,-3.3606,-3.3734,-3.3807,-3.3807,-3.3807,-3.3807,-3.3807,-3.3807,-3.3807,-3.3807,-3.3807,-3.3807,-3.3807,-3.3807,-3.3807,-3.3807,-3.3807,-3.3807,-1.6477,-1.7976,0.0,-2.0392,-2.1357,-2.2137,-2.2268,-2.2296,-2.2296,-2.2296,-2.2296,-2.2296,-2.2296,-2.2296,-2.2296,-2.2296,-2.2296,-2.2296,-2.2296,-2.2296,-2.2296,-2.2296,-2.2296,-2.2296,-2.2296,-2.2296,-2.2733,-2.3763,-2.4254,-2.4948,-2.5981,-2.6454,-2.6691,-2.6691,-2.6691,-2.6691,-2.6691,-2.6691,-2.6691,-2.6691,-2.6691,-2.6691,-2.6691,-2.6691,-2.6691,-2.6691,-2.6691,-2.6691,-2.6691,-2.6691,-2.6691,-2.6691,-2.6691,-2.6691,-2.6691,-2.6691,-2.6691,-2.6691,-2.6691,-2.6691,-2.6691,-2.6691,-2.6691,-2.6691,-2.6691,-2.6691,-2.6691,-2.6691,-2.7012,-2.735,-2.735,-2.8061,-2.8873,-2.933,-2.967,-2.9826,-2.9669,-3.0576,-3.1203,-3.0418,-3.1253,-3.2161,-3.2451,-3.2648,-3.2713,-3.2534,-3.2501,-3.2501,-3.2501,-3.2745,-3.2921,-3.2921,-3.3317,-3.3564,-3.3564,-3.3707,-3.3807,-3.3807,-3.3807,-3.3807,-3.3807,-3.3807,-3.3807,-3.3807,-3.3807,-3.3807,-3.3807,-3.3807,-3.3807,-3.3807,-3.3807,-3.3807,-1.7769,-1.8761,-1.9705,-2.113,-2.1387,-2.1478,-2.2158,-2.2296,-2.2296,-2.2296,-2.2296,-2.2296,-2.2296,-2.2296,-2.2296,-2.2296,-2.2296,-2.2296,-2.2296,-2.2296,-2.2296,-2.2296,-2.2296,-2.2296,-2.2296,-2.2296,-2.2885,-2.4288,-2.4457,-2.5083,-2.6437,-2.6623,-2.6657,-2.659,-2.6657,-2.6691,-2.6691,-2.6691,-2.6691,-2.6691,-2.6691,-2.6691,-2.6691,-2.6691,-2.6691,-2.6691,-2.6691,-2.6691,-2.6691,-2.6691,-2.6691,-2.6691,-2.6691,-2.6691,-2.6691,-2.6691,-2.6691,-2.6691,-2.6691,-2.6691,-2.6691,-2.6691,-2.6691,-2.6691,-2.6691,-2.6691,-2.6691,-2.6691,-2.6691,-2.6691,-2.6691,-2.6742,-2.7317,-2.9414,-3.0484,-3.0959,-3.0593,-3.1219,-3.176,-3.1442,-3.2019,-3.2583,-3.2616,-3.2983,-3.3105,-3.2681,-3.2616,-3.2616,-3.2616,-3.2616,-3.2616,-3.2616,-3.2999,-3.3258,-3.3258,-3.3578,-3.3807,-3.3807,-3.3807,-3.3807,-3.3807,-3.3807,-3.3807,-3.3807,-3.3807,-3.3807,-3.3807,-3.3807,-3.3807,-3.3807,-3.3807,-3.3807,-1.7645,-1.8857,0.0,-2.1028,-2.1671,-2.2093,-2.2262,-2.2296,-2.2296,-2.2296,-2.2296,-2.2296,-2.2296,-2.2296,-2.2296,-2.2296,-2.2296,-2.2296,-2.2296,-2.2296,-2.2296,-2.2296,-2.2296,-2.2296,-2.2296,-2.2296,-2.2682,-2.3577,-2.4169,-2.4643,-2.4965,-2.6082,-2.6437,-2.5862,-2.6404,-2.6691,-2.6691,-2.6691,-2.6691,-2.6691,-2.6691,-2.6691,-2.6691,-2.6691,-2.6691,-2.6691,-2.6691,-2.6691,-2.6691,-2.6691,-2.6691,-2.6691,-2.6691,-2.6691,-2.6691,-2.6691,-2.6691,-2.6691,-2.6691,-2.6691,-2.6691,-2.6691,-2.6691,-2.6691,-2.6691,-2.6691,-2.6691,-2.6691,-2.6691,-2.6691,-2.6691,-2.7131,-2.7689,-2.8179,-2.9143,-2.992,-2.9833,-3.1147,-3.2271,-3.1975,-3.2538,-3.3151,-3.3462,-3.3606,-3.3634,-3.355,-3.3518,-3.3518,-3.3518,-3.3518,-3.3518,-3.3518,-3.3606,-3.368,-3.368,-3.3748,-3.3807,-3.3807,-3.3807,-3.3807,-3.3807,-3.3807,-3.3807,-3.3807,-3.3807,-3.3807,-3.3807,-3.3807,-3.3807,-3.3807,-3.3807,-3.3807,-1.7929,0.0,0.0,-2.1448,0.0,-2.2296,-2.2296,-2.2296,-2.2296,-2.2296,-2.2296,-2.2296,-2.2296,-2.2296,-2.2296,-2.2296,-2.2296,-2.2296,-2.2296,-2.2296,-2.2296,-2.2296,-2.2296,-2.2296,-2.2296,-2.2296,-2.2615,-2.3342,-2.3763,-2.4135,-2.4474,-2.5558,-2.5828,-2.5101,-2.5795,-2.6167,-2.6167,-2.6167,-2.6353,-2.6691,-2.6691,-2.6691,-2.6691,-2.6691,-2.6691,-2.6691,-2.6691,-2.6691,-2.6691,-2.6691,-2.6691,-2.6691,-2.6691,-2.6691,-2.6691,-2.6691,-2.6691,-2.6691,-2.6691,-2.6691,-2.6691,-2.6691,-2.6691,-2.6691,-2.6691,-2.6691,-2.6691,-2.6691,-2.6691,-2.6691,-2.6691,-2.713,-2.7553,-2.7553,-2.8869,-3.0073,-2.9922,-3.1436,-3.2734,-3.2401,-3.2948,-3.355,-3.3762,-3.3807,-3.3807,-3.3807,-3.3807,-3.3807,-3.3807,-3.3807,-3.3807,-3.3807,-3.3807,-3.3807,-3.3807,-3.3807,-3.3807,-3.3807,-3.3807,-3.3807,-3.3807,-3.3807,-3.3807,-3.3807,-3.3807,-3.3807,-3.3807,-3.3807,-3.3807,-3.3807,-3.3807,-3.3807,-1.8132,0.0,-2.0538,-2.1941,-2.2296,-2.2296,-2.2296,-2.2296,-2.2296,-2.2296,-2.2296,-2.2296,-2.2296,-2.2296,-2.2296,-2.2296,-2.2296,-2.2296,-2.2296,-2.2296,-2.2296,-2.2296,-2.2296,-2.2296,-2.2296,-2.2296,-2.255,-2.3156,-2.3325,-2.3611,-2.4085,-2.4932,-2.5067,-2.4321,-2.5033,-2.5423,-2.5423,-2.5423,-2.5727,-2.6319,-2.6437,-2.6573,-2.6691,-2.6691,-2.6691,-2.6691,-2.6691,-2.6691,-2.6691,-2.6691,-2.6691,-2.6691,-2.6691,-2.6691,-2.6691,-2.6691,-2.6691,-2.6691,-2.6691,-2.6691,-2.6691,-2.6691,-2.6691,-2.6691,-2.6691,-2.6691,-2.6691,-2.6691,-2.6758,-2.6791,-2.6791,-2.7099,-2.7394,-2.7394,-2.9109,-3.0654,-3.0371,-3.1885,-3.3208,-3.286,-3.3348,-3.3807,-3.3807,-3.3807,-3.3807,-3.3807,-3.3807,-3.3807,-3.3807,-3.3807,-3.3807,-3.3807,-3.3807,-3.3807,-3.3807,-3.3807,-3.3807,-3.3807,-3.3807,-3.3807,-3.3807,-3.3807,-3.3807,-3.3807,-3.3807,-3.3807,-3.3807,-3.3807,-3.3807,-3.3807,-3.3807,-3.3807,-1.7512,0.0,-2.1228,0.0,-2.2296,-2.2296,-2.2296,-2.2296,-2.2296,-2.2296,-2.2296,-2.2296,-2.2296,-2.2296,-2.2296,-2.2296,-2.2296,-2.2296,-2.2296,-2.2296,-2.2296,-2.2296,-2.2296,-2.2296,-2.2296,-2.2296,-2.233,-2.2431,-2.3038,-2.3156,-2.2617,-2.3915,-2.4321,-2.3577,-2.4271,-2.4643,-2.4643,-2.4643,-2.4694,-2.4795,-2.5439,-2.6082,-2.6691,-2.6691,-2.6691,-2.6691,-2.6691,-2.6691,-2.6691,-2.6691,-2.6691,-2.6691,-2.6691,-2.6691,-2.6691,-2.6691,-2.6691,-2.6691,-2.6691,-2.6691,-2.6691,-2.6691,-2.6691,-2.6691,-2.6691,-2.6691,-2.6691,-2.6691,-2.6955,-2.7225,-2.7225,-2.7515,-2.7826,-2.7826,-2.9376,-3.0851,-3.0818,-3.2342,-3.3698,-3.3647,-3.3733,-3.3807,-3.3807,-3.3807,-3.3807,-3.3807,-3.3807,-3.3807,-3.3807,-3.3807,-3.3807,-3.3807,-3.3807,-3.3807,-3.3807,-3.3807,-3.3807,-3.3807,-3.3807,-3.3807,-3.3807,-3.3807,-3.3807,-3.3807,-3.3807,-3.3807,-3.3807,-3.3807,-3.3807,-3.3807,-3.3807,-3.3807,-1.8408,-2.0094,-2.1376,0.0,-2.2296,-2.2296,-2.2296,-2.2296,-2.2296,-2.2296,-2.2296,-2.2296,-2.2296,-2.2296,-2.2296,-2.2296,-2.2296,-2.2296,-2.2296,-2.2296,-2.2296,-2.2296,-2.2296,-2.2296,-2.2296,-2.2296,-2.2296,-2.2296,-2.2598,-2.2634,-2.2313,-2.3308,-2.3545,-2.2818,-2.3509,-2.3881,-2.3881,-2.3881,-2.4305,-2.5118,-2.5456,-2.5998,-2.6691,-2.6691,-2.6691,-2.6691,-2.6691,-2.6691,-2.6691,-2.6691,-2.6691,-2.6691,-2.6691,-2.6691,-2.6691,-2.6691,-2.6691,-2.6691,-2.6691,-2.6691,-2.6691,-2.6691,-2.6691,-2.6691,-2.6691,-2.6857,-2.7052,-2.7052,-2.7334,-2.7651,-2.7651,-2.8241,-2.8855,-2.8855,-3.0401,-3.1841,-3.1841,-3.2875,-3.3807,-3.3807,-3.3807,-3.3807,-3.3807,-3.3807,-3.3807,-3.3807,-3.3807,-3.3807,-3.3807,-3.3807,-3.3807,-3.3807,-3.3807,-3.3807,-3.3807,-3.3807,-3.3807,-3.3807,-3.3807,-3.3807,-3.3807,-3.3807,-3.3807,-3.3807,-3.3807,-3.3807,-3.3807,-3.3807,-3.3807,-3.3807,-3.3807,-3.3807,0.0,0.0,-2.1075,-2.1837,-2.2175,-2.2296,-2.2296,-2.2296,-2.2296,-2.2296,-2.2296,-2.2296,-2.2296,-2.2296,-2.2296,-2.2296,-2.2296,-2.2296,-2.2296,-2.2296,-2.2296,-2.2296,-2.2296,-2.2296,-2.2296,-2.2296,-2.2296,-2.2296,-2.2296,-2.2296,-2.2296,-2.2818,-2.2868,-2.2313,-2.2835,-2.3122,-2.3122,-2.3122,-2.3866,-2.5321,-2.5321,-2.5795,-2.6691,-2.6691,-2.6691,-2.6691,-2.6691,-2.6691,-2.6691,-2.6691,-2.6691,-2.6691,-2.6691,-2.6691,-2.6691,-2.6691,-2.6691,-2.6691,-2.6691,-2.6691,-2.6691,-2.6691,-2.6775,-2.6841,-2.6841,-2.7131,-2.7439,-2.7439,-2.7722,-2.8037,-2.8037,-2.8896,-2.9756,-2.9756,-3.1206,-3.2656,-3.2858,-3.3385,-3.3807,-3.3807,-3.3807,-3.3807,-3.3807,-3.3807,-3.3807,-3.3807,-3.3807,-3.3807,-3.3807,-3.3807,-3.3807,-3.3807,-3.3807,-3.3807,-3.3807,-3.3807,-3.3807,-3.3807,-3.3807,-3.3807,-3.3807,-3.3807,-3.3807,-3.3807,-3.3807,-3.3807,-3.3807,-3.3807,-3.3807,-3.3807,-3.3807,-3.3807,0.0,-1.8966,0.0,-2.1072,-2.1786,-2.2296,-2.2296,-2.2296,-2.2296,-2.2296,-2.2296,-2.2296,-2.2296,-2.2296,-2.2296,-2.2296,-2.2296,-2.2296,-2.2296,-2.2296,-2.2296,-2.2296,-2.2296,-2.2296,-2.2296,-2.2296,-2.2296,-2.2296,-2.2296,-2.2296,-2.2296,-2.233,-2.233,-2.2296,-2.233,-2.2347,-2.2347,-2.2347,-2.3105,-2.4558,-2.4558,-2.532,-2.6691,-2.6691,-2.6691,-2.6691,-2.6691,-2.6691,-2.6691,-2.6691,-2.6691,-2.6691,-2.6691,-2.6691,-2.6691,-2.6691,-2.6691,-2.6691,-2.6691,-2.6691,-2.6691,-2.6691,-2.6971,-2.7272,-2.7272,-2.7545,-2.7869,-2.7869,-2.8116,-2.8363,-2.8363,-2.9264,-3.0167,-3.0167,-3.1408,-3.2803,-3.3568,-3.377,-3.3807,-3.3807,-3.3807,-3.3807,-3.3807,-3.3807,-3.3807,-3.3807,-3.3807,-3.3807,-3.3807,-3.3807,-3.3807,-3.3807,-3.3807,-3.3807,-3.3807,-3.3807,-3.3807,-3.3807,-3.3807,-3.3807,-3.3807,-3.3807,-3.3807,-3.3807,-3.3807,-3.3807,-3.3807,-3.3807,-3.3807,-3.3807,-3.3807,-3.3807,0.0,0.0,0.0,-2.0886,-2.141,-2.1718,-2.2178,-2.2296,-2.2296,-2.2296,-2.2296,-2.2296,-2.2296,-2.2296,-2.2296,-2.2296,-2.2296,-2.2296,-2.2296,-2.2296,-2.2296,-2.2296,-2.2296,-2.2296,-2.2296,-2.2296,-2.2296,-2.2296,-2.2296,-2.2296,-2.2296,-2.2296,-2.2296,-2.2296,-2.2296,-2.2296,-2.2296,-2.2296,-2.2801,-2.3814,-2.4271,-2.5032,-2.6015,-2.6471,-2.6691,-2.6691,-2.6691,-2.6691,-2.6691,-2.6691,-2.6691,-2.6691,-2.6691,-2.6691,-2.6691,-2.6691,-2.6691,-2.6691,-2.6691,-2.6873,-2.7083,-2.7083,-2.7365,-2.7695,-2.7695,-2.7936,-2.8224,-2.8224,-2.8489,-2.8803,-2.8803,-2.9869,-3.1219,-3.2265,-3.2944,-3.3458,-3.3733,-3.3807,-3.3807,-3.3807,-3.3807,-3.3807,-3.3807,-3.3807,-3.3807,-3.3807,-3.3807,-3.3807,-3.3807,-3.3807,-3.3807,-3.3807,-3.3807,-3.3807,-3.3807,-3.3807,-3.3807,-3.3807,-3.3807,-3.3807,-3.3807,-3.3807,-3.3807,-3.3807,-3.3807,-3.3807,-3.3807,-3.3807,-3.3807,-3.3807,-3.3807,-3.3807,-1.6796,0.0,0.0,-2.0467,-2.0788,-2.1059,-2.206,-2.2124,-2.2006,-2.2245,-2.2296,-2.2296,-2.2296,-2.2296,-2.2296,-2.2296,-2.2296,-2.2296,-2.2296,-2.2296,-2.2296,-2.2296,-2.2296,-2.2296,-2.2296,-2.2296,-2.2296,-2.2296,-2.2296,-2.2296,-2.2296,-2.2296,-2.2296,-2.2296,-2.2296,-2.2296,-2.2296,-2.2296,-2.2682,-2.341,-2.3898,-2.4644,-2.5625,-2.6116,-2.6471,-2.6691,-2.6691,-2.6691,-2.6691,-2.6691,-2.6691,-2.6691,-2.6691,-2.6691,-2.6708,-2.6841,-2.6906,-2.6923,-2.7051,-2.7288,-2.75,-2.75,-2.7765,-2.8061,-2.8061,-2.8321,-2.8662,-2.8929,-2.8986,-2.906,-2.9335,-3.0393,-3.1745,-3.3073,-3.3605,-3.3807,-3.3807,-3.3807,-3.3807,-3.3807,-3.3807,-3.3807,-3.3807,-3.3807,-3.3807,-3.3807,-3.3807,-3.3807,-3.3807,-3.3807,-3.3807,-3.3807,-3.3807,-3.3807,-3.3807,-3.3807,-3.3807,-3.3807,-3.3807,-3.3807,-3.3807,-3.3807,-3.3807,-3.3807,-3.3807,-3.3807,-3.3807,-3.3807,-3.3807,-3.3807,-3.3807,-3.3807,0.0,0.0,0.0,-1.9778,-1.9968,-2.0373,-2.1924,-2.1701,-2.1376,-2.2127,-2.2279,-2.2262,-2.2296,-2.2296,-2.2296,-2.2296,-2.2296,-2.2296,-2.2296,-2.2296,-2.2296,-2.2296,-2.2296,-2.2296,-2.2296,-2.2296,-2.2296,-2.2296,-2.2296,-2.2296,-2.2296,-2.2296,-2.2296,-2.2296,-2.2296,-2.2296,-2.2296,-2.2296,-2.2651,-2.3359,-2.3376,-2.4154,-2.5541,-2.5576,-2.5998,-2.6657,-2.6691,-2.6708,-2.6708,-2.6708,-2.6708,-2.6725,-2.6725,-2.6725,-2.6774,-2.7178,-2.7334,-2.7363,-2.7751,-2.7911,-2.7911,-2.7911,-2.8143,-2.842,-2.842,-2.8682,-2.9152,-2.9953,-2.9592,-2.9189,-2.9989,-3.0797,-3.1599,-3.2399,-3.3201,-3.377,-3.3788,-3.3807,-3.3807,-3.3807,-3.3807,-3.3807,-3.3807,-3.3807,-3.3807,-3.3807,-3.3807,-3.3807,-3.3807,-3.3807,-3.3807,-3.3807,-3.3807,-3.3807,-3.3807,-3.3807,-3.3807,-3.3807,-3.3807,-3.3807,-3.3807,-3.3807,-3.3807,-3.3807,-3.3807,-3.3807,-3.3807,-3.3807,-3.3807,-3.3807,-3.3807,-3.3807,-1.5595,0.0,0.0,0.0,0.0,0.0,-2.1156,-2.0906,-2.0707,-2.2026,-2.187,-2.1667,-2.2195,-2.2296,-2.2296,-2.2296,-2.2296,-2.2296,-2.2296,-2.2296,-2.2296,-2.2296,-2.2296,-2.2296,-2.2296,-2.2296,-2.2296,-2.2296,-2.2296,-2.2296,-2.2296,-2.2296,-2.2296,-2.2296,-2.2296,-2.2296,-2.2296,-2.2296,-2.2398,-2.2615,-2.3139,-2.3613,-2.4036,-2.5118,-2.571,-2.593,-2.6471,-2.6857,-2.7115,-2.6808,-2.6873,-2.7131,-2.7131,-2.7319,-2.7574,-2.7692,-2.7722,-2.7754,-2.7869,-2.8061,-2.8264,-2.8264,-2.8515,-2.8839,-2.8839,-2.8917,-2.906,-2.9262,-2.917,-2.9189,-2.9989,-3.0797,-3.1599,-3.2399,-3.2766,-3.3091,-3.3678,-3.3807,-3.3807,-3.3807,-3.3807,-3.3807,-3.3807,-3.3807,-3.3807,-3.3807,-3.3807,-3.3807,-3.3807,-3.3807,-3.3807,-3.3807,-3.3807,-3.3807,-3.3807,-3.3807,-3.3807,-3.3807,-3.3807,-3.3807,-3.3807,-3.3807,-3.3807,-3.3807,-3.3807,-3.3807,-3.3807,-3.3807,-3.3807,-3.3807,-3.3807,-3.3807,-1.6062,-1.6915,-1.7969,-1.8724,0.0,0.0,-2.0784,-2.0585,-2.0441,-2.1975,-2.1955,-2.1786,-2.2212,-2.2296,-2.2296,-2.2296,-2.2296,-2.2296,-2.2296,-2.2296,-2.2296,-2.2296,-2.2296,-2.2296,-2.2296,-2.2296,-2.2296,-2.2296,-2.2296,-2.2296,-2.2296,-2.2296,-2.2296,-2.2296,-2.2398,-2.2463,-2.2463,-2.2607,-2.2673,-2.2673,-2.3104,-2.3419,-2.3642,-2.4611,-2.535,-2.5878,-2.6446,-2.7024,-2.753,-2.7303,-2.7332,-2.7545,-2.7545,-2.7692,-2.7926,-2.8061,-2.8102,-2.8129,-2.8295,-2.8495,-2.8658,-2.8658,-2.8815,-2.9005,-2.9005,-2.9005,-2.9078,-2.9409,-2.95,-2.9537,-2.9647,-3.0301,-3.1091,-3.1916,-3.2362,-3.2821,-3.3623,-3.3807,-3.3807,-3.3807,-3.3807,-3.3807,-3.3807,-3.3807,-3.3807,-3.3807,-3.3807,-3.3807,-3.3807,-3.3807,-3.3807,-3.3807,-3.3807,-3.3807,-3.3807,-3.3807,-3.3807,-3.3807,-3.3807,-3.3807,-3.3807,-3.3807,-3.3807,-3.3807,-3.3807,-3.3807,-3.3807,-3.3807,-3.3807,-3.3807,-3.3807,-3.3807,-1.6841,-1.7422,-1.8172,-1.8758,-1.8471,0.0,-2.0496,-2.0399,-2.0289,-2.1755,-2.1975,-2.1975,-2.2158,-2.2192,-2.2195,-2.2279,-2.2296,-2.2296,-2.2296,-2.2296,-2.2296,-2.2296,-2.2296,-2.2296,-2.2296,-2.2296,-2.2296,-2.2296,-2.2296,-2.2296,-2.2296,-2.2296,-2.2307,-2.2349,-2.259,-2.2721,-2.2759,-2.3057,-2.32,-2.32,-2.32,-2.342,-2.3827,-2.415,-2.4914,-2.6022,-2.6497,-2.7122,-2.7844,-2.7932,-2.7968,-2.7968,-2.7968,-2.7982,-2.8065,-2.8355,-2.8458,-2.8527,-2.8893,-2.9005,-2.9005,-2.9005,-2.9005,-2.9005,-2.9005,-2.9005,-2.9152,-2.9879,-3.0136,-3.0008,-2.9207,-2.9592,-3.0393,-3.1213,-3.1953,-3.2711,-3.3605,-3.3807,-3.3807,-3.3807,-3.3807,-3.3807,-3.3807,-3.3807,-3.3807,-3.3807,-3.3807,-3.3807,-3.3807,-3.3807,-3.3807,-3.3807,-3.3807,-3.3807,-3.3807,-3.3807,-3.3807,-3.3807,-3.3807,-3.3807,-3.3807,-3.3807,-3.3807,-3.3807,-3.3807,-3.3807,-3.3807,-3.3807,-3.3807,-3.3807,-3.3807,-3.3807,-1.7743,-1.856,-1.9456,-1.9012,-1.9249,0.0,-1.9384,-1.9232,-1.9367,-2.0268,-1.998,-1.9942,-2.119,-2.141,-2.1613,-2.2195,-2.2296,-2.2296,-2.2296,-2.2296,-2.2296,-2.2296,-2.2296,-2.2296,-2.2296,-2.2296,-2.2296,-2.2296,-2.2296,-2.2296,-2.2296,-2.2296,-2.2402,-2.2625,-2.2656,-2.2835,-2.3105,-2.3165,-2.32,-2.32,-2.32,-2.3242,-2.3358,-2.4017,-2.4433,-2.4752,-2.6117,-2.6939,-2.7387,-2.8047,-2.8298,-2.8298,-2.8298,-2.8502,-2.8791,-2.8851,-2.8875,-2.8887,-2.8964,-2.9005,-2.9005,-2.9005,-2.9005,-2.9005,-2.9005,-2.9005,-2.9023,-2.9189,-2.9702,-3.0008,-2.9207,-2.9592,-3.0393,-3.1213,-3.1525,-3.2027,-3.3495,-3.3807,-3.3807,-3.3807,-3.3807,-3.3807,-3.3807,-3.3807,-3.3807,-3.3807,-3.3807,-3.3807,-3.3807,-3.3807,-3.3807,-3.3807,-3.3807,-3.3807,-3.3807,-3.3807,-3.3807,-3.3807,-3.3807,-3.3807,-3.3807,-3.3807,-3.3807,-3.3807,-3.3807,-3.3807,-3.3807,-3.3807,-3.3807,-3.3807,-3.3807,-3.3807,-1.8454,-1.8882,-1.9439,-1.9439,-1.9727,0.0,0.0,-2.0056,-2.0259,-2.0995,-2.0568,-2.0276,-2.1055,-2.119,-2.1326,-2.1684,-2.2073,-2.2296,-2.2296,-2.2296,-2.2296,-2.2296,-2.2296,-2.2296,-2.2296,-2.2296,-2.2296,-2.2296,-2.2296,-2.2296,-2.2296,-2.2296,-2.2426,-2.2695,-2.286,-2.3105,-2.3455,-2.3628,-2.3692,-2.3692,-2.3692,-2.3599,-2.3466,-2.4019,-2.4381,-2.4682,-2.6039,-2.6977,-2.756,-2.8367,-2.8694,-2.8694,-2.8694,-2.8827,-2.9005,-2.9005,-2.9005,-2.9005,-2.9005,-2.9005,-2.9005,-2.9005,-2.9005,-2.9005,-2.9005,-2.9005,-2.9005,-2.9005,-2.9299,-2.95,-2.9097,-2.9299,-2.9916,-3.1121,-3.1397,-3.1843,-3.344,-3.3807,-3.3807,-3.3807,-3.3807,-3.3807,-3.3807,-3.3807,-3.3807,-3.3807,-3.3807,-3.3807,-3.3807,-3.3807,-3.3807,-3.3807,-3.3807,-3.3807,-3.3807,-3.3807,-3.3807,-3.3807,-3.3807,-3.3807,-3.3807,-3.3807,-3.3807,-3.3807,-3.3807,-3.3807,-3.3807,-3.3807,-3.3807,-3.3807,-3.3807,-3.3807,-1.9379,-1.9452,-1.9655,-2.0116,-2.0335,-2.0538,0.0,0.0,0.0,-2.1772,-2.138,-2.1021,-2.1173,-2.1072,-2.1072,-2.136,-2.1786,-2.2127,-2.2279,-2.2296,-2.2296,-2.2296,-2.2296,-2.2296,-2.2296,-2.2296,-2.2296,-2.2296,-2.2349,-2.2374,-2.2374,-2.2443,-2.2594,-2.2885,-2.3153,-2.3466,-2.3795,-2.4056,-2.419,-2.419,-2.419,-2.4064,-2.3806,-2.4084,-2.4401,-2.4838,-2.6077,-2.6979,-2.764,-2.8601,-2.9005,-2.9005,-2.9005,-2.9005,-2.9005,-2.9005,-2.9005,-2.9005,-2.9005,-2.9005,-2.9005,-2.9005,-2.9005,-2.9005,-2.9005,-2.9005,-2.9005,-2.9005,-2.9005,-2.9005,-2.9005,-2.9005,-2.9409,-3.1029,-3.1397,-3.1843,-3.344,-3.3807,-3.3807,-3.3807,-3.3807,-3.3807,-3.3807,-3.3807,-3.3807,-3.3807,-3.3807,-3.3807,-3.3807,-3.3807,-3.3807,-3.3807,-3.3807,-3.3807,-3.3807,-3.3807,-3.3807,-3.3807,-3.3807,-3.3807,-3.3807,-3.3807,-3.3807,-3.3807,-3.3807,-3.3807,-3.3807,-3.3807,-3.3807,-3.3807,-3.3807,-3.3807,-2.1123,-2.1414,-2.1786,-2.1207,-2.1549,-2.1705,-2.0437,0.0,-2.1021,-2.0386,0.0,-2.0352,-2.1072,0.0,0.0,-2.1941,-2.1701,-2.1546,-2.2212,-2.2296,-2.2296,-2.2296,-2.2296,-2.2296,-2.2296,-2.2296,-2.2296,-2.2296,-2.2527,-2.2643,-2.2643,-2.294,-2.3253,-2.3577,-2.361,-2.3806,-2.4151,-2.418,-2.419,-2.419,-2.419,-2.418,-2.4133,-2.418,-2.4235,-2.4371,-2.5913,-2.6638,-2.684,-2.8363,-2.9005,-2.9005,-2.9005,-2.9005,-2.9005,-2.9005,-2.9005,-2.9005,-2.9005,-2.9005,-2.9005,-2.9005,-2.9005,-2.9005,-2.9005,-2.9005,-2.9005,-2.9005,-2.9005,-2.9005,-2.9005,-2.9005,-2.9409,-3.1029,-3.1397,-3.1843,-3.344,-3.3807,-3.3807,-3.3807,-3.3807,-3.3807,-3.3807,-3.3807,-3.3807,-3.3807,-3.3807,-3.3807,-3.3807,-3.3807,-3.3807,-3.3807,-3.3807,-3.3807,-3.3807,-3.3807,-3.3807,-3.3807,-3.3807,-3.3807,-3.3807,-3.3807,-3.3807,-3.3807,-3.3807,-3.3807,-3.3807,-3.3807,-3.3807,-3.3807,-3.3807,-3.3807,-2.1275,-2.1427,-2.1684,-2.1803,-2.2073,-2.2127,-2.1485,-2.16,-2.1735,-2.14,0.0,0.0,0.0,0.0,0.0,0.0,-2.141,-2.1461,-2.2209,-2.2296,-2.2296,-2.2296,-2.2296,-2.2296,-2.2296,-2.2296,-2.2296,-2.2296,-2.255,-2.2708,-2.2708,-2.3021,-2.3357,-2.3692,-2.3703,-2.3847,-2.4208,-2.419,-2.419,-2.419,-2.419,-2.419,-2.419,-2.419,-2.419,-2.4281,-2.5897,-2.6602,-2.6712,-2.8345,-2.9005,-2.9005,-2.9005,-2.9005,-2.9005,-2.9005,-2.9005,-2.9005,-2.9005,-2.9005,-2.9005,-2.9005,-2.9005,-2.9005,-2.9005,-2.9005,-2.9005,-2.9005,-2.9005,-2.9005,-2.9005,-2.9354,-2.9989,-3.114,-3.1751,-3.2412,-3.355,-3.3807,-3.3807,-3.3807,-3.3807,-3.3807,-3.3807,-3.3807,-3.3807,-3.3807,-3.3807,-3.3807,-3.3807,-3.3807,-3.3807,-3.3807,-3.3807,-3.3807,-3.3807,-3.3807,-3.3807,-3.3807,-3.3807,-3.3807,-3.3807,-3.3807,-3.3807,-3.3807,-3.3807,-3.3807,-3.3807,-3.3807,-3.3807,-3.3807,-3.3807,-3.3807,-2.1647,-2.1608,-2.1718,-2.2172,-2.2296,-2.2296,-2.2296,-2.2296,-2.2296,-2.2296,-2.187,0.0,0.0,0.0,-2.0602,-2.1376,0.0,-2.1461,-2.2209,-2.2141,-2.206,-2.2279,-2.2296,-2.2296,-2.2296,-2.2296,-2.2321,-2.2398,-2.2678,-2.2885,-2.2972,-2.33,-2.3577,-2.3827,-2.3837,-2.3947,-2.4208,-2.419,-2.419,-2.419,-2.419,-2.419,-2.419,-2.419,-2.419,-2.4281,-2.5676,-2.641,-2.6712,-2.8088,-2.8803,-2.9005,-2.9005,-2.9005,-2.9005,-2.9005,-2.9005,-2.9005,-2.9005,-2.9005,-2.9005,-2.9005,-2.9005,-2.9005,-2.9005,-2.9005,-2.9005,-2.9005,-2.9005,-2.9005,-2.9005,-2.9592,-3.0393,-3.1213,-3.2008,-3.2821,-3.3623,-3.3807,-3.3807,-3.3807,-3.3807,-3.3807,-3.3807,-3.3807,-3.3807,-3.3807,-3.3807,-3.3807,-3.3807,-3.3807,-3.3807,-3.3807,-3.3807,-3.3807,-3.3807,-3.3807,-3.3807,-3.3807,-3.3807,-3.3807,-3.3807,-3.3807,-3.3807,-3.3807,-3.3807,-3.3807,-3.3807,-3.3807,-3.3807,-3.3807,-3.3807,-3.3807,-2.2737,-2.2647,-2.2604,-2.236,-2.2296,-2.2296,-2.2296,-2.2296,-2.2296,-2.2296,-2.2279,-2.2262,-2.2262,-2.1651,-2.141,-2.2127,-2.1667,0.0,0.0,-2.1684,-2.1512,-2.2212,-2.2296,-2.2296,-2.2296,-2.2296,-2.2398,-2.2673,-2.2996,-2.3335,-2.366,-2.3986,-2.417,-2.418,-2.418,-2.418,-2.419,-2.419,-2.419,-2.419,-2.419,-2.419,-2.419,-2.419,-2.419,-2.4245,-2.5081,-2.5888,-2.6657,-2.7493,-2.8301,-2.9005,-2.9005,-2.9005,-2.9005,-2.9005,-2.9005,-2.9005,-2.9005,-2.9005,-2.9005,-2.9005,-2.9005,-2.9005,-2.9005,-2.9005,-2.9005,-2.9005,-2.9005,-2.9005,-2.9005,-2.9592,-3.0393,-3.1213,-3.2008,-3.2821,-3.3623,-3.3807,-3.3807,-3.3807,-3.3807,-3.3807,-3.3807,-3.3807,-3.3807,-3.3807,-3.3807,-3.3807,-3.3807,-3.3807,-3.3807,-3.3807,-3.3807,-3.3807,-3.3807,-3.3807,-3.3807,-3.3807,-3.3807,-3.3807,-3.3807,-3.3807,-3.3807,-3.3807,-3.3807,-3.3807,-3.3807,-3.3807,-3.3807,-3.3807,-3.3807,-3.3807,-2.3057,-2.3033,-2.296,-2.2639,-2.2546,-2.2527,-2.2335,-2.2296,-2.2296,-2.2296,-2.2296,-2.2296,-2.2296,-2.1701,-2.1444,-2.2192,-2.1684,-2.1292,0.0,-2.0906,-2.0504,-2.0758,-2.1245,-2.1752,-2.2245,-2.2463,-2.2599,-2.2695,-2.323,-2.3577,-2.3692,-2.4016,-2.419,-2.419,-2.419,-2.419,-2.419,-2.419,-2.419,-2.419,-2.419,-2.419,-2.419,-2.419,-2.419,-2.4245,-2.5044,-2.587,-2.6657,-2.7475,-2.8282,-2.9005,-2.9005,-2.9005,-2.9005,-2.9005,-2.9005,-2.9005,-2.9005,-2.9005,-2.9005,-2.9005,-2.9005,-2.9005,-2.9005,-2.9005,-2.9005,-2.9005,-2.9005,-2.9005,-2.9005,-2.9989,-3.1054,-3.1342,-3.2412,-3.3476,-3.3733,-3.3807,-3.3807,-3.3807,-3.3807,-3.3807,-3.3807,-3.3807,-3.3807,-3.3807,-3.3807,-3.3807,-3.3807,-3.3807,-3.3807,-3.3807,-3.3807,-3.3807,-3.3807,-3.3807,-3.3807,-3.3807,-3.3807,-3.3807,-3.3807,-3.3807,-3.3807,-3.3807,-3.3807,-3.3807,-3.3807,-3.3807,-3.3807,-3.3807,-3.3807,-3.3807,-2.3403,-2.338,-2.33,-2.296,-2.2885,-2.2797,-2.2517,-2.2436,-2.2436,-2.2436,-2.2377,-2.2363,-2.2571,-2.2064,-2.179,-2.2354,-2.1953,-2.1397,0.0,-2.0568,-2.0318,-2.0035,-2.0703,-2.1417,-2.1996,-2.236,-2.2704,-2.3033,-2.3346,-2.3639,-2.3876,-2.4084,-2.419,-2.419,-2.419,-2.419,-2.419,-2.419,-2.419,-2.419,-2.419,-2.419,-2.419,-2.419,-2.419,-2.4226,-2.475,-2.5429,-2.6245,-2.7034,-2.7842,-2.8601,-2.8895,-2.9005,-2.9005,-2.9005,-2.9005,-2.9005,-2.9005,-2.9005,-2.9005,-2.9005,-2.9005,-2.9005,-2.9005,-2.9005,-2.9005,-2.9005,-2.9005,-2.9005,-2.9005,-3.0191,-3.1397,-3.1397,-3.2632,-3.3807,-3.3807,-3.3807,-3.3807,-3.3807,-3.3807,-3.3807,-3.3807,-3.3807,-3.3807,-3.3807,-3.3807,-3.3807,-3.3807,-3.3807,-3.3807,-3.3807,-3.3807,-3.3807,-3.3807,-3.3807,-3.3807,-3.3807,-3.3807,-3.3807,-3.3807,-3.3807,-3.3807,-3.3807,-3.3807,-3.3807,-3.3807,-3.3807,-3.3807,-3.3807,-3.3807,-3.3807]},{"header":{"parameterUnit":"m.s-1","parameterCategory":1,"la1":30.6,"la2":29.2853,"lo1":-89.7004,"lo2":-87.6739,"dy":0.0162,"dx":0.0183,"nx":112,"ny":82,"refTime":"2024-07-16T00:00:00:Z","depth":0,"parameterNumber":3,"parameterNumberName":"V-component_of_WINDS"},"data":[0.0,0.0,0.0,0.0,0.0,0.0,0.0,0.0,0.0,0.0,0.0,0.0,0.0,0.0,0.0,0.0,0.0,0.0,0.0,0.0,0.0,0.0,0.0,0.0,0.0,0.0,0.0,0.0,0.0,0.0,0.0,0.0,0.0,0.0,0.0,0.0,0.0,0.0,0.0,0.0,0.0,0.0,0.0,0.0,0.0,0.0,0.0,0.0,0.0,0.0,0.0,0.0,0.0,0.0,0.0,0.0,0.0,0.0,0.0,0.0,0.0,0.0,0.0,0.0,0.0,0.0,0.0,0.0,0.0,0.0,0.0,0.0,0.0,0.0,0.0,0.0,0.0,0.0,0.0,0.0,0.0,0.0,0.0,0.0,0.0,0.0,0.0,0.0,0.0,0.0,-0.8039,-0.8429,-0.8657,-0.8804,-0.8804,-0.8804,-0.8557,-0.7945,0.0,0.0,0.0,0.0,0.0,0.0,0.0,0.0,0.0,0.0,0.0,0.0,0.0,0.0,0.0,0.0,0.0,0.0,0.0,0.0,0.0,0.0,0.0,0.0,0.0,0.0,0.0,0.0,0.0,0.0,0.0,0.0,0.0,0.0,0.0,0.0,0.0,0.0,0.0,0.0,0.0,0.0,0.0,0.0,0.0,0.0,0.0,0.0,0.0,0.0,0.0,0.0,0.0,0.0,0.0,0.0,0.0,0.0,0.0,0.0,0.0,0.0,0.0,0.0,0.0,0.0,0.0,0.0,0.0,0.0,0.0,0.0,0.0,0.0,0.0,0.0,0.0,0.0,0.0,0.0,0.0,0.0,0.0,0.0,0.0,0.0,0.0,0.0,0.0,0.0,0.0,0.0,0.0,0.0,0.0,0.0,0.0,0.0,0.0,0.0,0.0,0.0,0.0,0.0,-0.8112,-0.8684,-0.8784,-0.8804,-0.8804,-0.8804,-0.8557,-0.7945,0.0,0.0,0.0,0.0,0.0,0.0,0.0,0.0,0.0,0.0,0.0,0.0,0.0,0.0,0.0,0.0,0.0,0.0,0.0,0.0,0.0,0.0,0.0,0.0,0.0,0.0,0.0,0.0,0.0,0.0,0.0,0.0,0.0,0.0,0.0,0.0,0.0,0.0,0.0,0.0,0.0,0.0,0.0,0.0,0.0,0.0,0.0,0.0,0.0,0.0,0.0,0.0,0.0,0.0,0.0,0.0,0.0,0.0,0.0,0.0,0.0,0.0,0.0,0.0,0.0,0.0,0.0,0.0,0.0,0.0,0.0,0.0,0.0,0.0,0.0,0.0,0.0,0.0,0.0,0.0,0.0,0.0,0.0,0.0,0.0,0.0,0.0,0.0,0.0,0.0,0.0,0.0,0.0,0.0,0.0,0.0,0.0,0.0,0.0,0.0,0.0,0.0,0.0,-0.7916,-0.8337,-0.8758,-0.8804,-0.8804,-0.8804,-0.8804,-0.8557,-0.7945,-0.7488,0.0,0.0,0.0,0.0,0.0,0.0,0.0,0.0,0.0,0.0,0.0,0.0,0.0,0.0,0.0,0.0,0.0,0.0,0.0,0.0,0.0,0.0,0.0,0.0,0.0,0.0,0.0,0.0,0.0,0.0,0.0,0.0,0.0,0.0,0.0,0.0,0.0,0.0,0.0,0.0,0.0,0.0,0.0,0.0,0.0,0.0,0.0,0.0,0.0,0.0,0.0,0.0,0.0,0.0,0.0,0.0,0.0,0.0,0.0,0.0,0.0,0.0,0.0,0.0,0.0,0.0,0.0,0.0,0.0,0.0,0.0,0.0,0.0,0.0,0.0,0.0,0.0,0.0,0.0,0.0,0.0,0.0,0.0,0.0,0.0,0.0,0.0,0.0,0.0,0.0,0.0,0.0,0.0,0.0,0.0,0.0,0.0,0.0,0.0,0.0,0.0,0.0,-0.8415,-0.8564,-0.8784,-0.8804,-0.8804,-0.8804,-0.8744,-0.8484,-0.7939,-0.7273,0.0,0.0,0.0,0.0,0.0,0.0,0.0,0.0,0.0,0.0,0.0,0.0,0.0,0.0,0.0,0.0,0.0,0.0,0.0,0.0,0.0,0.0,0.0,0.0,0.0,0.0,0.0,0.0,0.0,0.0,0.0,0.0,0.0,0.0,0.0,0.0,0.0,0.0,0.0,0.0,0.0,0.0,0.0,0.0,0.0,0.0,0.0,0.0,0.0,0.0,0.0,0.0,0.0,0.0,0.0,0.0,0.0,0.0,0.0,0.0,0.0,0.0,0.0,0.0,0.0,0.0,0.0,0.0,0.0,0.0,0.0,0.0,0.0,0.0,0.0,0.0,0.0,0.0,0.0,0.0,0.0,0.0,0.0,0.0,0.0,0.0,0.0,0.0,0.0,0.0,0.0,0.0,0.0,0.0,0.0,0.0,0.0,0.0,0.0,0.0,0.0,0.0,-0.8412,-0.8784,-0.8804,-0.8804,-0.8804,-0.8804,-0.8557,-0.827,-0.7925,-0.7108,0.0,0.0,0.0,0.0,0.0,0.0,0.0,0.0,0.0,0.0,0.0,0.0,0.0,0.0,0.0,0.0,0.0,0.0,0.0,0.0,0.0,0.0,0.0,0.0,0.0,0.0,0.0,0.0,0.0,0.0,0.0,0.0,0.0,0.0,0.0,0.0,0.0,0.0,0.0,0.0,0.0,0.0,0.0,0.0,0.0,0.0,0.0,0.0,0.0,0.0,0.0,0.0,0.0,0.0,0.0,0.0,0.0,0.0,0.0,0.0,0.0,0.0,0.0,0.0,0.0,0.0,0.0,0.0,0.0,0.0,0.0,0.0,0.0,0.0,0.0,0.0,0.0,0.0,0.0,0.0,0.0,0.0,0.0,0.0,0.0,0.0,0.0,0.0,0.0,0.0,0.0,0.0,0.0,0.0,0.0,0.0,0.0,0.0,0.0,0.0,0.0,0.0,-0.829,-0.8604,-0.8791,-0.8804,-0.8804,-0.8804,-0.8704,-0.8437,-0.7939,0.0,0.0,0.0,0.0,0.0,0.0,0.0,0.0,0.0,0.0,0.0,0.0,0.0,0.0,0.0,0.0,0.0,0.0,0.0,0.0,0.0,0.0,0.0,0.0,0.0,0.0,0.0,0.0,0.0,0.0,0.0,0.0,0.0,0.0,0.0,0.0,0.0,0.0,0.0,0.0,0.0,0.0,0.0,0.0,0.0,0.0,0.0,0.0,0.0,0.0,0.0,0.0,0.0,0.0,0.0,0.0,0.0,0.0,0.0,0.0,0.0,0.0,0.0,0.0,0.0,0.0,0.0,0.0,0.0,0.0,0.0,0.0,0.0,0.0,0.0,0.0,0.0,0.0,0.0,0.0,0.0,0.0,0.0,0.0,0.0,0.0,0.0,0.0,0.0,0.0,0.0,0.0,0.0,0.0,0.0,0.0,0.0,0.0,0.0,0.0,0.0,0.0,-0.8049,-0.8362,-0.8591,-0.8784,-0.8804,-0.8804,-0.8804,-0.8637,-0.8292,-0.7816,0.0,0.0,0.0,0.0,0.0,0.0,0.0,0.0,0.0,0.0,0.0,0.0,0.0,0.0,0.0,0.0,0.0,0.0,0.0,0.0,0.0,0.0,0.0,0.0,0.0,0.0,0.0,0.0,0.0,0.0,0.0,0.0,0.0,0.0,0.0,0.0,0.0,0.0,0.0,0.0,0.0,0.0,0.0,0.0,0.0,0.0,0.0,0.0,0.0,0.0,0.0,0.0,0.0,0.0,0.0,0.0,0.0,0.0,0.0,0.0,0.0,0.0,0.0,0.0,0.0,0.0,0.0,0.0,0.0,0.0,0.0,0.0,0.0,0.0,0.0,0.0,0.0,0.0,0.0,0.0,0.0,0.0,0.0,0.0,0.0,0.0,0.0,0.0,0.0,0.0,0.0,0.0,0.0,0.0,0.0,0.0,0.0,0.0,0.0,0.0,0.0,0.0,-0.8591,-0.8758,-0.8804,-0.8804,-0.8804,-0.8804,-0.8804,-0.8245,-0.7796,0.0,0.0,0.0,0.0,0.0,0.0,0.0,0.0,0.0,0.0,0.0,0.0,0.0,0.0,0.0,0.0,0.0,0.0,0.0,0.0,0.0,0.0,0.0,0.0,0.0,0.0,0.0,0.0,0.0,0.0,0.0,0.0,0.0,0.0,0.0,0.0,0.0,0.0,0.0,0.0,0.0,0.0,0.0,0.0,0.0,0.0,0.0,0.0,0.0,0.0,0.0,0.0,0.0,0.0,0.0,0.0,0.0,0.0,0.0,0.0,0.0,0.0,0.0,0.0,0.0,0.0,0.0,0.0,0.0,0.0,0.0,0.0,0.0,0.0,0.0,0.0,0.0,0.0,0.0,0.0,0.0,0.0,0.0,0.0,0.0,0.0,0.0,0.0,0.0,0.0,0.0,0.0,0.0,0.0,0.0,0.0,0.0,0.0,0.0,0.0,0.0,0.0,0.0,-0.8591,-0.8758,-0.8804,-0.8804,-0.8804,-0.8724,-0.8543,-0.8343,-0.7929,-0.7201,0.0,0.0,0.0,0.0,0.0,0.0,0.0,0.0,0.0,0.0,0.0,0.0,0.0,0.0,0.0,0.0,0.0,0.0,0.0,0.0,0.0,0.0,0.0,0.0,0.0,0.0,0.0,0.0,0.0,0.0,0.0,0.0,0.0,0.0,0.0,0.0,0.0,0.0,0.0,0.0,0.0,0.0,0.0,0.0,0.0,0.0,0.0,0.0,0.0,0.0,0.0,0.0,0.0,0.0,0.0,0.0,0.0,0.0,0.0,0.0,0.0,0.0,0.0,0.0,0.0,0.0,0.0,0.0,0.0,0.0,0.0,0.0,0.0,0.0,0.0,0.0,0.0,0.0,0.0,0.0,0.0,0.0,0.0,0.0,0.0,0.0,0.0,0.0,0.0,0.0,0.0,0.0,0.0,0.0,0.0,0.0,0.0,0.0,0.0,0.0,0.0,0.0,-0.866,-0.9002,-0.908,-0.8831,-0.8804,-0.8738,-0.8564,-0.833,-0.7916,-0.7241,0.0,0.0,0.0,0.0,0.0,0.0,0.0,0.0,0.0,0.0,0.0,0.0,0.0,0.0,0.0,0.0,0.0,0.0,0.0,0.0,0.0,0.0,0.0,0.0,0.0,0.0,0.0,0.0,0.0,0.0,0.0,0.0,0.0,0.0,0.0,0.0,0.0,0.0,0.0,0.0,0.0,0.0,0.0,0.0,0.0,0.0,0.0,0.0,0.0,0.0,0.0,0.0,0.0,0.0,0.0,0.0,0.0,0.0,0.0,0.0,0.0,0.0,0.0,0.0,0.0,0.0,0.0,0.0,0.0,0.0,0.0,0.0,0.0,0.0,0.0,0.0,0.0,0.0,0.0,0.0,0.0,0.0,0.0,0.0,0.0,0.0,0.0,0.0,0.0,0.0,0.0,0.0,0.0,0.0,0.0,0.0,0.0,0.0,0.0,0.0,0.0,0.0,-0.8821,-0.9311,-0.9484,-0.8857,-0.8804,-0.8798,-0.8771,-0.8225,-0.7766,-0.7471,0.0,0.0,0.0,0.0,0.0,0.0,0.0,0.0,0.0,0.0,0.0,0.0,0.0,0.0,0.0,0.0,0.0,0.0,0.0,0.0,0.0,0.0,0.0,0.0,0.0,0.0,0.0,0.0,0.0,0.0,0.0,0.0,0.0,0.0,0.0,0.0,0.0,0.0,0.0,0.0,0.0,0.0,0.0,0.0,0.0,0.0,0.0,0.0,0.0,0.0,0.0,0.0,0.0,0.0,0.0,0.0,0.0,0.0,0.0,0.0,-0.5824,-0.5799,0.0,0.0,0.0,0.0,0.0,0.0,0.0,0.0,0.0,0.0,0.0,0.0,0.0,0.0,0.0,0.0,0.0,0.0,0.0,0.0,0.0,0.0,0.0,0.0,0.0,0.0,0.0,0.0,0.0,0.0,0.0,0.0,0.0,0.0,0.0,0.0,0.0,0.0,0.0,0.0,-0.9264,-0.9144,-0.8956,-0.8804,-0.8804,-0.8711,-0.8509,-0.8136,-0.7672,-0.7148,-0.6533,0.0,0.0,0.0,0.0,0.0,0.0,0.0,0.0,0.0,0.0,0.0,0.0,0.0,0.0,0.0,0.0,0.0,0.0,0.0,0.0,0.0,0.0,0.0,0.0,0.0,0.0,0.0,0.0,0.0,0.0,0.0,0.0,0.0,0.0,0.0,0.0,0.0,0.0,0.0,0.0,0.0,0.0,0.0,0.0,0.0,0.0,0.0,0.0,0.0,0.0,0.0,0.0,0.0,0.0,0.0,0.0,0.0,0.0,0.0,-0.6437,-0.6415,0.0,0.0,0.0,0.0,0.0,0.0,0.0,0.0,0.0,0.0,0.0,0.0,0.0,0.0,0.0,0.0,0.0,0.0,0.0,0.0,0.0,0.0,0.0,0.0,0.0,0.0,0.0,0.0,0.0,0.0,0.0,0.0,0.0,0.0,0.0,0.0,0.0,0.0,0.0,0.0,-0.9598,-0.9986,-0.9987,-0.9335,-0.929,-0.9096,-0.8623,-0.8159,-0.7772,-0.7459,-0.6774,0.0,0.0,0.0,0.0,0.0,0.0,0.0,0.0,0.0,0.0,0.0,0.0,0.0,0.0,0.0,0.0,0.0,0.0,0.0,0.0,0.0,0.0,0.0,0.0,0.0,0.0,0.0,0.0,0.0,0.0,0.0,0.0,0.0,0.0,0.0,0.0,0.0,0.0,0.0,0.0,0.0,0.0,0.0,0.0,0.0,0.0,0.0,0.0,0.0,0.0,0.0,0.0,0.0,-0.6483,-0.6315,-0.6196,-0.695,-0.726,-0.7144,-0.692,-0.6947,-0.714,-0.6921,0.0,0.0,0.0,0.0,0.0,0.0,0.0,0.0,0.0,0.0,0.0,0.0,0.0,0.0,0.0,0.0,0.0,0.0,0.0,0.0,0.0,0.0,-0.9098,-0.8818,-0.9283,-0.9418,-0.797,0.0,0.0,0.0,0.0,0.0,0.0,0.0,0.0,0.0,0.0,0.0,-1.0032,-1.0941,-1.1191,-1.009,-0.9961,-0.9762,-0.9185,-0.8651,-0.8303,-0.823,-0.7362,-0.6819,0.0,0.0,0.0,0.0,0.0,0.0,0.0,0.0,0.0,0.0,0.0,0.0,0.0,0.0,0.0,0.0,0.0,0.0,0.0,0.0,0.0,0.0,0.0,0.0,0.0,0.0,0.0,0.0,0.0,0.0,0.0,0.0,-0.362,-0.3963,0.0,0.0,0.0,0.0,0.0,0.0,0.0,0.0,0.0,0.0,0.0,0.0,0.0,-0.6649,-0.6766,-0.7624,-0.7918,-0.7698,-0.8191,-0.8296,-0.8055,-0.8406,-0.8539,-0.852,-0.8513,0.0,-0.7786,-0.7746,0.0,0.0,0.0,0.0,0.0,0.0,0.0,0.0,0.0,0.0,0.0,0.0,0.0,0.0,0.0,0.0,0.0,0.0,0.0,0.0,0.0,0.0,-1.0121,-0.98,-0.9581,-0.9612,-1.0175,-0.9243,-0.8433,-0.8845,-0.8659,-0.8644,0.0,0.0,0.0,0.0,0.0,0.0,-1.0917,-1.0959,-1.0864,-1.0695,-1.0669,-1.0636,-1.0542,-1.0254,-0.9889,-0.949,-0.8477,-0.7722,-0.7316,-0.654,0.0,0.0,0.0,0.0,0.0,0.0,0.0,0.0,0.0,0.0,0.0,0.0,0.0,0.0,0.0,0.0,0.0,0.0,0.0,0.0,0.0,0.0,0.0,0.0,0.0,0.0,0.0,0.0,0.0,-0.4299,-0.4629,-0.4918,-0.5073,-0.522,0.0,0.0,0.0,0.0,0.0,0.0,0.0,0.0,0.0,-0.6904,-0.7026,-0.7291,-0.7706,-0.8321,-0.855,-0.8405,-0.8684,-0.8744,-0.8624,-0.8751,-0.8804,-0.8804,-0.8804,-0.8858,-0.8916,-0.8384,-0.8294,-0.8499,0.0,0.0,0.0,0.0,-1.029,-1.0037,-1.1113,-1.111,-1.0655,-1.0932,0.0,0.0,0.0,0.0,0.0,0.0,0.0,-1.087,-1.075,-1.1054,-1.1335,-1.103,-1.118,-1.1374,-1.1369,-1.0836,-1.0383,-1.048,-1.0061,-0.9787,-1.0261,-1.0307,0.0,0.0,0.0,-1.133,-1.171,-1.1898,-1.1816,-1.1416,-1.1366,-1.1216,-1.0838,-1.0556,-1.0147,-0.9565,-0.8766,-0.8305,-0.8241,-0.7061,-0.6693,0.0,0.0,0.0,0.0,0.0,0.0,0.0,0.0,0.0,0.0,0.0,0.0,0.0,0.0,0.0,0.0,0.0,0.0,0.0,0.0,0.0,0.0,0.0,0.0,0.0,0.0,0.0,0.0,-0.5023,-0.5409,-0.5675,-0.5958,-0.6168,0.0,0.0,0.0,0.0,0.0,0.0,-0.7161,-0.6514,-0.6729,-0.8094,-0.7829,-0.7935,-0.8484,-0.8697,-0.8804,-0.8804,-0.8804,-0.8804,-0.8804,-0.8804,-0.8883,-0.9061,-0.9061,-0.9439,-0.9997,-0.9119,-0.9,-0.9439,-0.9833,-1.0324,-1.0915,-1.178,-1.1673,-1.1223,-1.2469,-1.234,-1.164,-1.1872,-1.1848,-1.1633,-1.0977,0.0,0.0,0.0,0.0,-1.1895,-1.1682,-1.2021,-1.2329,-1.2137,-1.2369,-1.2535,-1.2163,-1.1922,-1.1765,-1.1674,-1.116,-1.086,-1.1173,-1.1176,0.0,-1.1235,-1.1784,-1.2242,-1.2359,-1.2676,-1.2691,-1.2138,-1.208,-1.1882,-1.1384,-1.1148,-1.0779,-1.0156,-0.9399,-0.9026,-0.9098,-0.7702,-0.7286,-0.8031,0.0,0.0,0.0,0.0,0.0,0.0,0.0,0.0,0.0,0.0,0.0,0.0,0.0,0.0,0.0,0.0,0.0,0.0,0.0,0.0,0.0,0.0,0.0,0.0,0.0,0.0,0.0,0.0,0.0,-0.5667,-0.5879,0.0,0.0,0.0,0.0,-0.7377,-0.7005,-0.7206,-0.826,-0.7609,-0.768,-0.8725,-0.8725,-0.8732,-0.8784,-0.8798,-0.8804,-0.8804,-0.8804,-0.8804,-0.8804,-0.8804,-0.9133,-0.9744,-0.9744,-1.0141,-1.0686,-1.0023,-1.0102,-1.0713,-1.0738,-1.0764,-1.0889,-1.158,-1.1803,-1.1868,-1.2623,-1.2574,-1.2215,-1.2686,-1.2529,-1.2164,-1.2125,-1.2125,0.0,0.0,-1.248,-1.2822,-1.2817,-1.2842,-1.2852,-1.2847,-1.2344,-1.2055,-1.2691,-1.2295,-1.1805,-1.1785,-1.1769,-1.1816,-1.2097,0.0,-1.2141,-1.2122,-1.2174,-1.2359,-1.2817,-1.2895,-1.2881,-1.2856,-1.2847,-1.2832,-1.2798,-1.2779,-1.257,-1.2084,-1.0951,-1.011,-0.9688,-0.8472,-0.7846,-0.7906,-0.7275,0.0,0.0,0.0,0.0,0.0,0.0,0.0,0.0,0.0,0.0,0.0,0.0,0.0,0.0,0.0,0.0,0.0,0.0,0.0,0.0,0.0,0.0,0.0,0.0,0.0,0.0,0.0,0.0,-0.7061,-0.7176,0.0,-0.7301,-0.7609,-0.7905,-0.8074,-0.8085,-0.8242,-0.8644,-0.7961,-0.7951,-0.8778,-0.8348,-0.8321,-0.8804,-0.8804,-0.8804,-0.8804,-0.8804,-0.9035,-0.9439,-0.9439,-0.9814,-1.044,-1.044,-1.0813,-1.1441,-1.1191,-1.1241,-1.1441,-1.1441,-1.1724,-1.2181,-1.2427,-1.2501,-1.2559,-1.2798,-1.2783,-1.2676,-1.2856,-1.2798,-1.2646,-1.2646,-1.2646,-1.2646,-1.2646,-1.2764,-1.2905,-1.2905,-1.2905,-1.2905,-1.2905,-1.2691,-1.2584,-1.2847,-1.2691,-1.2501,-1.2501,-1.2501,-1.245,-1.2235,-1.2461,-1.2559,-1.2252,-1.2471,-1.2705,-1.2886,-1.2905,-1.2905,-1.2905,-1.2905,-1.2905,-1.2905,-1.2905,-1.2453,-1.1365,-1.0733,-1.0213,-0.9778,-0.857,-0.8201,-0.8849,-0.7836,-0.7161,0.0,0.0,0.0,0.0,0.0,0.0,0.0,0.0,0.0,0.0,0.0,0.0,0.0,0.0,0.0,0.0,0.0,0.0,0.0,0.0,0.0,0.0,0.0,0.0,0.0,-0.6954,-0.7459,-0.7859,-0.8079,-0.8165,-0.8065,-0.8343,-0.8543,-0.8543,-0.8456,-0.8533,-0.8778,-0.8103,-0.8049,-0.8778,-0.8321,-0.8315,-0.8804,-0.8804,-0.8804,-0.8804,-0.8804,-0.9159,-0.9788,-0.9788,-1.0295,-1.1141,-1.1141,-1.1516,-1.2163,-1.2163,-1.2163,-1.2163,-1.2163,-1.2476,-1.2905,-1.2905,-1.2905,-1.2905,-1.2905,-1.2905,-1.2905,-1.2905,-1.2905,-1.2905,-1.2905,-1.2905,-1.2905,-1.2905,-1.2905,-1.2905,-1.2905,-1.2905,-1.2905,-1.2905,-1.2905,-1.2905,-1.2905,-1.2905,-1.2905,-1.2905,-1.2905,-1.2807,-1.25,-1.2686,-1.2783,-1.249,-1.2695,-1.2905,-1.2905,-1.2905,-1.2905,-1.2905,-1.2905,-1.2905,-1.2905,-1.2905,-1.2412,-1.1216,-1.0763,-1.0301,-0.9832,-0.8863,-0.8643,-0.9328,-0.8295,-0.7632,-0.7368,0.0,0.0,0.0,0.0,0.0,0.0,0.0,0.0,0.0,0.0,0.0,0.0,0.0,0.0,0.0,0.0,0.0,0.0,0.0,0.0,0.0,0.0,0.0,-0.6993,-0.7546,-0.7925,-0.7932,-0.8432,-0.8697,-0.8442,-0.8644,-0.8804,-0.8804,-0.8129,-0.8049,-0.8752,-0.8129,-0.8076,-0.8778,-0.8804,-0.8804,-0.8804,-0.8804,-0.8804,-0.8804,-0.8804,-0.9159,-0.9788,-0.9814,-1.0534,-1.1789,-1.1814,-1.2236,-1.2905,-1.2905,-1.2905,-1.2905,-1.2905,-1.2905,-1.2905,-1.2905,-1.2905,-1.2905,-1.2905,-1.2905,-1.2905,-1.2905,-1.2905,-1.2905,-1.2905,-1.2905,-1.2905,-1.2905,-1.2905,-1.2905,-1.2905,-1.2905,-1.2905,-1.2905,-1.2905,-1.2905,-1.2905,-1.2905,-1.2905,-1.2905,-1.2905,-1.2905,-1.2905,-1.2905,-1.2905,-1.2905,-1.2905,0.0,-1.2905,-1.2905,-1.2905,-1.2905,-1.2905,-1.2905,-1.2905,-1.2905,-1.2584,-1.1839,-1.1191,-1.0517,-0.984,-0.9414,-0.9202,-0.9178,-0.86,-0.8231,-0.8113,0.0,0.0,0.0,0.0,0.0,0.0,0.0,0.0,0.0,0.0,0.0,0.0,0.0,0.0,0.0,0.0,0.0,0.0,0.0,0.0,0.0,-0.7027,-0.7566,-0.7646,-0.8009,-0.833,-0.8544,-0.8711,-0.8778,-0.8697,-0.8758,-0.8804,-0.8804,-0.8619,-0.8593,-0.8778,-0.8619,-0.8593,-0.8804,-0.8804,-0.8804,-0.8804,-0.8804,-0.8804,-0.8804,-0.8804,-0.9159,-0.9814,-1.0287,-1.099,-1.1839,-1.2369,-1.2715,-1.2905,-1.2905,-1.2905,-1.2905,-1.2905,-1.2905,-1.2905,-1.2905,-1.2905,-1.2905,-1.2905,-1.2905,-1.2905,-1.2905,-1.2905,-1.2905,-1.2905,-1.2905,-1.2905,-1.2905,-1.2905,-1.2905,-1.2905,-1.2905,-1.2905,-1.2905,-1.2905,-1.2905,-1.2905,-1.2905,-1.2905,-1.2905,-1.2905,-1.2905,-1.2905,-1.2905,-1.2905,-1.2905,-1.2905,-1.2905,-1.2905,-1.2905,-1.2905,-1.2905,-1.2905,-1.2905,-1.2905,-1.2905,-1.2584,-1.1839,-1.1641,-1.1015,-0.984,-0.9706,-0.9405,-0.8911,-0.8559,-0.8375,0.0,0.0,0.0,0.0,0.0,0.0,0.0,0.0,0.0,0.0,0.0,0.0,0.0,0.0,0.0,0.0,0.0,0.0,0.0,0.0,0.0,0.0,-0.7695,-0.8156,-0.8258,-0.845,-0.8617,-0.8784,-0.8804,-0.8804,-0.8804,-0.8804,-0.8804,-0.8804,-0.8804,-0.8804,-0.8804,-0.8804,-0.8804,-0.8804,-0.8804,-0.8804,-0.8804,-0.8804,-0.8804,-0.8804,-0.8804,-0.9283,-1.0236,-1.0618,-1.1325,-1.2286,-1.2715,-1.2905,-1.2905,-1.2905,-1.2905,-1.2905,0.0,0.0,0.0,0.0,-1.2905,-1.2905,-1.2905,-1.2905,-1.2905,-1.2905,-1.2905,-1.2905,-1.2905,-1.2905,-1.2905,-1.2905,-1.2905,-1.2905,-1.2905,-1.2905,-1.2905,-1.2905,-1.2905,-1.2905,-1.2905,-1.2905,-1.2905,-1.2905,-1.2905,0.0,-1.2905,-1.2905,-1.2905,-1.2905,-1.2905,-1.2905,-1.2905,-1.2905,-1.2905,-1.2905,-1.2905,-1.2905,-1.2905,-1.2905,0.0,0.0,0.0,-1.1371,-1.0433,-1.04,0.0,0.0,0.0,0.0,0.0,-0.9313,0.0,0.0,-0.8304,-0.8136,0.0,0.0,0.0,0.0,0.0,0.0,0.0,0.0,0.0,0.0,0.0,0.0,0.0,0.0,0.0,0.0,-0.823,-0.8536,-0.8771,-0.8804,-0.8804,-0.8804,-0.8804,-0.8804,-0.8804,-0.8804,-0.8804,-0.8804,-0.8804,-0.8804,-0.8804,-0.8804,0.0,0.0,0.0,-0.8804,-0.8804,-0.8883,-0.891,-0.891,-0.8982,-0.964,-1.0788,-1.0889,-1.1584,-1.2774,-1.2847,-1.2905,-1.2905,-1.2905,-1.2905,-1.2905,-1.2905,-1.2905,-1.2905,-1.2905,-1.2905,-1.2905,-1.2905,0.0,0.0,-1.2905,-1.2905,-1.2905,-1.2905,-1.2905,-1.2905,-1.2905,-1.2905,-1.2905,-1.2905,-1.2905,-1.2905,-1.2905,-1.2905,-1.2905,-1.2905,-1.2905,-1.2905,-1.2905,-1.2905,-1.2905,-1.2905,-1.2905,-1.2905,-1.2905,-1.2905,-1.2905,-1.2905,-1.2905,-1.2905,-1.2905,-1.2905,0.0,-1.2905,-1.2905,-1.2608,-1.1972,-1.1839,-1.1636,-1.1286,-1.1205,-1.1158,-1.1158,-1.1087,-1.0939,-1.0695,-1.061,-1.0269,-0.967,-0.872,-0.8358,0.0,0.0,0.0,0.0,0.0,0.0,0.0,0.0,0.0,0.0,0.0,0.0,0.0,0.0,0.0,-0.823,-0.853,-0.8744,-0.8798,-0.8804,-0.8804,-0.8804,-0.8804,-0.8804,-0.8804,-0.8804,-0.8804,-0.8804,-0.8804,-0.8804,-0.8804,-0.8804,-0.8804,-0.8804,-0.8804,-0.8804,-0.8804,-0.9335,-0.9614,-0.9614,-1.0141,0.0,-1.0813,-1.1366,-1.1765,-1.2055,-1.2632,-1.2905,-1.2905,-1.2905,-1.2905,-1.2905,-1.2905,-1.2905,-1.2905,-1.2905,-1.2905,-1.2905,-1.2905,-1.2905,-1.2905,-1.2905,-1.2905,-1.2905,-1.2905,-1.2905,0.0,-1.2905,-1.2905,-1.2905,-1.2905,-1.2905,-1.2905,-1.2905,-1.2905,-1.2905,-1.2905,-1.2905,-1.2905,-1.2905,-1.2905,-1.2905,-1.2905,-1.2905,-1.2905,-1.2905,-1.2905,-1.2905,-1.2905,-1.2905,-1.2905,-1.2905,-1.2905,-1.2905,-1.2905,-1.2905,-1.2847,-1.2691,-1.2129,-1.1778,-1.1681,-1.1154,-1.0889,-1.0889,-1.0345,-1.0054,-0.9987,-0.9458,-0.9106,-0.9008,-0.9322,-0.9205,0.0,0.0,0.0,0.0,0.0,0.0,0.0,0.0,0.0,0.0,0.0,-0.7036,-0.7589,0.0,-0.8655,-0.8614,-0.899,-0.9185,-0.8857,-0.8804,-0.8804,-0.8804,-0.8804,-0.8804,-0.8804,-0.8804,-0.8804,-0.8804,-0.8804,-0.8804,-0.8804,-0.8804,-0.8804,-0.8804,-0.8804,-0.8956,-0.9283,-0.964,-0.9969,-1.0287,-1.0644,-1.099,-1.1316,-1.1641,-1.1996,-1.2369,-1.2749,-1.2905,-1.2905,-1.2905,-1.2905,-1.2905,-1.2905,-1.2905,-1.2905,-1.2905,-1.2905,-1.2905,-1.2905,-1.2905,-1.2905,-1.2905,-1.2905,-1.2905,-1.2905,-1.2905,-1.2905,-1.2905,-1.2905,-1.2905,-1.2905,-1.2905,-1.2905,-1.2905,-1.2905,-1.2905,-1.2905,-1.2905,-1.2905,-1.2905,-1.2905,-1.2905,-1.2905,-1.2905,-1.2905,-1.2905,-1.2905,-1.2905,-1.2905,-1.2905,-1.2905,-1.2905,-1.2905,-1.2905,-1.2905,-1.2905,-1.2905,-1.2905,-1.2559,-1.2344,-1.2344,-1.2024,-1.1683,-1.1316,-1.0965,-1.0644,-1.0287,-0.9969,-0.964,-0.9316,-0.964,-0.9439,0.0,0.0,0.0,0.0,0.0,0.0,0.0,-0.6807,-0.6928,-0.7471,-0.7625,-0.7859,-0.8475,-0.8973,-0.922,-0.902,-0.9335,-0.9413,-0.8883,-0.891,-0.8982,-0.8982,-0.8982,-0.8936,-0.8804,-0.891,-0.8936,-0.8811,-0.8804,-0.8804,-0.8804,-0.8936,-0.8982,-0.8982,-0.9106,-0.9439,-0.9994,-1.0115,-1.0466,-1.099,-1.1149,-1.15,-1.1996,-1.1996,-1.2344,-1.2905,-1.2905,-1.2905,-1.2905,-1.2905,-1.2905,-1.2915,-1.2993,-1.2983,-1.2905,-1.2905,-1.2905,-1.2905,-1.2905,-1.2905,-1.2905,-1.2905,-1.2905,-1.2905,-1.2905,-1.2905,-1.2905,-1.2905,-1.2905,-1.2905,-1.2905,-1.2905,-1.2905,-1.2905,-1.2905,-1.2905,-1.2905,-1.2905,-1.2905,-1.2905,-1.2905,-1.2905,-1.2905,-1.2905,-1.2905,-1.2905,-1.2905,-1.2905,-1.2905,-1.2905,-1.2905,-1.2905,-1.2905,-1.2905,-1.2905,-1.2905,-1.2905,-1.2905,-1.2905,-1.2905,-1.2905,-1.2774,-1.2403,-1.1814,-1.1541,-1.1141,-1.0618,-1.0466,-1.0141,-0.9614,-0.9654,-0.9401,-0.5507,-0.5826,-0.622,-0.6767,-0.6754,-0.68,0.0,-0.7569,-0.7484,-0.7786,-0.809,-0.8513,-0.918,-0.905,-0.9046,-0.9607,-0.9256,-0.8883,-0.8804,-0.9309,-0.9692,-0.9692,-0.9692,-0.9465,-0.8857,-0.9335,-0.9439,-0.8831,-0.8804,-0.8804,-0.8804,-0.9361,-0.9692,-0.9692,-1.0269,-1.061,-1.0695,-1.1291,-1.1616,-1.169,-1.2353,-1.2691,-1.2774,-1.2774,-1.2822,-1.2905,-1.2905,-1.2905,-1.2905,-1.2905,-1.2905,-1.2944,-1.3291,-1.3213,-1.2905,-1.2905,-1.2905,-1.2905,-1.2905,-1.2905,-1.2905,-1.2905,-1.2905,-1.2905,-1.2905,-1.2905,-1.2905,-1.2905,-1.2905,-1.2905,-1.2905,-1.2905,-1.2905,-1.2905,-1.2905,-1.2905,-1.2905,-1.2905,-1.2905,-1.2905,-1.2905,-1.2905,-1.2905,-1.2905,-1.2905,-1.2905,-1.2905,-1.2905,-1.2905,-1.2905,-1.2905,-1.2905,-1.2905,-1.2905,-1.2905,-1.2905,-1.2905,-1.2905,-1.2905,-1.2905,-1.2905,-1.227,-1.1888,-1.1789,-1.0636,-0.9994,-0.9909,-0.9309,-0.8982,-0.8917,-0.9146,-0.9213,-0.6099,-0.6586,-0.7099,-0.7709,-0.7767,-0.7838,-0.8589,-0.839,-0.8221,-0.888,-0.9127,-0.9416,-1.0083,-1.0074,-0.9917,-0.9814,-0.9891,-0.984,-0.9439,-0.9961,-1.0389,-1.0389,-1.0389,-1.0115,-0.9439,-0.964,-0.951,-0.8857,-0.9159,-0.9387,-0.9387,-1.0012,-1.0389,-1.0389,-1.0636,-1.1124,-1.1765,-1.1815,-1.214,-1.2802,-1.2865,-1.2905,-1.2915,-1.3135,-1.3379,-1.3613,-1.3613,-1.3613,-1.3613,-1.3613,-1.3613,-1.3633,-1.3773,-1.3743,-1.3584,-1.334,-1.3096,-1.2905,-1.2905,-1.2905,-1.2905,-1.2905,-1.2905,-1.2905,-1.2905,-1.2905,-1.2905,-1.2905,-1.2905,-1.2905,-1.2905,-1.2905,-1.2905,-1.2905,-1.2905,-1.2905,-1.2905,-1.2905,-1.2905,-1.2905,-1.2905,-1.2905,-1.2905,-1.2905,-1.2905,-1.2905,-1.2905,-1.2905,-1.2905,-1.2905,-1.2905,-1.2905,-1.2905,-1.2905,-1.2905,-1.2905,-1.2905,-1.2905,-1.2905,-1.2715,-1.227,-1.1972,-1.1433,-1.0636,-1.009,-0.9788,-0.9788,-0.914,-0.9097,-0.9665,-0.9343,-0.9397,-0.6573,-0.7102,-0.7704,-0.8528,-0.8571,-0.8591,-0.9348,-0.9127,-0.8971,-0.9666,-0.9943,-1.0218,-1.0712,-1.0644,-1.044,-1.0115,-1.0346,-1.0415,-1.0115,-1.0636,-1.1015,-1.0813,-1.1149,-1.1049,-1.0167,-1.009,-0.9865,-0.9387,-0.9788,-1.009,-1.009,-1.0712,-1.1091,-1.1091,-1.1378,-1.1935,-1.2767,-1.2538,-1.2849,-1.3656,-1.3369,-1.3232,-1.3232,-1.3545,-1.3821,-1.4104,-1.4104,-1.4104,-1.4104,-1.4104,-1.4104,-1.4114,-1.4241,-1.4211,-1.4085,-1.3926,-1.3594,-1.3213,-1.3096,-1.3081,-1.3062,-1.2944,-1.2905,-1.2905,-1.2905,-1.2905,-1.2905,-1.2905,-1.2905,-1.2905,-1.2905,-1.2905,-1.2935,-1.3027,-1.2993,-1.2964,-1.3174,-1.3135,-1.3111,-1.3203,-1.3232,-1.3193,-1.3076,-1.3081,-1.3042,-1.2925,-1.2905,-1.2905,-1.2905,-1.2905,-1.2905,-1.2905,-1.2905,-1.2905,-1.2905,-1.2905,-1.2905,-1.2905,-1.2905,-1.2559,-1.1839,-1.1616,-1.099,-0.9814,-0.9614,-0.9614,-0.9788,-0.9453,-0.9737,-1.0632,-1.028,-1.0358,-0.6906,-0.7235,-0.7807,-0.9069,-0.8891,-0.8646,-0.9578,-0.9773,-0.9773,-0.9788,-1.0312,-1.0788,-1.0788,-1.0269,-1.0038,-1.0669,-1.0244,-1.0038,-1.0686,-1.1341,-1.1541,-1.0889,-1.1999,-1.228,-1.0897,-1.0771,-1.0762,-1.0737,-1.0762,-1.0771,-1.0771,-1.1416,-1.1765,-1.1765,-1.284,-1.3435,-1.3455,-1.3844,-1.4048,-1.4085,-1.4075,-1.4065,-1.4065,-1.4085,-1.4094,-1.4104,-1.4104,-1.4104,-1.4104,-1.4104,-1.4104,-1.4153,-1.46,-1.4502,-1.4153,-1.46,-1.4473,-1.4007,-1.3633,-1.3486,-1.3418,-1.3042,-1.2905,-1.2905,-1.2905,-1.2905,-1.2905,-1.2905,-1.2905,-1.2905,-1.2905,-1.2905,-1.3013,-1.3389,-1.3174,-1.3105,-1.389,-1.3753,-1.3613,-1.3987,-1.4065,-1.3938,-1.3555,-1.3486,-1.335,-1.2964,-1.2905,-1.2905,-1.2905,-1.2905,-1.2905,-1.2905,-1.2905,-1.2905,-1.2905,-1.2905,-1.2905,-1.2905,-1.2905,-1.2559,-1.1839,-1.1191,-1.0517,-0.9814,-0.9159,-0.9159,-0.9788,-1.0242,-1.0797,-1.1489,-1.2166,-1.2514,-0.7235,-0.8035,-0.898,-0.9843,-0.9684,-0.9654,-1.0864,-1.044,-1.0038,-1.0939,-1.1316,-1.1616,-1.2098,-1.1609,-1.1191,-1.1441,-1.1266,-1.1216,-1.1433,-1.1665,-1.1898,-1.2147,-1.1792,-1.1692,-1.2157,-1.1749,-1.1291,-1.0838,-1.1216,-1.1466,-1.1466,-1.169,-1.2149,-1.29,-1.2873,-1.3325,-1.4346,-1.4182,-1.425,-1.4561,-1.4241,-1.426,-1.4561,-1.4561,-1.4717,-1.4952,-1.4952,-1.4952,-1.4952,-1.4952,-1.4952,-1.4962,-1.5146,-1.5107,-1.4972,-1.5146,-1.5107,-1.4855,-1.4143,-1.3899,-1.387,-1.3734,-1.3685,-1.3685,-1.3685,-1.3516,-1.3301,-1.3301,-1.3096,-1.2905,-1.2905,-1.3111,-1.333,-1.3477,-1.3613,-1.3763,-1.4046,-1.3997,-1.3938,-1.4075,-1.4104,-1.4065,-1.3919,-1.3899,-1.3753,-1.3359,-1.3057,-1.2905,-1.2905,-1.2905,-1.2905,-1.2905,-1.2905,-1.3023,-1.3271,-1.3037,-1.3125,-1.3656,-1.2952,-1.2436,-1.2264,-1.178,-1.1344,-1.0957,-1.0976,-1.1312,-1.1978,-1.1707,-1.2028,-1.2896,-1.2702,-1.2693,-0.799,-0.8769,-0.9645,-1.0661,-1.0523,-1.044,-1.1541,-1.1141,-1.0762,-1.1616,-1.1996,-1.2261,-1.2476,-1.2129,-1.1789,-1.1789,-1.1789,-1.1898,-1.2163,-1.2187,-1.227,-1.2476,-1.2068,-1.2032,-1.2688,-1.2676,-1.2206,-1.1233,-1.1805,-1.207,-1.1798,-1.1908,-1.2455,-1.3471,-1.3228,-1.3626,-1.4775,-1.463,-1.4727,-1.501,-1.4727,-1.4708,-1.501,-1.501,-1.5156,-1.541,-1.541,-1.541,-1.541,-1.541,-1.541,-1.541,-1.541,-1.541,-1.541,-1.541,-1.541,-1.5312,-1.4582,-1.4338,-1.4309,-1.4163,-1.4104,-1.4104,-1.4104,-1.3919,-1.3675,-1.3545,-1.3418,-1.3301,-1.3145,-1.3418,-1.3769,-1.3926,-1.4026,-1.4192,-1.4494,-1.4445,-1.4387,-1.4533,-1.4562,-1.4513,-1.4367,-1.4211,-1.4016,-1.3743,-1.3496,-1.3271,-1.3125,-1.3232,-1.333,-1.333,-1.333,-1.3437,-1.3685,-1.3221,-1.3237,-1.4048,-1.3091,-1.244,-1.2298,-1.2054,-1.1566,-1.0864,-1.138,-1.1994,-1.2658,-1.2696,-1.315,-1.4006,-1.3742,-1.3676,-0.9067,-0.9466,-0.9887,-1.1428,-1.1316,-1.104,-1.169,-1.1839,-1.1814,-1.1839,-1.2403,-1.2691,-1.1996,-1.1864,-1.1864,-1.1864,-1.1864,-1.2104,-1.2798,-1.2881,-1.2608,-1.1922,-1.2793,-1.3195,-1.2611,-1.3482,-1.3492,-1.1981,-1.2546,-1.2662,-1.1963,-1.2188,-1.2735,-1.3549,-1.3902,-1.4321,-1.4842,-1.5215,-1.541,-1.541,-1.541,-1.541,-1.541,-1.541,-1.541,-1.541,-1.541,-1.541,-1.541,-1.541,-1.541,-1.541,-1.541,-1.541,-1.541,-1.541,-1.541,-1.5352,-1.4951,-1.4814,-1.4746,-1.4309,-1.4172,-1.4172,-1.4172,-1.4163,-1.4055,-1.3656,-1.3821,-1.4016,-1.3617,-1.3821,-1.4241,-1.4687,-1.4482,-1.4397,-1.5206,-1.5098,-1.4932,-1.5332,-1.541,-1.5283,-1.4893,-1.4453,-1.4143,-1.4143,-1.4143,-1.3987,-1.3594,-1.386,-1.4104,-1.4104,-1.4104,-1.4114,-1.4133,-1.3404,-1.3295,-1.4055,-1.3323,-1.261,-1.2011,-1.1964,-1.1334,-0.999,-1.0723,-1.1455,-1.2083,-1.3286,-1.4213,-1.4852,-1.5225,-1.541,-0.9315,-1.0286,-1.1294,-1.1688,-1.1665,-1.1724,-1.2461,-1.2187,-1.1972,-1.2501,-1.2774,-1.2847,-1.2642,-1.2608,-1.2608,-1.2608,-1.2608,-1.2691,-1.2881,-1.2427,-1.2212,-1.2584,-1.2379,-1.2516,-1.3186,-1.3755,-1.3741,-1.285,-1.3408,-1.3704,-1.3511,-1.3119,-1.3385,-1.4453,-1.4081,-1.4336,-1.5244,-1.5361,-1.541,-1.541,-1.541,-1.541,-1.541,-1.541,-1.541,-1.541,-1.541,-1.541,-1.541,-1.541,-1.541,-1.541,-1.541,-1.541,-1.541,-1.541,-1.541,-1.54,-1.5283,-1.5254,-1.5234,-1.5127,-1.5059,-1.5059,-1.5059,-1.4873,-1.46,-1.4492,-1.4307,-1.4085,-1.3977,-1.427,-1.4648,-1.4756,-1.4941,-1.5118,-1.5361,-1.5322,-1.5283,-1.5391,-1.541,-1.5381,-1.5264,-1.4902,-1.4619,-1.4619,-1.4619,-1.4463,-1.4007,-1.4036,-1.4104,-1.4104,-1.4104,-1.4241,-1.459,-1.4099,-1.3902,-1.416,-1.3148,-1.2734,-1.3153,-1.2873,-1.2978,-1.3502,-1.4012,-1.4342,-1.4515,-1.484,-1.5071,-1.5254,-1.5361,-1.541,-0.9891,-1.088,-1.1888,-1.2212,-1.2286,-1.2346,-1.2565,-1.2425,-1.2346,-1.2555,-1.2768,-1.2846,-1.2627,-1.2754,-1.2837,-1.2627,-1.2778,-1.2905,-1.2905,-1.2535,-1.2452,-1.2856,-1.2687,-1.2878,-1.3688,-1.4143,-1.4328,-1.411,-1.412,-1.3988,-1.3684,-1.3451,-1.3765,-1.4775,-1.4439,-1.4601,-1.5371,-1.541,-1.541,-1.541,-1.541,-1.541,-1.541,-1.541,-1.541,-1.541,-1.541,-1.541,-1.541,-1.541,-1.541,-1.541,-1.541,-1.541,-1.541,-1.541,-1.541,-1.541,-1.541,-1.541,-1.541,-1.541,-1.541,-1.541,-1.541,-1.5244,-1.5029,-1.4834,-1.4746,-1.4621,-1.4445,-1.4736,-1.5059,-1.5059,-1.5244,-1.541,-1.541,-1.541,-1.541,-1.541,-1.541,-1.541,-1.541,-1.5215,-1.5059,-1.5059,-1.5059,-1.4971,-1.4699,-1.4669,-1.4669,-1.4669,-1.4669,-1.4795,-1.5039,-1.4166,-1.3936,-1.4689,-1.3445,-1.3029,-1.383,-1.3322,-1.3142,-1.3491,-1.4057,-1.4362,-1.4362,-1.505,-1.541,-1.541,-1.541,-1.541,-1.0462,-1.1216,-1.1947,-1.2584,-1.2832,-1.2773,-1.2311,-1.252,-1.2666,-1.2227,-1.2441,-1.2588,-1.2194,-1.25,-1.2666,-1.2272,-1.2598,-1.2905,-1.2905,-1.2905,-1.2905,-1.2905,-1.3203,-1.3613,-1.4065,-1.4473,-1.4893,-1.5381,-1.4746,-1.409,-1.3451,-1.3688,-1.4175,-1.4873,-1.4873,-1.5039,-1.541,-1.541,-1.541,-1.541,-1.541,-1.541,-1.541,-1.541,-1.541,-1.541,-1.541,-1.541,-1.541,-1.541,-1.541,-1.541,-1.541,-1.541,-1.541,-1.541,-1.541,-1.541,-1.541,-1.541,-1.541,-1.541,-1.541,-1.541,-1.541,-1.541,-1.5342,-1.4971,-1.5127,-1.5322,-1.4961,-1.5137,-1.541,-1.541,-1.541,-1.541,-1.541,-1.541,-1.541,-1.541,-1.541,-1.541,-1.541,-1.541,-1.541,-1.541,-1.541,-1.541,-1.541,-1.541,-1.541,-1.541,-1.541,-1.541,-1.541,-1.4115,-1.3885,-1.5167,-1.3816,-1.3373,-1.4183,-1.3433,-1.2757,-1.2289,-1.297,-1.3312,-1.3312,-1.4717,-1.541,-1.541,-1.541,-1.541,-0.992,-1.0864,-1.1839,-1.1972,-1.2452,-1.2773,-1.2311,-1.2262,0.0,-1.179,-1.176,-1.1812,-1.1712,-1.2041,-1.2291,-1.2213,-1.2598,-1.2905,-1.2905,-1.2905,-1.2905,-1.2905,-1.2964,-1.3291,-1.4036,-1.4172,-1.4543,-1.5352,-1.5255,-1.5138,-1.5023,-1.5052,-1.5148,-1.5303,-1.5303,-1.5342,-1.541,-1.541,-1.541,-1.541,-1.541,-1.541,-1.541,-1.541,-1.541,-1.541,-1.541,-1.541,-1.541,-1.541,-1.541,-1.541,-1.541,-1.541,-1.541,-1.541,-1.541,-1.541,-1.541,-1.541,-1.541,-1.541,-1.541,-1.541,-1.541,-1.541,-1.54,-1.5322,-1.5352,-1.5391,-1.5322,-1.5352,-1.541,-1.541,-1.541,-1.541,-1.541,-1.541,-1.541,-1.541,-1.541,-1.541,-1.541,-1.541,-1.541,-1.541,-1.541,-1.541,-1.541,-1.541,-1.541,-1.541,-1.541,-1.541,-1.541,-1.5138,-1.4815,-1.4421,-1.3515,-1.3373,-1.4183,-1.3433,-1.3575,-1.4746,-1.4894,-1.4991,-1.4991,-1.5264,-1.541,-1.541,-1.541,-1.541,-1.0244,-1.104,-1.1898,-1.227,-1.2642,-1.2729,-1.2031,0.0,0.0,-1.1357,-1.1418,-1.1538,-1.1281,-1.1582,-1.1885,-1.1885,-1.2256,-1.2695,-1.3145,-1.3203,-1.3281,-1.3506,-1.3525,-1.3779,-1.4414,-1.4473,-1.4727,-1.5361,-1.541,-1.541,-1.541,-1.541,-1.541,-1.541,-1.541,-1.541,-1.541,-1.541,-1.541,-1.541,-1.541,-1.541,-1.541,-1.541,-1.541,-1.541,-1.541,-1.541,-1.541,-1.541,-1.541,-1.541,-1.541,-1.541,-1.541,-1.541,-1.541,-1.541,-1.541,-1.541,-1.541,-1.541,-1.541,-1.541,-1.541,-1.541,-1.541,-1.541,-1.541,-1.541,-1.541,-1.541,-1.541,-1.541,-1.541,-1.541,-1.541,-1.541,-1.541,-1.541,-1.541,-1.541,-1.541,-1.541,-1.541,-1.541,-1.541,-1.541,-1.541,-1.541,-1.541,-1.541,-1.541,-1.541,-1.541,-1.4628,-1.4332,-1.4805,-1.3666,-1.3554,-1.4776,-1.3644,-1.3545,-1.4746,-1.4362,-1.4362,-1.4776,-1.5196,-1.541,-1.541,-1.541,-1.541,-1.0389,-1.1091,-1.1774,-1.2486,-1.2774,-1.267,-1.1802,-1.1836,0.0,-1.0957,-1.1066,-1.1203,-1.084,-1.1154,-1.1477,-1.1587,-1.1943,-1.2506,-1.3389,-1.3506,-1.3662,-1.4055,-1.4104,-1.428,-1.4746,-1.4813,-1.4961,-1.5381,-1.541,-1.541,-1.541,-1.541,-1.541,-1.541,-1.541,-1.541,-1.541,-1.541,-1.541,-1.541,-1.541,-1.541,-1.541,-1.541,-1.541,-1.541,-1.541,-1.541,-1.541,-1.541,-1.541,-1.541,-1.541,-1.541,-1.541,-1.541,-1.541,-1.541,-1.541,-1.541,-1.541,-1.541,-1.541,-1.541,-1.541,-1.541,-1.541,-1.541,-1.541,-1.541,-1.541,-1.541,-1.541,-1.541,-1.541,-1.541,-1.541,-1.541,-1.541,-1.541,-1.541,-1.541,-1.541,-1.541,-1.541,-1.541,-1.541,-1.541,-1.541,-1.541,-1.541,-1.541,-1.541,-1.541,-1.541,-1.4243,-1.3965,-1.5079,-1.3965,-1.3816,-1.5079,-1.3756,-1.3455,-1.4451,-1.3674,-1.3636,-1.4451,-1.5079,-1.541,-1.541,-1.541,-1.541,-0.9718,-1.0389,-1.104,-1.1724,-1.2393,-1.267,-1.1802,0.0,-1.1398,-1.0537,-1.0391,-1.041,-1.0361,-1.0684,-1.1094,-1.1538,0.0,-1.2506,-1.3389,-1.3506,-1.3662,-1.4055,-1.4104,-1.428,-1.4746,-1.4813,-1.4961,-1.5381,-1.541,-1.541,-1.541,-1.541,-1.541,-1.541,-1.541,-1.541,-1.541,-1.541,-1.541,-1.541,-1.541,-1.541,-1.541,-1.541,-1.541,-1.541,-1.541,-1.541,-1.541,-1.541,-1.541,-1.541,-1.541,-1.541,-1.541,-1.541,-1.541,-1.541,-1.541,-1.541,-1.541,-1.541,-1.541,-1.541,-1.541,-1.541,-1.541,-1.541,-1.541,-1.541,-1.541,-1.541,-1.541,-1.541,-1.541,-1.541,-1.541,-1.541,-1.541,-1.541,-1.541,-1.541,-1.541,-1.541,-1.541,-1.541,-1.541,-1.541,-1.541,-1.541,-1.541,-1.541,-1.541,-1.541,-1.541,-1.5264,-1.4932,-1.4362,-1.4174,-1.4154,-1.4302,-1.3463,-1.3726,-1.5264,-1.451,-1.4481,-1.5294,-1.5352,-1.541,-1.541,-1.541,-1.541,-1.0712,-1.0889,-1.1074,-1.2172,-1.2344,-1.2119,-1.1713,-1.1606,-1.1361,-1.0479,-1.0303,-1.0303,-1.0303,-1.044,-1.0772,-1.1467,-1.1731,-1.2217,-1.335,-1.3506,-1.376,-1.4443,-1.4521,-1.4697,-1.5117,-1.5156,-1.5234,-1.54,-1.541,-1.541,-1.541,-1.541,-1.541,-1.541,-1.541,-1.541,-1.541,-1.541,-1.541,-1.541,-1.541,-1.541,-1.541,-1.541,-1.541,-1.541,-1.541,-1.541,-1.541,-1.541,-1.541,-1.541,-1.541,-1.541,-1.541,-1.541,-1.541,-1.541,-1.541,-1.541,-1.541,-1.541,-1.541,-1.541,-1.541,-1.541,-1.541,-1.541,-1.541,-1.541,-1.541,-1.541,-1.541,-1.541,-1.541,-1.541,-1.541,-1.541,-1.541,-1.541,-1.541,-1.541,-1.541,-1.541,-1.541,-1.541,-1.541,-1.541,-1.541,-1.541,-1.541,-1.541,-1.541,-1.541,-1.541,-1.4962,-1.4756,-1.4894,-1.4481,-1.4421,-1.4903,-1.4154,-1.4234,-1.5381,-1.4599,-1.4599,-1.541,-1.541,-1.541,-1.541,-1.541,-1.5557,-1.0889,-1.1015,-1.1099,-1.228,-1.2344,-1.2022,-1.1681,-1.1606,-1.1361,-1.0479,-1.0303,-1.0303,-1.0303,-1.04,-1.0733,0.0,-1.1692,-1.2168,-1.334,-1.3506,-1.3779,-1.4512,-1.459,-1.4756,-1.5186,-1.5342,-1.541,-1.541,-1.541,-1.541,-1.541,-1.541,-1.541,-1.541,-1.541,-1.541,-1.541,-1.541,-1.541,-1.541,-1.541,-1.541,-1.541,-1.541,-1.541,-1.541,-1.541,-1.541,-1.541,-1.541,-1.541,-1.541,-1.541,-1.541,-1.541,-1.541,-1.541,-1.541,-1.541,-1.541,-1.541,-1.541,-1.541,-1.541,-1.541,-1.541,-1.541,-1.541,-1.541,-1.541,-1.541,-1.541,-1.541,-1.541,-1.541,-1.541,-1.541,-1.541,-1.541,-1.541,-1.541,-1.541,-1.541,-1.541,-1.541,-1.541,-1.541,-1.541,-1.541,-1.541,-1.541,-1.541,-1.541,-1.541,-1.541,-1.4874,-1.4688,-1.5021,-1.4746,-1.4688,-1.5021,-1.451,-1.4569,-1.5381,-1.4392,-1.4362,-1.541,-1.5167,-1.5177,-1.541,-1.541,-1.5713,-0.9552,-1.0287,-1.0965,-1.1641,-1.2344,-1.267,-1.1802,-1.1606,-1.1361,-1.0479,-1.0303,-1.0303,-1.0303,-1.0625,-1.1045,-1.1506,-1.1934,-1.2506,-1.3389,-1.3506,-1.3636,-1.4065,-1.4114,-1.428,-1.4746,-1.5166,-1.541,-1.541,-1.541,-1.541,-1.541,-1.541,-1.541,-1.541,-1.541,-1.541,-1.541,-1.541,-1.541,-1.541,-1.541,-1.541,-1.541,-1.541,-1.541,-1.541,-1.541,-1.541,-1.541,-1.541,-1.541,-1.541,-1.541,-1.541,-1.541,-1.541,-1.541,-1.541,-1.541,-1.541,-1.541,-1.541,-1.541,-1.541,-1.541,-1.541,-1.541,-1.541,-1.541,-1.541,-1.541,-1.541,-1.541,-1.541,-1.541,-1.541,-1.541,-1.541,-1.541,-1.541,-1.541,-1.541,-1.541,-1.541,-1.541,-1.541,-1.541,-1.541,-1.541,-1.541,-1.541,-1.541,-1.541,-1.541,-1.541,-1.5381,-1.505,-1.4273,-1.4962,-1.5021,-1.4243,-1.4213,-1.4569,-1.5381,-1.3825,-1.3786,-1.541,-1.4599,-1.4628,-1.541,-1.541,-1.5849,-0.9716,-1.0124,-1.0513,-1.0991,-1.1425,-1.1635,-1.1223,-1.1369,-1.1361,-1.0479,-1.0303,-1.0303,-1.0303,-1.0625,-1.1055,-1.1506,-1.1943,0.0,-1.2998,-1.333,-1.3662,-1.4055,-1.4621,-1.5068,-1.5205,-1.5332,-1.541,-1.541,-1.541,-1.541,-1.541,-1.541,-1.541,-1.541,-1.541,-1.541,-1.541,-1.541,-1.541,-1.541,-1.541,-1.541,-1.541,-1.541,-1.541,-1.541,-1.541,-1.541,-1.541,-1.541,-1.541,-1.541,-1.541,-1.541,-1.541,-1.541,-1.541,-1.541,-1.541,-1.541,-1.541,-1.541,-1.541,-1.541,-1.541,-1.541,-1.541,-1.541,-1.541,-1.541,-1.541,-1.541,-1.541,-1.541,-1.541,-1.541,-1.541,-1.541,-1.541,-1.541,-1.541,-1.541,-1.541,-1.541,-1.541,-1.541,-1.541,-1.541,-1.541,-1.541,-1.541,-1.541,-1.541,-1.541,-1.541,-1.541,-1.5294,-1.505,-1.5264,-1.505,-1.4234,-1.4213,-1.4055,-1.3765,-1.3252,-1.3243,-1.3756,-1.4393,-1.5235,-1.6287,-1.5723,-1.6088,-0.9098,-0.9564,-1.0076,-1.0322,-1.0877,-1.1266,-1.096,-1.1123,-1.1144,-1.0449,-1.043,-1.0518,-1.0518,-1.1006,-1.1494,-1.1768,-1.2187,-1.2578,-1.2866,-1.3242,-1.3662,-1.4055,-1.4756,-1.5176,-1.5176,-1.5322,-1.541,-1.541,-1.541,-1.541,-1.541,-1.541,-1.541,-1.541,-1.541,-1.541,-1.541,-1.541,-1.541,-1.541,-1.541,-1.541,-1.541,-1.541,-1.541,-1.541,-1.541,-1.541,0.0,-1.541,-1.541,-1.541,-1.541,-1.541,-1.541,-1.541,-1.541,-1.541,-1.541,-1.541,-1.541,-1.541,-1.541,-1.541,-1.541,-1.541,-1.541,-1.541,-1.541,-1.541,-1.541,-1.541,-1.541,-1.541,-1.541,-1.541,-1.541,-1.541,-1.541,-1.541,-1.541,-1.541,-1.541,-1.541,-1.541,-1.541,-1.541,-1.541,-1.541,-1.5138,-1.4962,-1.4962,-1.4688,-1.4481,-1.4481,-1.4776,-1.4815,-1.451,-1.4481,-1.4273,-1.3765,-1.3765,-1.3515,-1.3009,-1.2696,-1.2704,-1.3009,-1.3893,-1.4786,-1.5647,-1.5646,-1.6085,0.0,-0.879,-0.9713,-0.9688,-1.0632,-1.1418,-1.0967,-1.0889,0.0,-1.0391,-1.0615,-1.0908,-1.0908,-1.1609,-1.2203,-1.2203,-1.2598,-1.2905,-1.2905,-1.3271,-1.3695,-1.4143,-1.458,-1.4834,-1.4834,-1.5186,-1.541,-1.541,-1.541,-1.541,-1.541,-1.541,-1.541,-1.541,-1.541,-1.541,-1.541,-1.541,-1.541,-1.541,-1.541,-1.541,-1.541,-1.541,-1.541,-1.541,-1.541,-1.541,-1.541,-1.541,-1.541,-1.541,-1.541,-1.541,-1.541,-1.541,-1.541,-1.541,-1.541,-1.541,-1.541,-1.541,-1.541,-1.541,-1.541,-1.541,-1.541,-1.541,-1.541,-1.541,-1.541,-1.541,-1.541,-1.541,-1.541,-1.541,-1.541,-1.541,-1.541,-1.541,-1.541,-1.541,-1.541,-1.541,-1.541,-1.541,-1.541,-1.541,-1.541,-1.4688,-1.4213,-1.4213,-1.3485,-1.2978,-1.2917,-1.3636,-1.3786,-1.3039,-1.3009,-1.2978,-1.2917,-1.2917,-1.2887,-1.2826,-1.2112,-1.2135,-1.2991,-1.3137,-1.3494,-1.4007,-1.5177,-1.5813,-0.7888,0.0,-0.9799,-0.9594,-1.0317,-1.0957,0.0,-1.0674,-1.0791,-1.0391,0.0,-1.0908,-1.0908,-1.1609,-1.2203,-1.2203,-1.2598,-1.2905,-1.2905,-1.3516,-1.4241,-1.4991,-1.5205,-1.5264,-1.5264,-1.5352,-1.541,-1.541,-1.541,-1.541,-1.541,-1.541,-1.541,-1.541,-1.541,-1.541,-1.541,-1.541,-1.541,-1.541,-1.541,-1.541,-1.541,-1.541,-1.541,-1.541,-1.541,-1.541,-1.541,-1.541,-1.541,-1.541,-1.541,-1.541,-1.541,-1.541,-1.541,-1.541,-1.541,-1.541,-1.541,-1.541,-1.541,-1.541,-1.541,-1.541,-1.541,-1.541,-1.541,-1.541,-1.541,-1.541,-1.541,-1.541,-1.541,-1.541,-1.541,-1.541,-1.541,-1.541,-1.541,-1.541,-1.541,-1.541,-1.541,-1.541,-1.541,-1.541,-1.541,-1.4688,-1.4213,-1.4213,-1.3485,-1.2757,-1.2143,-1.2818,-1.3191,-1.3009,-1.3009,-1.2734,-1.2112,-1.2081,-1.1779,-1.1178,-1.0989,-1.1564,-1.2904,-1.2011,-1.2691,-1.4872,-1.4234,-1.4836,-0.7815,-0.8744,-0.9724,-0.9769,-1.0345,-1.0829,-1.0625,0.0,0.0,0.0,0.0,-1.1222,-1.1222,-1.1924,-1.2529,-1.2529,-1.2725,-1.3042,-1.3398,-1.4023,-1.465,-1.5332,-1.541,-1.541,-1.541,-1.541,-1.541,-1.541,-1.541,-1.541,-1.541,-1.541,-1.541,-1.541,-1.541,-1.541,-1.541,-1.541,-1.541,-1.541,-1.541,-1.541,-1.541,-1.541,-1.541,-1.541,-1.541,-1.541,-1.541,-1.541,-1.541,-1.541,-1.541,-1.541,-1.541,-1.541,-1.541,-1.541,-1.541,-1.541,-1.541,-1.541,-1.541,-1.541,-1.541,-1.541,-1.541,-1.541,-1.541,-1.541,-1.541,-1.541,-1.541,-1.541,-1.541,-1.541,-1.541,-1.541,-1.541,-1.541,-1.5566,-1.5703,-1.5703,-1.5879,-1.5985,-1.5985,-1.5985,-1.5824,-1.5409,-1.4531,-1.381,-1.3551,-1.2664,-1.1976,-1.1639,-1.2034,-1.2165,-1.1895,-1.1911,-1.1694,-1.1257,-1.1257,-1.1045,-1.0624,-1.0593,-1.1134,-1.2199,-1.1539,-1.2116,-1.3875,-1.3594,-1.4135,-0.7875,-0.8681,-0.9652,-0.9944,-1.0458,-1.0908,-1.0908,0.0,0.0,0.0,0.0,0.0,-1.1682,-1.2347,-1.2905,-1.2905,-1.2905,-1.3218,-1.4075,-1.4492,-1.4863,-1.5352,-1.541,-1.541,-1.541,-1.541,-1.541,-1.541,-1.541,-1.541,-1.541,-1.541,-1.541,-1.541,-1.541,-1.541,-1.541,-1.541,-1.541,-1.541,-1.541,-1.541,-1.541,-1.541,-1.541,-1.541,-1.541,-1.541,-1.541,-1.541,-1.541,-1.541,-1.541,-1.541,-1.541,-1.541,-1.541,-1.541,-1.541,-1.541,-1.541,-1.541,-1.541,-1.541,-1.541,-1.541,-1.541,-1.541,-1.541,-1.541,-1.541,-1.541,-1.541,-1.541,-1.541,-1.541,-1.541,-1.541,-1.543,-1.5498,-1.584,-1.6114,-1.6183,-1.6484,-1.6697,-1.6697,-1.6697,-1.6392,-1.562,-1.4452,-1.3486,-1.2978,-1.1805,-1.1156,-1.1369,-1.1389,-1.1216,-1.0754,-1.068,-1.064,-1.0593,-1.0633,-1.064,-1.0593,-1.0593,-1.0854,-1.1329,-1.1369,-1.1774,-1.2451,-1.3324,-1.3781,-0.8477,-0.939,-0.9944,-0.9661,-1.0251,-1.0908,-1.0908,0.0,0.0,0.0,0.0,0.0,0.0,-1.2539,-1.2905,-1.2905,-1.2905,-1.3326,-1.4512,-1.4424,-1.4494,-1.5284,-1.541,-1.541,-1.541,-1.541,-1.541,-1.541,-1.541,-1.541,-1.541,-1.541,-1.541,-1.541,-1.541,-1.541,-1.541,-1.541,-1.541,-1.541,-1.541,-1.541,-1.541,-1.541,-1.541,-1.541,-1.541,-1.541,-1.541,-1.541,-1.541,-1.541,-1.541,-1.541,-1.541,-1.541,-1.541,-1.541,-1.541,-1.541,-1.541,-1.541,-1.541,-1.541,-1.541,-1.541,-1.541,-1.541,-1.541,-1.541,-1.541,-1.541,-1.541,-1.541,-1.541,-1.541,-1.541,-1.541,-1.5518,-1.5919,-1.6046,-1.6212,-1.6562,-1.6658,-1.6697,-1.6697,-1.6697,-1.6665,-1.6497,-1.505,-1.3991,-1.3884,-1.2352,-1.1342,-1.1389,-1.1389,-1.1349,-1.1262,-1.1062,-1.0847,-1.06,-1.0827,-1.0847,-1.0593,-1.0593,-1.076,-1.1062,-1.1309,-1.2006,-1.3166,-1.3546,-1.4171,-0.8405,-0.9374,-1.0144,-0.9887,-1.0712,-1.1599,-1.1599,-1.1436,0.0,0.0,0.0,0.0,0.0,-1.2588,-1.2983,-1.3184,-1.3213,-1.3506,-1.4316,-1.4231,-1.425,-1.465,-1.4932,-1.5078,-1.5078,-1.5283,-1.5312,-1.5088,-1.5283,-1.5312,-1.5088,-1.5283,-1.541,-1.541,-1.541,-1.541,-1.541,-1.541,-1.541,-1.541,-1.541,-1.541,-1.541,-1.541,-1.541,-1.541,-1.541,-1.541,-1.541,-1.541,-1.541,-1.541,-1.541,-1.541,-1.541,-1.541,-1.541,-1.541,-1.541,-1.541,-1.541,-1.541,-1.541,-1.541,-1.541,-1.541,-1.541,-1.541,-1.541,-1.541,-1.541,-1.541,-1.541,-1.541,-1.541,-1.541,-1.541,-1.541,-1.5469,-1.5674,-1.6094,-1.6494,-1.6668,-1.7087,-1.7389,-1.7389,-1.7389,-1.7049,-1.601,-1.5035,-1.4106,-1.3232,-1.2242,-1.173,-1.1884,-1.1897,-1.1764,-1.1409,-1.1262,-1.1169,-1.1035,-1.1002,-1.0929,-1.0827,-1.0827,-1.0935,-1.1229,-1.1523,-1.2058,-1.2748,-1.2889,-1.3448,-0.8323,-0.9236,-1.0164,-1.0398,0.0,-1.1905,-1.196,-1.1785,-1.1611,0.0,0.0,0.0,-1.2359,-1.2656,-1.3042,-1.3437,-1.3428,-1.3545,-1.4036,-1.4026,-1.3997,-1.4094,-1.4434,-1.4678,-1.4803,-1.498,-1.5019,-1.4805,-1.5078,-1.5127,-1.4833,-1.5186,-1.541,-1.541,-1.541,-1.541,-1.541,-1.541,-1.541,-1.541,-1.541,-1.541,-1.541,-1.541,-1.541,-1.541,-1.541,-1.541,-1.541,-1.541,-1.541,-1.541,-1.541,-1.541,-1.541,-1.541,-1.541,-1.541,-1.541,-1.541,-1.541,-1.541,-1.541,-1.541,-1.541,-1.541,-1.541,-1.541,-1.541,-1.541,-1.541,-1.541,-1.541,-1.541,-1.541,-1.541,-1.541,-1.541,-1.5439,-1.5537,-1.6161,-1.6726,-1.6833,-1.751,-1.8008,-1.8008,-1.8008,-1.7476,-1.6053,-1.5237,-1.4361,-1.3099,-1.2387,-1.2094,-1.2285,-1.2305,-1.2111,-1.1622,-1.1535,-1.1462,-1.1395,-1.1283,-1.1162,-1.1096,-1.1096,-1.1202,-1.1389,-1.1724,-1.2128,-1.2526,-1.2595,-1.3025,-0.8595,-0.925,-0.987,-1.117,-1.1229,-1.1041,-1.1237,-1.145,0.0,-1.1749,-1.2352,-1.2856,-1.2856,-1.2886,-1.3042,-1.3437,-1.3184,-1.3213,-1.3997,-1.3773,-1.3665,-1.4065,-1.4133,-1.4309,-1.4774,-1.4416,-1.4358,-1.4784,-1.4842,-1.4814,-1.4813,-1.5186,-1.541,-1.541,-1.541,-1.541,-1.541,-1.541,-1.541,-1.541,-1.541,-1.541,-1.541,-1.541,-1.541,-1.541,-1.541,-1.541,-1.541,-1.541,-1.541,-1.541,-1.541,-1.541,-1.541,-1.541,-1.541,-1.541,-1.541,-1.541,-1.541,-1.541,-1.541,-1.541,-1.541,-1.541,-1.541,-1.541,-1.541,-1.541,-1.541,-1.541,-1.541,-1.541,-1.541,-1.541,-1.541,-1.541,-1.5527,-1.5968,-1.6406,-1.6833,-1.7266,-1.7715,-1.8008,-1.8008,-1.8008,-1.794,-1.7837,-1.6271,-1.513,-1.5013,-1.3361,-1.2278,-1.2305,-1.2305,-1.2285,-1.2238,-1.1984,-1.171,-1.1402,-1.167,-1.1677,-1.1369,-1.1362,-1.1369,-1.1389,-1.1724,-1.2367,-1.3234,-1.346,-1.3637,-0.8704,-0.8977,-0.9381,-1.1142,-1.1144,0.0,0.0,-1.1832,-1.2296,-1.1883,-1.2403,-1.2905,-1.2905,-1.2905,-1.3042,-1.3437,-1.3154,-1.3076,-1.3662,-1.3379,-1.3174,-1.334,-1.3558,-1.3809,-1.3975,-1.4046,-1.4065,-1.4004,-1.4482,-1.4668,-1.4367,-1.5011,-1.541,-1.541,-1.541,-1.541,-1.541,-1.541,-1.541,-1.541,-1.541,-1.541,-1.541,-1.541,-1.541,-1.541,-1.541,-1.541,-1.541,-1.541,-1.541,-1.541,-1.541,-1.541,-1.541,-1.541,-1.541,-1.541,-1.541,-1.541,-1.541,-1.541,-1.541,-1.541,-1.541,-1.541,-1.541,-1.541,-1.5605,-1.5782,-1.5488,-1.541,-1.5478,-1.5782,-1.585,-1.585,-1.585,-1.6035,-1.6201,-1.6114,-1.6641,-1.7187,-1.7353,-1.7734,-1.8008,-1.8008,-1.8008,-1.7794,-1.7207,-1.6498,-1.5614,-1.4414,-1.3091,-1.2305,-1.2305,-1.2305,-1.2305,-1.2305,-1.2198,-1.2091,-1.1977,-1.1904,-1.1852,-1.1703,-1.1703,-1.1703,-1.1703,-1.1997,-1.2319,-1.2675,-1.2786,-1.3135,-0.8548,-0.8711,-0.9059,-1.0719,0.0,0.0,-1.1147,-1.1973,-1.2503,-1.192,-1.2403,-1.2905,-1.2905,-1.2905,-1.3003,-1.3262,-1.3066,-1.3013,-1.3271,-1.3066,-1.2905,-1.2905,-1.3135,-1.3359,-1.3496,-1.3627,-1.3704,-1.3685,-1.4248,-1.4502,-1.4319,-1.5019,-1.541,-1.541,-1.541,-1.541,-1.541,-1.541,-1.541,-1.541,-1.541,-1.541,-1.541,-1.541,-1.541,-1.541,-1.541,-1.541,-1.541,-1.541,-1.541,-1.541,-1.541,-1.541,-1.541,-1.541,-1.541,-1.541,-1.541,-1.541,-1.541,-1.541,-1.541,-1.541,-1.541,-1.541,-1.541,-1.541,-1.5625,-1.5821,-1.5488,-1.5586,-1.5898,-1.6201,-1.6279,-1.6279,-1.6279,-1.6514,-1.6609,-1.6338,-1.6875,-1.7383,-1.7383,-1.748,-1.7647,-1.7974,-1.7759,-1.7432,-1.7104,-1.6775,-1.5965,-1.4343,-1.331,-1.2732,-1.2732,-1.2482,-1.2305,-1.2305,-1.2305,-1.2305,-1.2305,-1.2111,-1.204,-1.204,-1.204,-1.204,-1.204,-1.2204,-1.2305,-1.2305,-1.2305,-1.2622,-0.8077,-0.8504,-0.9024,-0.9887,0.0,0.0,-1.1273,-1.1733,-1.2124,-1.1865,-1.2393,-1.2905,-1.2905,-1.2905,-1.2905,-1.2905,-1.2905,-1.2905,-1.2905,-1.2905,-1.2905,-1.2905,-1.2905,-1.3071,-1.3467,-1.3125,-1.3232,-1.4036,-1.4104,-1.4299,-1.4756,-1.5186,-1.541,-1.541,-1.541,-1.541,-1.541,-1.541,-1.541,-1.541,-1.541,-1.541,-1.541,-1.541,-1.541,-1.541,-1.541,-1.541,-1.541,-1.541,-1.541,-1.541,-1.541,-1.541,-1.541,-1.541,-1.541,-1.541,-1.541,-1.541,-1.541,-1.541,-1.541,-1.541,-1.541,-1.541,-1.541,-1.541,-1.5391,-1.542,-1.542,-1.6044,-1.6707,-1.6697,-1.6697,-1.6697,-1.6697,-1.6707,-1.6716,-1.6707,-1.7058,-1.7393,-1.7383,-1.6945,-1.6888,-1.7828,-1.7173,-1.6922,-1.7862,-1.7139,-1.621,-1.5269,-1.4279,-1.3673,-1.3673,-1.2842,-1.2305,-1.2305,-1.2305,-1.2305,-1.2305,-1.2305,-1.2305,-1.2305,-1.2305,-1.2305,-1.2305,-1.2305,-1.2305,-1.2305,-1.2305,-1.2305,-0.8727,-0.9161,-0.983,-1.0892,0.0,0.0,0.0,-1.2556,0.0,-1.2589,-1.2749,-1.2905,-1.2905,-1.2905,-1.2905,-1.2905,-1.2905,-1.2905,-1.2905,-1.2905,-1.2905,-1.2905,-1.2905,-1.2954,-1.3057,-1.2983,-1.3105,-1.3652,-1.3938,-1.4299,-1.4756,-1.5186,-1.541,-1.541,-1.541,-1.541,-1.541,-1.541,-1.541,-1.541,-1.541,-1.541,-1.541,-1.541,-1.541,-1.541,-1.541,-1.541,-1.541,-1.541,-1.541,-1.541,-1.541,-1.541,-1.541,-1.541,-1.541,-1.541,-1.541,-1.541,-1.541,-1.541,-1.541,-1.541,-1.541,-1.541,-1.541,-1.541,-1.5635,-1.5899,-1.5899,-1.6523,-1.7109,-1.6775,-1.6697,-1.6697,-1.6697,-1.7174,-1.7243,-1.5965,-1.6311,-1.6645,-1.5956,-1.573,-1.5728,-1.5983,-1.5799,-1.5728,-1.5983,-1.5163,-1.445,-1.4171,-1.3273,-1.2732,-1.2732,-1.2445,-1.2305,-1.2305,-1.2305,-1.2305,-1.2305,-1.2305,-1.2305,-1.2305,-1.2305,-1.2305,-1.2305,-1.2305,-1.2305,-1.2305,-1.2305,-1.2305,-0.911,-0.9583,0.0,-1.1274,-1.1747,-1.2113,-1.2759,-1.2905,-1.2905,-1.2905,-1.2905,-1.2905,-1.2905,-1.2905,-1.2905,-1.2905,-1.2905,-1.2905,-1.2905,-1.2905,-1.2905,-1.2905,-1.2905,-1.2905,-1.2905,-1.2905,-1.3125,-1.3685,-1.3968,-1.4367,-1.5,-1.5273,-1.541,-1.541,-1.541,-1.541,-1.541,-1.541,-1.541,-1.541,-1.541,-1.541,-1.541,-1.541,-1.541,-1.541,-1.541,-1.541,-1.541,-1.541,-1.541,-1.541,-1.541,-1.541,-1.541,-1.541,-1.541,-1.541,-1.541,-1.541,-1.541,-1.541,-1.541,-1.541,-1.541,-1.541,-1.541,-1.541,-1.5596,-1.5831,-1.5831,-1.6201,-1.667,-1.6934,-1.7087,-1.709,-1.6573,-1.6992,-1.6986,-1.5373,-1.5582,-1.586,-1.5305,-1.4879,-1.4736,-1.5128,-1.5199,-1.5199,-1.5199,-1.4665,-1.4314,-1.4314,-1.3419,-1.2842,-1.2842,-1.2519,-1.2305,-1.2305,-1.2305,-1.2305,-1.2305,-1.2305,-1.2305,-1.2305,-1.2305,-1.2305,-1.2305,-1.2305,-1.2305,-1.2305,-1.2305,-1.2305,-0.9349,-0.9897,-1.045,-1.1265,-1.1855,-1.2369,-1.2793,-1.2905,-1.2905,-1.2905,-1.2905,-1.2905,-1.2905,-1.2905,-1.2905,-1.2905,-1.2905,-1.2905,-1.2905,-1.2905,-1.2905,-1.2905,-1.2905,-1.2905,-1.2905,-1.2905,-1.3213,-1.3987,-1.4085,-1.4445,-1.5225,-1.5371,-1.5391,-1.5352,-1.5391,-1.541,-1.541,-1.541,-1.541,-1.541,-1.541,-1.541,-1.541,-1.541,-1.541,-1.541,-1.541,-1.541,-1.541,-1.541,-1.541,-1.541,-1.541,-1.541,-1.541,-1.541,-1.541,-1.541,-1.541,-1.541,-1.541,-1.541,-1.541,-1.541,-1.541,-1.541,-1.541,-1.541,-1.541,-1.541,-1.541,-1.5439,-1.5771,-1.6982,-1.7512,-1.7427,-1.6266,-1.6251,-1.6095,-1.4787,-1.4846,-1.5021,-1.495,-1.4171,-1.3882,-1.4807,-1.495,-1.495,-1.495,-1.495,-1.495,-1.495,-1.4135,-1.3564,-1.3564,-1.2806,-1.2305,-1.2305,-1.2305,-1.2305,-1.2305,-1.2305,-1.2305,-1.2305,-1.2305,-1.2305,-1.2305,-1.2305,-1.2305,-1.2305,-1.2305,-1.2305,-0.9983,-1.0696,0.0,-1.1897,-1.2386,-1.2788,-1.2886,-1.2905,-1.2905,-1.2905,-1.2905,-1.2905,-1.2905,-1.2905,-1.2905,-1.2905,-1.2905,-1.2905,-1.2905,-1.2905,-1.2905,-1.2905,-1.2905,-1.2905,-1.2905,-1.2905,-1.3096,-1.3578,-1.3919,-1.4192,-1.4377,-1.502,-1.5264,-1.4932,-1.5244,-1.541,-1.541,-1.541,-1.541,-1.541,-1.541,-1.541,-1.541,-1.541,-1.541,-1.541,-1.541,-1.541,-1.541,-1.541,-1.541,-1.541,-1.541,-1.541,-1.541,-1.541,-1.541,-1.541,-1.541,-1.541,-1.541,-1.541,-1.541,-1.541,-1.541,-1.541,-1.541,-1.541,-1.541,-1.541,-1.541,-1.5664,-1.6026,-1.631,-1.6113,-1.5825,-1.553,-1.5487,-1.5091,-1.3696,-1.377,-1.3774,-1.3055,-1.2732,-1.2659,-1.2879,-1.2908,-1.2908,-1.2908,-1.2908,-1.2908,-1.2908,-1.2732,-1.2592,-1.2592,-1.2409,-1.2305,-1.2305,-1.2305,-1.2305,-1.2305,-1.2305,-1.2305,-1.2305,-1.2305,-1.2305,-1.2305,-1.2305,-1.2305,-1.2305,-1.2305,-1.2305,-1.0352,0.0,0.0,-1.2383,0.0,-1.2905,-1.2905,-1.2905,-1.2905,-1.2905,-1.2905,-1.2905,-1.2905,-1.2905,-1.2905,-1.2905,-1.2905,-1.2905,-1.2905,-1.2905,-1.2905,-1.2905,-1.2905,-1.2905,-1.2905,-1.2905,-1.3057,-1.3477,-1.3685,-1.3899,-1.4094,-1.4756,-1.4912,-1.4492,-1.4893,-1.5107,-1.5107,-1.5107,-1.5215,-1.541,-1.541,-1.541,-1.541,-1.541,-1.541,-1.541,-1.541,-1.541,-1.541,-1.541,-1.541,-1.541,-1.541,-1.541,-1.541,-1.541,-1.541,-1.541,-1.541,-1.541,-1.541,-1.541,-1.541,-1.541,-1.541,-1.541,-1.541,-1.541,-1.541,-1.541,-1.541,-1.5311,-1.5194,-1.5194,-1.539,-1.5447,-1.4837,-1.4617,-1.4106,-1.2763,-1.2813,-1.2879,-1.2372,-1.2305,-1.2305,-1.2305,-1.2305,-1.2305,-1.2305,-1.2305,-1.2305,-1.2305,-1.2305,-1.2305,-1.2305,-1.2305,-1.2305,-1.2305,-1.2305,-1.2305,-1.2305,-1.2305,-1.2305,-1.2305,-1.2305,-1.2305,-1.2305,-1.2305,-1.2305,-1.2305,-1.2305,-1.2305,-1.0469,0.0,-1.1888,-1.27,-1.2905,-1.2905,-1.2905,-1.2905,-1.2905,-1.2905,-1.2905,-1.2905,-1.2905,-1.2905,-1.2905,-1.2905,-1.2905,-1.2905,-1.2905,-1.2905,-1.2905,-1.2905,-1.2905,-1.2905,-1.2905,-1.2905,-1.3052,-1.3369,-1.3467,-1.3597,-1.387,-1.4394,-1.4473,-1.4007,-1.4453,-1.4678,-1.4678,-1.4678,-1.4853,-1.5195,-1.5264,-1.5342,-1.541,-1.541,-1.541,-1.541,-1.541,-1.541,-1.541,-1.541,-1.541,-1.541,-1.541,-1.541,-1.541,-1.541,-1.541,-1.541,-1.541,-1.541,-1.541,-1.541,-1.541,-1.541,-1.541,-1.541,-1.541,-1.541,-1.5294,-1.5196,-1.5196,-1.4599,-1.3995,-1.3995,-1.4672,-1.5075,-1.4082,-1.3658,-1.3165,-1.2163,-1.2138,-1.2305,-1.2305,-1.2305,-1.2305,-1.2305,-1.2305,-1.2305,-1.2305,-1.2305,-1.2305,-1.2305,-1.2305,-1.2305,-1.2305,-1.2305,-1.2305,-1.2305,-1.2305,-1.2305,-1.2305,-1.2305,-1.2305,-1.2305,-1.2305,-1.2305,-1.2305,-1.2305,-1.2305,-1.2305,-1.2305,-1.2305,-1.0136,0.0,-1.2256,0.0,-1.2905,-1.2905,-1.2905,-1.2905,-1.2905,-1.2905,-1.2905,-1.2905,-1.2905,-1.2905,-1.2905,-1.2905,-1.2905,-1.2905,-1.2905,-1.2905,-1.2905,-1.2905,-1.2905,-1.2905,-1.2905,-1.2905,-1.2925,-1.2983,-1.3301,-1.3369,-1.3091,-1.3773,-1.4007,-1.3578,-1.3977,-1.4192,-1.4192,-1.4192,-1.4221,-1.428,-1.4687,-1.5059,-1.541,-1.541,-1.541,-1.541,-1.541,-1.541,-1.541,-1.541,-1.541,-1.541,-1.541,-1.541,-1.541,-1.541,-1.541,-1.541,-1.541,-1.541,-1.541,-1.541,-1.541,-1.541,-1.541,-1.541,-1.541,-1.541,-1.4903,-1.4362,-1.4362,-1.3756,-1.3161,-1.3161,-1.3156,-1.3096,-1.2923,-1.2699,-1.2432,-1.2288,-1.2278,-1.2305,-1.2305,-1.2305,-1.2305,-1.2305,-1.2305,-1.2305,-1.2305,-1.2305,-1.2305,-1.2305,-1.2305,-1.2305,-1.2305,-1.2305,-1.2305,-1.2305,-1.2305,-1.2305,-1.2305,-1.2305,-1.2305,-1.2305,-1.2305,-1.2305,-1.2305,-1.2305,-1.2305,-1.2305,-1.2305,-1.2305,-1.0655,-1.1602,-1.2311,0.0,-1.2905,-1.2905,-1.2905,-1.2905,-1.2905,-1.2905,-1.2905,-1.2905,-1.2905,-1.2905,-1.2905,-1.2905,-1.2905,-1.2905,-1.2905,-1.2905,-1.2905,-1.2905,-1.2905,-1.2905,-1.2905,-1.2905,-1.2905,-1.2905,-1.3047,-1.3101,-1.2915,-1.3457,-1.3594,-1.3174,-1.3539,-1.3753,-1.3753,-1.3753,-1.3997,-1.4502,-1.4697,-1.501,-1.541,-1.541,-1.541,-1.541,-1.541,-1.541,-1.541,-1.541,-1.541,-1.541,-1.541,-1.541,-1.541,-1.541,-1.541,-1.541,-1.541,-1.541,-1.541,-1.541,-1.541,-1.541,-1.541,-1.5079,-1.4726,-1.4726,-1.4154,-1.3524,-1.3524,-1.3057,-1.2547,-1.2547,-1.2399,-1.2263,-1.2263,-1.2291,-1.2305,-1.2305,-1.2305,-1.2305,-1.2305,-1.2305,-1.2305,-1.2305,-1.2305,-1.2305,-1.2305,-1.2305,-1.2305,-1.2305,-1.2305,-1.2305,-1.2305,-1.2305,-1.2305,-1.2305,-1.2305,-1.2305,-1.2305,-1.2305,-1.2305,-1.2305,-1.2305,-1.2305,-1.2305,-1.2305,-1.2305,-1.2305,-1.2305,-1.2305,0.0,0.0,-1.2168,-1.2607,-1.2803,-1.2905,-1.2905,-1.2905,-1.2905,-1.2905,-1.2905,-1.2905,-1.2905,-1.2905,-1.2905,-1.2905,-1.2905,-1.2905,-1.2905,-1.2905,-1.2905,-1.2905,-1.2905,-1.2905,-1.2905,-1.2905,-1.2905,-1.2905,-1.2905,-1.2905,-1.2905,-1.3174,-1.3203,-1.2915,-1.3184,-1.335,-1.335,-1.335,-1.3779,-1.4619,-1.4619,-1.4893,-1.541,-1.541,-1.541,-1.541,-1.541,-1.541,-1.541,-1.541,-1.541,-1.541,-1.541,-1.541,-1.541,-1.541,-1.541,-1.541,-1.541,-1.541,-1.541,-1.541,-1.5264,-1.5108,-1.5108,-1.454,-1.3906,-1.3906,-1.3334,-1.2704,-1.2704,-1.2303,-1.1909,-1.1909,-1.1901,-1.1926,-1.2,-1.2151,-1.2305,-1.2305,-1.2305,-1.2305,-1.2305,-1.2305,-1.2305,-1.2305,-1.2305,-1.2305,-1.2305,-1.2305,-1.2305,-1.2305,-1.2305,-1.2305,-1.2305,-1.2305,-1.2305,-1.2305,-1.2305,-1.2305,-1.2305,-1.2305,-1.2305,-1.2305,-1.2305,-1.2305,-1.2305,-1.2305,-1.2305,-1.2305,-1.2305,-1.2305,0.0,-1.0978,0.0,-1.2135,-1.2578,-1.2905,-1.2905,-1.2905,-1.2905,-1.2905,-1.2905,-1.2905,-1.2905,-1.2905,-1.2905,-1.2905,-1.2905,-1.2905,-1.2905,-1.2905,-1.2905,-1.2905,-1.2905,-1.2905,-1.2905,-1.2905,-1.2905,-1.2905,-1.2905,-1.2905,-1.2905,-1.2925,-1.2925,-1.2905,-1.2925,-1.2935,-1.2935,-1.2935,-1.334,-1.4143,-1.4143,-1.4582,-1.541,-1.541,-1.541,-1.541,-1.541,-1.541,-1.541,-1.541,-1.541,-1.541,-1.541,-1.541,-1.541,-1.541,-1.541,-1.541,-1.541,-1.541,-1.541,-1.541,-1.4874,-1.4273,-1.4273,-1.3696,-1.307,-1.307,-1.2481,-1.1857,-1.1857,-1.1454,-1.1055,-1.1055,-1.1471,-1.198,-1.2218,-1.2291,-1.2305,-1.2305,-1.2305,-1.2305,-1.2305,-1.2305,-1.2305,-1.2305,-1.2305,-1.2305,-1.2305,-1.2305,-1.2305,-1.2305,-1.2305,-1.2305,-1.2305,-1.2305,-1.2305,-1.2305,-1.2305,-1.2305,-1.2305,-1.2305,-1.2305,-1.2305,-1.2305,-1.2305,-1.2305,-1.2305,-1.2305,-1.2305,-1.2305,-1.2305,0.0,0.0,0.0,-1.2028,-1.233,-1.2539,-1.2837,-1.2905,-1.2905,-1.2905,-1.2905,-1.2905,-1.2905,-1.2905,-1.2905,-1.2905,-1.2905,-1.2905,-1.2905,-1.2905,-1.2905,-1.2905,-1.2905,-1.2905,-1.2905,-1.2905,-1.2905,-1.2905,-1.2905,-1.2905,-1.2905,-1.2905,-1.2905,-1.2905,-1.2905,-1.2905,-1.2905,-1.2905,-1.3164,-1.3714,-1.3977,-1.4416,-1.5019,-1.5283,-1.541,-1.541,-1.541,-1.541,-1.541,-1.541,-1.541,-1.541,-1.541,-1.541,-1.541,-1.541,-1.541,-1.541,-1.541,-1.505,-1.4628,-1.4628,-1.4094,-1.3433,-1.3433,-1.2879,-1.2235,-1.2235,-1.1655,-1.1021,-1.1021,-1.113,-1.1363,-1.1744,-1.1991,-1.2178,-1.2278,-1.2305,-1.2305,-1.2305,-1.2305,-1.2305,-1.2305,-1.2305,-1.2305,-1.2305,-1.2305,-1.2305,-1.2305,-1.2305,-1.2305,-1.2305,-1.2305,-1.2305,-1.2305,-1.2305,-1.2305,-1.2305,-1.2305,-1.2305,-1.2305,-1.2305,-1.2305,-1.2305,-1.2305,-1.2305,-1.2305,-1.2305,-1.2305,-1.2305,-1.2305,-1.2305,-0.9697,0.0,0.0,-1.1816,-1.2002,-1.2158,-1.2768,-1.2773,-1.2705,-1.2876,-1.2905,-1.2905,-1.2905,-1.2905,-1.2905,-1.2905,-1.2905,-1.2905,-1.2905,-1.2905,-1.2905,-1.2905,-1.2905,-1.2905,-1.2905,-1.2905,-1.2905,-1.2905,-1.2905,-1.2905,-1.2905,-1.2905,-1.2905,-1.2905,-1.2905,-1.2905,-1.2905,-1.2905,-1.3096,-1.3516,-1.3763,-1.4228,-1.4795,-1.5078,-1.5283,-1.541,-1.541,-1.541,-1.541,-1.541,-1.541,-1.541,-1.541,-1.541,-1.5381,-1.5108,-1.4991,-1.4962,-1.4688,-1.4243,-1.3786,-1.3786,-1.3243,-1.2604,-1.2604,-1.2058,-1.1435,-1.1505,-1.109,-1.0613,-1.0713,-1.1062,-1.1515,-1.2037,-1.2231,-1.2305,-1.2305,-1.2305,-1.2305,-1.2305,-1.2305,-1.2305,-1.2305,-1.2305,-1.2305,-1.2305,-1.2305,-1.2305,-1.2305,-1.2305,-1.2305,-1.2305,-1.2305,-1.2305,-1.2305,-1.2305,-1.2305,-1.2305,-1.2305,-1.2305,-1.2305,-1.2305,-1.2305,-1.2305,-1.2305,-1.2305,-1.2305,-1.2305,-1.2305,-1.2305,-1.2305,-1.2305,0.0,0.0,0.0,-1.1447,-1.1587,-1.1822,-1.269,-1.2529,-1.2311,-1.2807,-1.2895,-1.2886,-1.2905,-1.2905,-1.2905,-1.2905,-1.2905,-1.2905,-1.2905,-1.2905,-1.2905,-1.2905,-1.2905,-1.2905,-1.2905,-1.2905,-1.2905,-1.2905,-1.2905,-1.2905,-1.2905,-1.2905,-1.2905,-1.2905,-1.2905,-1.2905,-1.2905,-1.2905,-1.3111,-1.3486,-1.3496,-1.3945,-1.4746,-1.4803,-1.501,-1.5391,-1.5371,-1.5381,-1.5381,-1.5381,-1.5381,-1.5352,-1.5352,-1.5352,-1.5225,-1.4451,-1.4154,-1.4055,-1.3274,-1.2978,-1.2978,-1.2978,-1.242,-1.1772,-1.1772,-1.1226,-1.0646,-1.0902,-1.0807,-1.066,-1.0915,-1.1209,-1.1462,-1.1832,-1.2084,-1.2291,-1.2298,-1.2305,-1.2305,-1.2305,-1.2305,-1.2305,-1.2305,-1.2305,-1.2305,-1.2305,-1.2305,-1.2305,-1.2305,-1.2305,-1.2305,-1.2305,-1.2305,-1.2305,-1.2305,-1.2305,-1.2305,-1.2305,-1.2305,-1.2305,-1.2305,-1.2305,-1.2305,-1.2305,-1.2305,-1.2305,-1.2305,-1.2305,-1.2305,-1.2305,-1.2305,-1.2305,-0.9004,0.0,0.0,0.0,0.0,0.0,-1.2184,-1.207,-1.1985,-1.2749,-1.2627,-1.251,-1.2846,-1.2905,-1.2905,-1.2905,-1.2905,-1.2905,-1.2905,-1.2905,-1.2905,-1.2905,-1.2905,-1.2905,-1.2905,-1.2905,-1.2905,-1.2905,-1.2905,-1.2905,-1.2905,-1.2905,-1.2905,-1.2905,-1.2905,-1.2905,-1.2905,-1.2905,-1.2964,-1.3057,-1.3359,-1.3633,-1.3877,-1.4502,-1.4844,-1.4971,-1.5283,-1.5079,-1.4569,-1.5167,-1.505,-1.454,-1.454,-1.4183,-1.3636,-1.3394,-1.3334,-1.3312,-1.307,-1.2604,-1.2143,-1.2143,-1.1593,-1.0926,-1.0926,-1.0776,-1.0613,-1.0687,-1.0653,-1.066,-1.0915,-1.1209,-1.1462,-1.1832,-1.1966,-1.2044,-1.2258,-1.2305,-1.2305,-1.2305,-1.2305,-1.2305,-1.2305,-1.2305,-1.2305,-1.2305,-1.2305,-1.2305,-1.2305,-1.2305,-1.2305,-1.2305,-1.2305,-1.2305,-1.2305,-1.2305,-1.2305,-1.2305,-1.2305,-1.2305,-1.2305,-1.2305,-1.2305,-1.2305,-1.2305,-1.2305,-1.2305,-1.2305,-1.2305,-1.2305,-1.2305,-1.2305,-0.925,-0.9766,-1.04,-1.0811,0.0,0.0,-1.1969,-1.1885,-1.1861,-1.2719,-1.2676,-1.2578,-1.2856,-1.2905,-1.2905,-1.2905,-1.2905,-1.2905,-1.2905,-1.2905,-1.2905,-1.2905,-1.2905,-1.2905,-1.2905,-1.2905,-1.2905,-1.2905,-1.2905,-1.2905,-1.2905,-1.2905,-1.2905,-1.2905,-1.2608,-1.2452,-1.2452,-1.2147,-1.2024,-1.2024,-1.2253,-1.2617,-1.3105,-1.3328,-1.3728,-1.4308,-1.4247,-1.403,-1.3726,-1.4213,-1.4115,-1.3696,-1.3696,-1.3394,-1.2948,-1.2604,-1.2512,-1.2451,-1.212,-1.1694,-1.1288,-1.1288,-1.0989,-1.0593,-1.0593,-1.0593,-1.062,-1.074,-1.0774,-1.0787,-1.0827,-1.1029,-1.1316,-1.1617,-1.1819,-1.1986,-1.2238,-1.2305,-1.2305,-1.2305,-1.2305,-1.2305,-1.2305,-1.2305,-1.2305,-1.2305,-1.2305,-1.2305,-1.2305,-1.2305,-1.2305,-1.2305,-1.2305,-1.2305,-1.2305,-1.2305,-1.2305,-1.2305,-1.2305,-1.2305,-1.2305,-1.2305,-1.2305,-1.2305,-1.2305,-1.2305,-1.2305,-1.2305,-1.2305,-1.2305,-1.2305,-1.2305,-0.9698,-1.0059,-1.0518,-1.083,-1.0664,0.0,-1.1804,-1.1777,-1.1773,-1.2592,-1.2719,-1.2719,-1.2793,-1.2812,-1.2846,-1.2895,-1.2905,-1.2905,-1.2905,-1.2905,-1.2905,-1.2905,-1.2905,-1.2905,-1.2905,-1.2905,-1.2905,-1.2905,-1.2905,-1.2905,-1.2905,-1.2905,-1.2847,-1.2774,-1.2138,-1.1765,-1.169,-1.1091,-1.0788,-1.0788,-1.0788,-1.1328,-1.2305,-1.1746,-1.2185,-1.3331,-1.2816,-1.2683,-1.2799,-1.284,-1.2856,-1.2856,-1.2856,-1.2826,-1.2642,-1.1927,-1.1679,-1.1562,-1.0839,-1.0593,-1.0593,-1.0593,-1.0593,-1.0593,-1.0593,-1.0593,-1.0646,-1.0875,-1.0969,-1.0922,-1.0667,-1.0807,-1.1062,-1.1322,-1.163,-1.1946,-1.2231,-1.2305,-1.2305,-1.2305,-1.2305,-1.2305,-1.2305,-1.2305,-1.2305,-1.2305,-1.2305,-1.2305,-1.2305,-1.2305,-1.2305,-1.2305,-1.2305,-1.2305,-1.2305,-1.2305,-1.2305,-1.2305,-1.2305,-1.2305,-1.2305,-1.2305,-1.2305,-1.2305,-1.2305,-1.2305,-1.2305,-1.2305,-1.2305,-1.2305,-1.2305,-1.2305,-1.0244,-1.0743,-1.1261,-1.0977,-1.1113,0.0,-1.1191,-1.1103,-1.1182,-1.1731,-1.1565,-1.1514,-1.2203,-1.233,-1.2447,-1.2846,-1.2905,-1.2905,-1.2905,-1.2905,-1.2905,-1.2905,-1.2905,-1.2905,-1.2905,-1.2905,-1.2905,-1.2905,-1.2905,-1.2905,-1.2905,-1.2905,-1.2642,-1.203,-1.1888,-1.1541,-1.099,-1.0864,-1.0788,-1.0788,-1.0788,-1.093,-1.1141,-1.1391,-1.1654,-1.1939,-1.2387,-1.2241,-1.166,-1.1905,-1.2012,-1.2012,-1.2012,-1.1624,-1.1052,-1.0895,-1.0832,-1.08,-1.0649,-1.0593,-1.0593,-1.0593,-1.0593,-1.0593,-1.0593,-1.0593,-1.06,-1.066,-1.0847,-1.0922,-1.0667,-1.0807,-1.1062,-1.1322,-1.1435,-1.1657,-1.2191,-1.2305,-1.2305,-1.2305,-1.2305,-1.2305,-1.2305,-1.2305,-1.2305,-1.2305,-1.2305,-1.2305,-1.2305,-1.2305,-1.2305,-1.2305,-1.2305,-1.2305,-1.2305,-1.2305,-1.2305,-1.2305,-1.2305,-1.2305,-1.2305,-1.2305,-1.2305,-1.2305,-1.2305,-1.2305,-1.2305,-1.2305,-1.2305,-1.2305,-1.2305,-1.2305,-1.0654,-1.0929,-1.1252,-1.1252,-1.1418,0.0,0.0,-1.155,-1.1667,-1.2152,-1.1875,-1.1677,-1.2125,-1.2203,-1.2281,-1.252,-1.2744,-1.2905,-1.2905,-1.2905,-1.2905,-1.2905,-1.2905,-1.2905,-1.2905,-1.2905,-1.2905,-1.2905,-1.2905,-1.2905,-1.2905,-1.2905,-1.2559,-1.1814,-1.1491,-1.099,-1.032,-0.9969,-0.9814,-0.9814,-0.9814,-0.9987,-1.0295,-1.0196,-1.0443,-1.0925,-1.1086,-1.0968,-1.0717,-1.1067,-1.1195,-1.1195,-1.1195,-1.0958,-1.0593,-1.0593,-1.0593,-1.0593,-1.0593,-1.0593,-1.0593,-1.0593,-1.0593,-1.0593,-1.0593,-1.0593,-1.0593,-1.0593,-1.07,-1.0774,-1.0626,-1.07,-1.0889,-1.1289,-1.1389,-1.159,-1.2171,-1.2305,-1.2305,-1.2305,-1.2305,-1.2305,-1.2305,-1.2305,-1.2305,-1.2305,-1.2305,-1.2305,-1.2305,-1.2305,-1.2305,-1.2305,-1.2305,-1.2305,-1.2305,-1.2305,-1.2305,-1.2305,-1.2305,-1.2305,-1.2305,-1.2305,-1.2305,-1.2305,-1.2305,-1.2305,-1.2305,-1.2305,-1.2305,-1.2305,-1.2305,-1.2305,-1.116,-1.123,-1.1348,-1.1643,-1.177,-1.1888,0.0,0.0,0.0,-1.2602,-1.2344,-1.2106,-1.2194,-1.2135,-1.2135,-1.2301,-1.2578,-1.2807,-1.2895,-1.2905,-1.2905,-1.2905,-1.2905,-1.2905,-1.2905,-1.2905,-1.2905,-1.2905,-1.2774,-1.2691,-1.2691,-1.2569,-1.2172,-1.1441,-1.0889,-1.0295,-0.9614,-0.9054,-0.8804,-0.8804,-0.8804,-0.9087,-0.9588,-0.9035,-0.9245,-1.0004,-0.9782,-0.982,-1.006,-1.0445,-1.0593,-1.0593,-1.0593,-1.0593,-1.0593,-1.0593,-1.0593,-1.0593,-1.0593,-1.0593,-1.0593,-1.0593,-1.0593,-1.0593,-1.0593,-1.0593,-1.0593,-1.0593,-1.0593,-1.0593,-1.0593,-1.0593,-1.074,-1.1255,-1.1389,-1.159,-1.2171,-1.2305,-1.2305,-1.2305,-1.2305,-1.2305,-1.2305,-1.2305,-1.2305,-1.2305,-1.2305,-1.2305,-1.2305,-1.2305,-1.2305,-1.2305,-1.2305,-1.2305,-1.2305,-1.2305,-1.2305,-1.2305,-1.2305,-1.2305,-1.2305,-1.2305,-1.2305,-1.2305,-1.2305,-1.2305,-1.2305,-1.2305,-1.2305,-1.2305,-1.2305,-1.2305,-1.2164,-1.2363,-1.2578,-1.2213,-1.2441,-1.2563,-1.1829,0.0,-1.2106,-1.18,0.0,-1.178,-1.2135,0.0,0.0,-1.27,-1.2529,-1.2408,-1.2856,-1.2905,-1.2905,-1.2905,-1.2905,-1.2905,-1.2905,-1.2905,-1.2905,-1.2905,-1.2295,-1.1913,-1.1913,-1.1375,-1.072,-1.0038,-0.9961,-0.9588,-0.891,-0.8831,-0.8804,-0.8804,-0.8804,-0.8831,-0.8903,-0.8831,-0.8851,-0.8991,-0.9495,-0.9729,-0.9802,-1.0358,-1.0593,-1.0593,-1.0593,-1.0593,-1.0593,-1.0593,-1.0593,-1.0593,-1.0593,-1.0593,-1.0593,-1.0593,-1.0593,-1.0593,-1.0593,-1.0593,-1.0593,-1.0593,-1.0593,-1.0593,-1.0593,-1.0593,-1.074,-1.1255,-1.1389,-1.159,-1.2171,-1.2305,-1.2305,-1.2305,-1.2305,-1.2305,-1.2305,-1.2305,-1.2305,-1.2305,-1.2305,-1.2305,-1.2305,-1.2305,-1.2305,-1.2305,-1.2305,-1.2305,-1.2305,-1.2305,-1.2305,-1.2305,-1.2305,-1.2305,-1.2305,-1.2305,-1.2305,-1.2305,-1.2305,-1.2305,-1.2305,-1.2305,-1.2305,-1.2305,-1.2305,-1.2305,-1.2252,-1.234,-1.252,-1.2588,-1.2744,-1.2807,-1.2436,-1.2471,-1.2549,-1.2387,0.0,0.0,0.0,0.0,0.0,0.0,-1.233,-1.2359,-1.2822,-1.2905,-1.2905,-1.2905,-1.2905,-1.2905,-1.2905,-1.2905,-1.2905,-1.2905,-1.2212,-1.1789,-1.1789,-1.1166,-1.0491,-0.9814,-0.9788,-0.9484,-0.8811,-0.8804,-0.8804,-0.8804,-0.8804,-0.8804,-0.8804,-0.8804,-0.8804,-0.8838,-0.9426,-0.9715,-0.9755,-1.0352,-1.0593,-1.0593,-1.0593,-1.0593,-1.0593,-1.0593,-1.0593,-1.0593,-1.0593,-1.0593,-1.0593,-1.0593,-1.0593,-1.0593,-1.0593,-1.0593,-1.0593,-1.0593,-1.0593,-1.0593,-1.0593,-1.072,-1.0915,-1.1295,-1.1557,-1.1797,-1.2211,-1.2305,-1.2305,-1.2305,-1.2305,-1.2305,-1.2305,-1.2305,-1.2305,-1.2305,-1.2305,-1.2305,-1.2305,-1.2305,-1.2305,-1.2305,-1.2305,-1.2305,-1.2305,-1.2305,-1.2305,-1.2305,-1.2305,-1.2305,-1.2305,-1.2305,-1.2305,-1.2305,-1.2305,-1.2305,-1.2305,-1.2305,-1.2305,-1.2305,-1.2305,-1.2305,-1.203,-1.2101,-1.2225,-1.2769,-1.2905,-1.2905,-1.2905,-1.2905,-1.2905,-1.2905,-1.2627,0.0,0.0,0.0,-1.1895,-1.2311,0.0,-1.2359,-1.2822,-1.2783,-1.2768,-1.2895,-1.2905,-1.2905,-1.2905,-1.2905,-1.2822,-1.2608,-1.1931,-1.1441,-1.1266,-1.0618,-1.0038,-0.9536,-0.951,-0.9283,-0.8811,-0.8804,-0.8804,-0.8804,-0.8804,-0.8804,-0.8804,-0.8804,-0.8804,-0.8838,-0.9345,-0.9613,-0.9755,-1.0258,-1.0519,-1.0593,-1.0593,-1.0593,-1.0593,-1.0593,-1.0593,-1.0593,-1.0593,-1.0593,-1.0593,-1.0593,-1.0593,-1.0593,-1.0593,-1.0593,-1.0593,-1.0593,-1.0593,-1.0593,-1.0593,-1.0807,-1.1062,-1.1322,-1.165,-1.1986,-1.2238,-1.2305,-1.2305,-1.2305,-1.2305,-1.2305,-1.2305,-1.2305,-1.2305,-1.2305,-1.2305,-1.2305,-1.2305,-1.2305,-1.2305,-1.2305,-1.2305,-1.2305,-1.2305,-1.2305,-1.2305,-1.2305,-1.2305,-1.2305,-1.2305,-1.2305,-1.2305,-1.2305,-1.2305,-1.2305,-1.2305,-1.2305,-1.2305,-1.2305,-1.2305,-1.2305,-1.1648,-1.1821,-1.1987,-1.2715,-1.2905,-1.2905,-1.2905,-1.2905,-1.2905,-1.2905,-1.2895,-1.2886,-1.2886,-1.25,-1.233,-1.2807,-1.251,0.0,0.0,-1.252,-1.2389,-1.2856,-1.2905,-1.2905,-1.2905,-1.2905,-1.2608,-1.1898,-1.1216,-1.0542,-0.9891,-0.9237,-0.8857,-0.8831,-0.8831,-0.8831,-0.8804,-0.8804,-0.8804,-0.8804,-0.8804,-0.8804,-0.8804,-0.8804,-0.8804,-0.8824,-0.9098,-0.9391,-0.9735,-1.0007,-1.0301,-1.0593,-1.0593,-1.0593,-1.0593,-1.0593,-1.0593,-1.0593,-1.0593,-1.0593,-1.0593,-1.0593,-1.0593,-1.0593,-1.0593,-1.0593,-1.0593,-1.0593,-1.0593,-1.0593,-1.0593,-1.0807,-1.1062,-1.1322,-1.165,-1.1986,-1.2238,-1.2305,-1.2305,-1.2305,-1.2305,-1.2305,-1.2305,-1.2305,-1.2305,-1.2305,-1.2305,-1.2305,-1.2305,-1.2305,-1.2305,-1.2305,-1.2305,-1.2305,-1.2305,-1.2305,-1.2305,-1.2305,-1.2305,-1.2305,-1.2305,-1.2305,-1.2305,-1.2305,-1.2305,-1.2305,-1.2305,-1.2305,-1.2305,-1.2305,-1.2305,-1.2305,-1.1091,-1.1141,-1.1291,-1.2005,-1.2178,-1.2295,-1.2798,-1.2905,-1.2905,-1.2905,-1.2905,-1.2905,-1.2905,-1.2529,-1.235,-1.2812,-1.252,-1.2262,0.0,-1.207,-1.1868,-1.2015,-1.2266,-1.2559,-1.2876,-1.2452,-1.208,-1.1814,-1.0771,-1.0038,-0.9814,-0.9159,-0.8804,-0.8804,-0.8804,-0.8804,-0.8804,-0.8804,-0.8804,-0.8804,-0.8804,-0.8804,-0.8804,-0.8804,-0.8804,-0.8824,-0.9084,-0.9384,-0.9735,-1.0,-1.0294,-1.0593,-1.0593,-1.0593,-1.0593,-1.0593,-1.0593,-1.0593,-1.0593,-1.0593,-1.0593,-1.0593,-1.0593,-1.0593,-1.0593,-1.0593,-1.0593,-1.0593,-1.0593,-1.0593,-1.0593,-1.0915,-1.1303,-1.1369,-1.1797,-1.2184,-1.2278,-1.2305,-1.2305,-1.2305,-1.2305,-1.2305,-1.2305,-1.2305,-1.2305,-1.2305,-1.2305,-1.2305,-1.2305,-1.2305,-1.2305,-1.2305,-1.2305,-1.2305,-1.2305,-1.2305,-1.2305,-1.2305,-1.2305,-1.2305,-1.2305,-1.2305,-1.2305,-1.2305,-1.2305,-1.2305,-1.2305,-1.2305,-1.2305,-1.2305,-1.2305,-1.2305,-1.0389,-1.044,-1.0618,-1.1291,-1.1441,-1.1616,-1.2353,-1.2501,-1.2501,-1.2501,-1.2725,-1.2749,-1.2255,-1.2325,-1.2454,-1.2487,-1.2484,-1.2353,0.0,-1.1875,-1.176,-1.1626,-1.1953,-1.2241,-1.2287,-1.2235,-1.1882,-1.1141,-1.0517,-0.9943,-0.9465,-0.9035,-0.8804,-0.8804,-0.8804,-0.8804,-0.8804,-0.8804,-0.8804,-0.8804,-0.8804,-0.8804,-0.8804,-0.8804,-0.8804,-0.8818,-0.8978,-0.9224,-0.9552,-0.984,-1.0134,-1.0445,-1.0553,-1.0593,-1.0593,-1.0593,-1.0593,-1.0593,-1.0593,-1.0593,-1.0593,-1.0593,-1.0593,-1.0593,-1.0593,-1.0593,-1.0593,-1.0593,-1.0593,-1.0593,-1.0593,-1.0989,-1.1389,-1.1389,-1.1877,-1.2305,-1.2305,-1.2305,-1.2305,-1.2305,-1.2305,-1.2305,-1.2305,-1.2305,-1.2305,-1.2305,-1.2305,-1.2305,-1.2305,-1.2305,-1.2305,-1.2305,-1.2305,-1.2305,-1.2305,-1.2305,-1.2305,-1.2305,-1.2305,-1.2305,-1.2305,-1.2305,-1.2305,-1.2305,-1.2305,-1.2305,-1.2305,-1.2305,-1.2305,-1.2305,-1.2305,-1.2305]}]]